[[{"header":{"parameterUnit":"m.s-1","parameterCategory":1,"la1":30.6,"la2":29.2853,"lo1":-89.7004,"lo2":-87.6739,"dy":0.0162,"dx":0.0183,"nx":112,"ny":82,"refTime":"2024-09-16T12:00:00:Z","depth":0,"parameterNumber":2,"parameterNumberName":"U-component_of_WINDS"},"data":[0.0,0.0,0.0,0.0,0.0,0.0,0.0,0.0,0.0,0.0,0.0,0.0,0.0,0.0,0.0,0.0,0.0,0.0,0.0,0.0,0.0,0.0,0.0,0.0,0.0,0.0,0.0,0.0,0.0,0.0,0.0,0.0,0.0,0.0,0.0,0.0,0.0,0.0,0.0,0.0,0.0,0.0,0.0,0.0,0.0,0.0,0.0,0.0,0.0,0.0,0.0,0.0,0.0,0.0,0.0,0.0,0.0,0.0,0.0,0.0,0.0,0.0,0.0,0.0,0.0,0.0,0.0,0.0,0.0,0.0,0.0,0.0,0.0,0.0,0.0,0.0,0.0,0.0,0.0,0.0,0.0,0.0,0.0,0.0,0.0,0.0,0.0,0.0,0.0,0.0,0.4432,0.4782,0.5211,0.548,0.548,0.5449,0.5172,0.4568,0.0,0.0,0.0,0.0,0.0,0.0,0.0,0.0,0.0,0.0,0.0,0.0,0.0,0.0,0.0,0.0,0.0,0.0,0.0,0.0,0.0,0.0,0.0,0.0,0.0,0.0,0.0,0.0,0.0,0.0,0.0,0.0,0.0,0.0,0.0,0.0,0.0,0.0,0.0,0.0,0.0,0.0,0.0,0.0,0.0,0.0,0.0,0.0,0.0,0.0,0.0,0.0,0.0,0.0,0.0,0.0,0.0,0.0,0.0,0.0,0.0,0.0,0.0,0.0,0.0,0.0,0.0,0.0,0.0,0.0,0.0,0.0,0.0,0.0,0.0,0.0,0.0,0.0,0.0,0.0,0.0,0.0,0.0,0.0,0.0,0.0,0.0,0.0,0.0,0.0,0.0,0.0,0.0,0.0,0.0,0.0,0.0,0.0,0.0,0.0,0.0,0.0,0.0,0.0,0.4002,0.4374,0.4483,0.4535,0.4535,0.435,0.4121,0.3775,0.0,0.0,0.0,0.0,0.0,0.0,0.0,0.0,0.0,0.0,0.0,0.0,0.0,0.0,0.0,0.0,0.0,0.0,0.0,0.0,0.0,0.0,0.0,0.0,0.0,0.0,0.0,0.0,0.0,0.0,0.0,0.0,0.0,0.0,0.0,0.0,0.0,0.0,0.0,0.0,0.0,0.0,0.0,0.0,0.0,0.0,0.0,0.0,0.0,0.0,0.0,0.0,0.0,0.0,0.0,0.0,0.0,0.0,0.0,0.0,0.0,0.0,0.0,0.0,0.0,0.0,0.0,0.0,0.0,0.0,0.0,0.0,0.0,0.0,0.0,0.0,0.0,0.0,0.0,0.0,0.0,0.0,0.0,0.0,0.0,0.0,0.0,0.0,0.0,0.0,0.0,0.0,0.0,0.0,0.0,0.0,0.0,0.0,0.0,0.0,0.0,0.0,0.0,0.3711,0.381,0.425,0.4316,0.4316,0.4316,0.4071,0.3858,0.3605,0.3782,0.0,0.0,0.0,0.0,0.0,0.0,0.0,0.0,0.0,0.0,0.0,0.0,0.0,0.0,0.0,0.0,0.0,0.0,0.0,0.0,0.0,0.0,0.0,0.0,0.0,0.0,0.0,0.0,0.0,0.0,0.0,0.0,0.0,0.0,0.0,0.0,0.0,0.0,0.0,0.0,0.0,0.0,0.0,0.0,0.0,0.0,0.0,0.0,0.0,0.0,0.0,0.0,0.0,0.0,0.0,0.0,0.0,0.0,0.0,0.0,0.0,0.0,0.0,0.0,0.0,0.0,0.0,0.0,0.0,0.0,0.0,0.0,0.0,0.0,0.0,0.0,0.0,0.0,0.0,0.0,0.0,0.0,0.0,0.0,0.0,0.0,0.0,0.0,0.0,0.0,0.0,0.0,0.0,0.0,0.0,0.0,0.0,0.0,0.0,0.0,0.0,0.0,0.3326,0.341,0.382,0.3894,0.3858,0.3865,0.3678,0.3482,0.3302,0.3086,0.0,0.0,0.0,0.0,0.0,0.0,0.0,0.0,0.0,0.0,0.0,0.0,0.0,0.0,0.0,0.0,0.0,0.0,0.0,0.0,0.0,0.0,0.0,0.0,0.0,0.0,0.0,0.0,0.0,0.0,0.0,0.0,0.0,0.0,0.0,0.0,0.0,0.0,0.0,0.0,0.0,0.0,0.0,0.0,0.0,0.0,0.0,0.0,0.0,0.0,0.0,0.0,0.0,0.0,0.0,0.0,0.0,0.0,0.0,0.0,0.0,0.0,0.0,0.0,0.0,0.0,0.0,0.0,0.0,0.0,0.0,0.0,0.0,0.0,0.0,0.0,0.0,0.0,0.0,0.0,0.0,0.0,0.0,0.0,0.0,0.0,0.0,0.0,0.0,0.0,0.0,0.0,0.0,0.0,0.0,0.0,0.0,0.0,0.0,0.0,0.0,0.0,0.2534,0.2581,0.2639,0.2613,0.2631,0.2618,0.2594,0.2552,0.239,0.238,0.0,0.0,0.0,0.0,0.0,0.0,0.0,0.0,0.0,0.0,0.0,0.0,0.0,0.0,0.0,0.0,0.0,0.0,0.0,0.0,0.0,0.0,0.0,0.0,0.0,0.0,0.0,0.0,0.0,0.0,0.0,0.0,0.0,0.0,0.0,0.0,0.0,0.0,0.0,0.0,0.0,0.0,0.0,0.0,0.0,0.0,0.0,0.0,0.0,0.0,0.0,0.0,0.0,0.0,0.0,0.0,0.0,0.0,0.0,0.0,0.0,0.0,0.0,0.0,0.0,0.0,0.0,0.0,0.0,0.0,0.0,0.0,0.0,0.0,0.0,0.0,0.0,0.0,0.0,0.0,0.0,0.0,0.0,0.0,0.0,0.0,0.0,0.0,0.0,0.0,0.0,0.0,0.0,0.0,0.0,0.0,0.0,0.0,0.0,0.0,0.0,0.0,0.215,0.2208,0.2428,0.2442,0.245,0.2452,0.2301,0.2215,0.2249,0.0,0.0,0.0,0.0,0.0,0.0,0.0,0.0,0.0,0.0,0.0,0.0,0.0,0.0,0.0,0.0,0.0,0.0,0.0,0.0,0.0,0.0,0.0,0.0,0.0,0.0,0.0,0.0,0.0,0.0,0.0,0.0,0.0,0.0,0.0,0.0,0.0,0.0,0.0,0.0,0.0,0.0,0.0,0.0,0.0,0.0,0.0,0.0,0.0,0.0,0.0,0.0,0.0,0.0,0.0,0.0,0.0,0.0,0.0,0.0,0.0,0.0,0.0,0.0,0.0,0.0,0.0,0.0,0.0,0.0,0.0,0.0,0.0,0.0,0.0,0.0,0.0,0.0,0.0,0.0,0.0,0.0,0.0,0.0,0.0,0.0,0.0,0.0,0.0,0.0,0.0,0.0,0.0,0.0,0.0,0.0,0.0,0.0,0.0,0.0,0.0,0.0,0.1684,0.1627,0.163,0.1821,0.1821,0.1827,0.1835,0.1713,0.1688,0.1767,0.0,0.0,0.0,0.0,0.0,0.0,0.0,0.0,0.0,0.0,0.0,0.0,0.0,0.0,0.0,0.0,0.0,0.0,0.0,0.0,0.0,0.0,0.0,0.0,0.0,0.0,0.0,0.0,0.0,0.0,0.0,0.0,0.0,0.0,0.0,0.0,0.0,0.0,0.0,0.0,0.0,0.0,0.0,0.0,0.0,0.0,0.0,0.0,0.0,0.0,0.0,0.0,0.0,0.0,0.0,0.0,0.0,0.0,0.0,0.0,0.0,0.0,0.0,0.0,0.0,0.0,0.0,0.0,0.0,0.0,0.0,0.0,0.0,0.0,0.0,0.0,0.0,0.0,0.0,0.0,0.0,0.0,0.0,0.0,0.0,0.0,0.0,0.0,0.0,0.0,0.0,0.0,0.0,0.0,0.0,0.0,0.0,0.0,0.0,0.0,0.0,0.0,0.112,0.0987,0.0802,0.0619,0.0609,0.0616,0.0586,0.0798,0.0895,0.0,0.0,0.0,0.0,0.0,0.0,0.0,0.0,0.0,0.0,0.0,0.0,0.0,0.0,0.0,0.0,0.0,0.0,0.0,0.0,0.0,0.0,0.0,0.0,0.0,0.0,0.0,0.0,0.0,0.0,0.0,0.0,0.0,0.0,0.0,0.0,0.0,0.0,0.0,0.0,0.0,0.0,0.0,0.0,0.0,0.0,0.0,0.0,0.0,0.0,0.0,0.0,0.0,0.0,0.0,0.0,0.0,0.0,0.0,0.0,0.0,0.0,0.0,0.0,0.0,0.0,0.0,0.0,0.0,0.0,0.0,0.0,0.0,0.0,0.0,0.0,0.0,0.0,0.0,0.0,0.0,0.0,0.0,0.0,0.0,0.0,0.0,0.0,0.0,0.0,0.0,0.0,0.0,0.0,0.0,0.0,0.0,0.0,0.0,0.0,0.0,0.0,0.0,0.0754,0.0667,0.0586,0.0551,0.0524,0.0526,0.0518,0.0589,0.0673,0.0815,0.0,0.0,0.0,0.0,0.0,0.0,0.0,0.0,0.0,0.0,0.0,0.0,0.0,0.0,0.0,0.0,0.0,0.0,0.0,0.0,0.0,0.0,0.0,0.0,0.0,0.0,0.0,0.0,0.0,0.0,0.0,0.0,0.0,0.0,0.0,0.0,0.0,0.0,0.0,0.0,0.0,0.0,0.0,0.0,0.0,0.0,0.0,0.0,0.0,0.0,0.0,0.0,0.0,0.0,0.0,0.0,0.0,0.0,0.0,0.0,0.0,0.0,0.0,0.0,0.0,0.0,0.0,0.0,0.0,0.0,0.0,0.0,0.0,0.0,0.0,0.0,0.0,0.0,0.0,0.0,0.0,0.0,0.0,0.0,0.0,0.0,0.0,0.0,0.0,0.0,0.0,0.0,0.0,0.0,0.0,0.0,0.0,0.0,0.0,0.0,0.0,0.0,0.0637,0.055,0.0487,0.0487,0.0487,0.0516,0.0505,0.0488,0.0554,0.062,0.0,0.0,0.0,0.0,0.0,0.0,0.0,0.0,0.0,0.0,0.0,0.0,0.0,0.0,0.0,0.0,0.0,0.0,0.0,0.0,0.0,0.0,0.0,0.0,0.0,0.0,0.0,0.0,0.0,0.0,0.0,0.0,0.0,0.0,0.0,0.0,0.0,0.0,0.0,0.0,0.0,0.0,0.0,0.0,0.0,0.0,0.0,0.0,0.0,0.0,0.0,0.0,0.0,0.0,0.0,0.0,0.0,0.0,0.0,0.0,0.0,0.0,0.0,0.0,0.0,0.0,0.0,0.0,0.0,0.0,0.0,0.0,0.0,0.0,0.0,0.0,0.0,0.0,0.0,0.0,0.0,0.0,0.0,0.0,0.0,0.0,0.0,0.0,0.0,0.0,0.0,0.0,0.0,0.0,0.0,0.0,0.0,0.0,0.0,0.0,0.0,0.0,0.0672,0.0545,0.0475,0.0477,0.0475,0.0465,0.0477,0.0469,0.0447,0.0401,0.0,0.0,0.0,0.0,0.0,0.0,0.0,0.0,0.0,0.0,0.0,0.0,0.0,0.0,0.0,0.0,0.0,0.0,0.0,0.0,0.0,0.0,0.0,0.0,0.0,0.0,0.0,0.0,0.0,0.0,0.0,0.0,0.0,0.0,0.0,0.0,0.0,0.0,0.0,0.0,0.0,0.0,0.0,0.0,0.0,0.0,0.0,0.0,0.0,0.0,0.0,0.0,0.0,0.0,0.0,0.0,0.0,0.0,0.0,0.0,-0.3619,0.0,0.0,0.0,0.0,0.0,0.0,0.0,0.0,0.0,0.0,0.0,0.0,0.0,0.0,0.0,0.0,0.0,0.0,0.0,0.0,0.0,0.0,0.0,0.0,0.0,0.0,0.0,0.0,0.0,0.0,0.0,0.0,0.0,0.0,0.0,0.0,0.0,0.0,0.0,0.0,0.0,0.0458,0.0409,0.0333,0.0347,0.0336,0.0326,0.0359,0.0331,0.0341,0.0333,0.0275,0.0,0.0,0.0,0.0,0.0,0.0,0.0,0.0,0.0,0.0,0.0,0.0,0.0,0.0,0.0,0.0,0.0,0.0,0.0,0.0,0.0,0.0,0.0,0.0,0.0,0.0,0.0,0.0,0.0,0.0,0.0,0.0,0.0,0.0,0.0,0.0,0.0,0.0,0.0,0.0,0.0,0.0,0.0,0.0,0.0,0.0,0.0,0.0,0.0,0.0,0.0,0.0,0.0,0.0,0.0,0.0,0.0,0.0,0.0,0.0,-0.4304,0.0,0.0,0.0,0.0,0.0,0.0,0.0,0.0,0.0,0.0,0.0,0.0,0.0,0.0,0.0,0.0,0.0,0.0,0.0,0.0,0.0,0.0,0.0,0.0,0.0,0.0,0.0,0.0,0.0,0.0,0.0,0.0,0.0,0.0,0.0,0.0,0.0,0.0,0.0,0.0,-0.0166,-0.0367,-0.0513,-0.0526,-0.0119,0.0155,0.0152,0.0144,0.017,0.0161,0.0121,0.0,0.0,0.0,0.0,0.0,0.0,0.0,0.0,0.0,0.0,0.0,0.0,0.0,0.0,0.0,0.0,0.0,0.0,0.0,0.0,0.0,0.0,0.0,0.0,0.0,0.0,0.0,0.0,0.0,0.0,0.0,0.0,0.0,0.0,0.0,0.0,0.0,0.0,0.0,0.0,0.0,0.0,0.0,0.0,0.0,0.0,0.0,0.0,0.0,0.0,0.0,0.0,0.0,-0.6514,-0.6608,-0.6608,-0.6644,-0.6499,-0.6231,-0.6145,-0.5991,-0.5726,-0.468,0.0,0.0,0.0,0.0,0.0,0.0,0.0,0.0,0.0,0.0,0.0,0.0,0.0,0.0,0.0,0.0,0.0,0.0,0.0,0.0,0.0,0.0,-0.3448,-0.3354,-0.3162,-0.2798,-0.217,0.0,0.0,0.0,0.0,0.0,0.0,0.0,0.0,0.0,0.0,0.0,-0.0972,-0.1389,-0.1643,-0.1655,-0.0969,-0.0372,-0.004,-0.0,-0.0,-0.0,-0.0,-0.0,0.0,0.0,0.0,0.0,0.0,0.0,0.0,0.0,0.0,0.0,0.0,0.0,0.0,0.0,0.0,0.0,0.0,0.0,0.0,0.0,0.0,0.0,0.0,0.0,0.0,0.0,0.0,0.0,0.0,0.0,0.0,0.0,-0.3901,-0.3701,0.0,0.0,0.0,0.0,0.0,0.0,0.0,0.0,0.0,0.0,0.0,0.0,0.0,-0.6494,-0.6962,-0.7586,-0.7944,-0.7998,-0.8633,-0.896,-0.896,-0.9197,-0.9258,-0.9205,-0.8964,0.0,-0.5132,-0.4956,0.0,0.0,0.0,0.0,0.0,0.0,0.0,0.0,0.0,0.0,0.0,0.0,0.0,0.0,0.0,0.0,0.0,0.0,0.0,0.0,0.0,0.0,-0.508,-0.4128,-0.3991,-0.3902,-0.3185,-0.2606,-0.2126,-0.1691,-0.1532,-0.1359,0.0,0.0,0.0,0.0,0.0,0.0,-0.1623,-0.2267,-0.2695,-0.2711,-0.2588,-0.1846,-0.0125,-0.0,-0.0,-0.0,-0.0,-0.0,-0.0,0.0031,0.0,0.0,0.0,0.0,0.0,0.0,0.0,0.0,0.0,0.0,0.0,0.0,0.0,0.0,0.0,0.0,0.0,0.0,0.0,0.0,0.0,0.0,0.0,0.0,0.0,0.0,0.0,0.0,0.0,-0.4216,-0.4478,-0.4334,-0.4608,-0.4677,0.0,0.0,0.0,0.0,0.0,0.0,0.0,0.0,0.0,-0.7522,-0.7553,-0.785,-0.8443,-0.8751,-0.9085,-0.942,-0.9727,-0.9968,-1.0109,-1.0258,-1.0102,-0.9719,-0.9611,-0.8725,-0.7298,-0.6368,-0.5834,-0.5494,0.0,0.0,0.0,0.0,-0.4945,-0.5007,-0.5583,-0.5802,-0.5776,-0.5609,0.0,0.0,0.0,0.0,0.0,0.0,0.0,-0.5395,-0.5427,-0.5567,-0.5449,-0.4763,-0.4474,-0.4121,-0.3533,-0.3197,-0.2876,-0.2357,-0.2221,-0.2065,-0.1723,-0.1548,0.0,0.0,0.0,-0.1792,-0.2119,-0.26,-0.2903,-0.2912,-0.2556,-0.1917,-0.0872,-0.03,-0.0,-0.0,-0.0,-0.0,-0.0,-0.0,0.0063,0.0,0.0,0.0,0.0,0.0,0.0,0.0,0.0,0.0,0.0,0.0,0.0,0.0,0.0,0.0,0.0,0.0,0.0,0.0,0.0,0.0,0.0,0.0,0.0,0.0,0.0,0.0,0.0,-0.4834,-0.5072,-0.5125,-0.544,-0.5502,0.0,0.0,0.0,0.0,0.0,0.0,-0.7001,-0.7126,-0.7647,-0.8688,-0.8754,-0.9137,-0.9755,-0.9857,-1.013,-1.0548,-1.0548,-1.0645,-1.0839,-1.0928,-1.0677,-1.0208,-1.0123,-0.9974,-0.9611,-0.7888,-0.7161,-0.7029,-0.6026,-0.5544,-0.5454,-0.5737,-0.5832,-0.5838,-0.6422,-0.6686,-0.6699,-0.6428,-0.6228,-0.6019,-0.5685,0.0,0.0,0.0,0.0,-0.6171,-0.6454,-0.627,-0.5875,-0.5487,-0.5048,-0.4535,-0.3928,-0.3751,-0.3562,-0.2985,-0.2862,-0.2733,-0.2404,-0.2233,0.0,-0.217,-0.2266,-0.2382,-0.2503,-0.2746,-0.2909,-0.2912,-0.246,-0.2057,-0.1792,-0.0671,-0.0,-0.0,-0.0,-0.0,-0.0,-0.0,-0.0,-0.0,0.0,0.0,0.0,0.0,0.0,0.0,0.0,0.0,0.0,0.0,0.0,0.0,0.0,0.0,0.0,0.0,0.0,0.0,0.0,0.0,0.0,0.0,0.0,0.0,0.0,0.0,0.0,0.0,0.0,-0.6275,-0.6455,0.0,0.0,0.0,0.0,-0.6499,-0.6831,-0.7391,-0.8157,-0.8511,-0.9022,-0.9771,-1.0083,-1.0417,-1.0813,-1.1065,-1.1225,-1.1242,-1.1242,-1.1242,-1.1292,-1.1543,-1.1633,-1.1566,-1.1316,-1.1216,-1.1048,-0.9131,-0.8165,-0.7902,-0.7324,-0.6761,-0.6284,-0.6696,-0.6678,-0.6488,-0.6859,-0.7188,-0.7375,-0.7074,-0.656,-0.6171,-0.6665,-0.6363,0.0,0.0,-0.7122,-0.7199,-0.7455,-0.7293,-0.6871,-0.6367,-0.5958,-0.5443,-0.4491,-0.418,-0.3953,-0.3456,-0.3259,-0.3121,-0.2973,0.0,-0.2837,-0.2837,-0.2915,-0.2921,-0.2894,-0.2959,-0.2993,-0.2912,-0.2868,-0.2826,-0.2834,-0.1074,-0.0,-0.0,-0.0,-0.0,-0.0,-0.0,-0.0,-0.0,0.0133,0.0,0.0,0.0,0.0,0.0,0.0,0.0,0.0,0.0,0.0,0.0,0.0,0.0,0.0,0.0,0.0,0.0,0.0,0.0,0.0,0.0,0.0,0.0,0.0,0.0,0.0,0.0,0.0,-0.7589,-0.7688,0.0,-0.7588,-0.7455,-0.756,-0.7968,-0.8496,-0.9006,-0.9554,-0.9847,-1.0239,-1.0797,-1.0864,-1.1031,-1.1175,-1.1267,-1.1377,-1.1578,-1.1578,-1.1628,-1.1828,-1.1927,-1.1977,-1.1977,-1.1877,-1.1819,-1.1701,-1.026,-0.9317,-0.8678,-0.793,-0.7498,-0.7308,-0.7304,-0.7204,-0.7148,-0.7012,-0.7214,-0.7493,-0.7341,-0.7168,-0.7034,-0.7204,-0.7125,-0.7062,-0.7755,-0.7953,-0.7933,-0.7806,-0.7654,-0.7293,-0.644,-0.6027,-0.5571,-0.4731,-0.4447,-0.4249,-0.3843,-0.3602,-0.3459,-0.3459,-0.3376,-0.3312,-0.3174,-0.3156,-0.3101,-0.3104,-0.3096,-0.3126,-0.3084,-0.3084,-0.2907,-0.2417,-0.2059,-0.1326,-0.0086,-0.0,-0.0,-0.0,-0.0,-0.0,-0.0,0.0033,0.0271,0.0,0.0,0.0,0.0,0.0,0.0,0.0,0.0,0.0,0.0,0.0,0.0,0.0,0.0,0.0,0.0,0.0,0.0,0.0,0.0,0.0,0.0,0.0,0.0,0.0,0.0,-0.8356,-0.8723,-0.9013,-0.9149,-0.9014,-0.9129,-0.9388,-0.9792,-1.0082,-1.0414,-1.0799,-1.0882,-1.1002,-1.1318,-1.1377,-1.1418,-1.1418,-1.1528,-1.1678,-1.1828,-1.1828,-1.1927,-1.2076,-1.2076,-1.2076,-1.2076,-1.2076,-1.2076,-1.2026,-1.1091,-1.0396,-0.9784,-0.8637,-0.8163,-0.8056,-0.7849,-0.7755,-0.7609,-0.7515,-0.7542,-0.7635,-0.7789,-0.7702,-0.7642,-0.7789,-0.7815,-0.7923,-0.8383,-0.8517,-0.8477,-0.8277,-0.7973,-0.7581,-0.6879,-0.6505,-0.6129,-0.5423,-0.5283,-0.5157,-0.4561,-0.4073,-0.3733,-0.3781,-0.3781,-0.37,-0.3552,-0.349,-0.3444,-0.3395,-0.3358,-0.333,-0.3285,-0.3245,-0.2993,-0.2499,-0.2504,-0.1899,-0.0516,-0.0254,-0.0166,-0.0121,-0.0038,-0.0074,-0.0219,-0.0233,0.0126,0.0861,0.0,0.0,0.0,0.0,0.0,0.0,0.0,0.0,0.0,0.0,0.0,0.0,0.0,0.0,0.0,0.0,0.0,0.0,0.0,0.0,0.0,0.0,0.0,-0.8158,-0.8668,-0.9227,-0.9707,-1.0328,-1.0711,-1.0644,-1.1126,-1.156,-1.1872,-1.1546,-1.1492,-1.1832,-1.1519,-1.1318,-1.1326,-1.1578,-1.1719,-1.1719,-1.1977,-1.2126,-1.2126,-1.2126,-1.2126,-1.2126,-1.2126,-1.2126,-1.2126,-1.2126,-1.2126,-1.2076,-1.1519,-1.1326,-1.1116,-0.9472,-0.8689,-0.8434,-0.8427,-0.819,-0.7969,-0.827,-0.8183,-0.7989,-0.8277,-0.8176,-0.7996,-0.834,-0.842,-0.8487,-0.8724,-0.8811,-0.8804,-0.8798,-0.8363,-0.7875,-0.7713,-0.7498,-0.7154,-0.6549,-0.6661,-0.658,-0.5495,-0.4583,-0.4033,-0.4033,-0.4026,-0.4022,-0.4026,-0.4019,0.0,-0.3817,-0.3701,-0.357,-0.3422,-0.33,-0.322,-0.317,-0.2364,-0.1649,-0.1199,-0.0772,-0.0462,-0.0335,-0.0121,-0.023,-0.0695,-0.0693,-0.0104,0.1164,0.0,0.0,0.0,0.0,0.0,0.0,0.0,0.0,0.0,0.0,0.0,0.0,0.0,0.0,0.0,0.0,0.0,0.0,0.0,0.0,0.0,-0.8771,-0.9101,-0.8874,-0.9559,-1.0385,-1.1195,-1.1214,-1.1364,-1.1907,-1.2044,-1.2122,-1.2253,-1.2281,-1.2387,-1.2521,-1.2107,-1.2026,-1.2332,-1.2076,-1.1977,-1.1977,-1.2175,-1.2234,-1.2234,-1.2323,-1.2372,-1.2372,-1.2372,-1.2372,-1.2372,-1.2372,-1.2372,-1.2323,-1.176,-1.1309,-1.0854,-0.9873,-0.9459,-0.9358,-0.874,-0.833,-0.8065,-0.8319,-0.8416,-0.8405,-0.8493,-0.8466,-0.8461,-0.8636,-0.8713,-0.8726,-0.8874,-0.8962,-0.8856,-0.8602,-0.8216,-0.7822,-0.7596,-0.7438,-0.7154,-0.6549,-0.6374,-0.6131,-0.5315,-0.482,-0.4452,-0.4395,-0.4161,-0.4056,-0.4117,-0.3995,-0.3894,-0.3956,-0.3936,-0.382,-0.3711,-0.3662,-0.3455,-0.304,-0.2591,-0.187,-0.0692,-0.0604,-0.0552,-0.0533,-0.045,-0.0451,-0.05,-0.0623,-0.0402,0.0,0.0,0.0,0.0,0.0,0.0,0.0,0.0,0.0,0.0,0.0,0.0,0.0,0.0,0.0,0.0,0.0,0.0,0.0,0.0,0.0,0.0,-1.0274,-1.0549,-1.0267,-1.0605,-1.1159,-1.1916,-1.1982,-1.2225,-1.2955,-1.3093,-1.3207,-1.3369,-1.3314,-1.3362,-1.3521,-1.2919,-1.2647,-1.29,-1.2471,-1.2283,-1.2283,-1.2323,-1.2382,-1.2382,-1.248,-1.248,-1.248,-1.248,-1.248,-1.248,-1.248,-1.248,-1.248,-1.2116,-1.181,-1.141,0.0,0.0,0.0,0.0,-0.8733,-0.8559,-0.8687,-0.8799,-0.885,-0.885,-0.885,-0.885,-0.8945,-0.8945,-0.8987,-0.9065,-0.9061,-0.8967,-0.87,-0.8387,-0.807,-0.7889,-0.7802,-0.7661,-0.7311,-0.7057,-0.6707,-0.5967,-0.5537,0.0,-0.4688,-0.4374,-0.4236,-0.4324,-0.4185,-0.4104,-0.4192,-0.4151,-0.403,-0.3992,-0.387,-0.3662,-0.33,-0.3114,0.0,0.0,0.0,-0.091,-0.0641,-0.0653,0.0,0.0,0.0,0.0,0.0,0.0,0.0,0.0,0.2454,0.2607,0.0,0.0,0.0,0.0,0.0,0.0,0.0,0.0,0.0,0.0,0.0,0.0,0.0,0.0,0.0,0.0,-1.1761,-1.2197,-1.2028,-1.1731,-1.1719,-1.23,-1.271,-1.3192,-1.3806,-1.4224,-1.4558,-1.4754,-1.4408,-1.4351,-1.456,0.0,0.0,0.0,0.0,-1.248,-1.248,-1.2529,-1.2529,-1.2529,-1.2529,-1.2529,-1.2529,-1.2529,-1.2529,-1.2529,-1.2529,-1.2529,-1.2529,-1.2529,-1.2529,-1.2323,-1.0728,-0.9769,-0.9211,-0.9211,-0.9211,-0.9211,-0.9211,0.0,0.0,-0.9211,-0.9211,-0.9211,-0.9263,-0.9263,-0.9263,-0.9211,-0.9159,-0.9061,-0.9008,-0.8693,-0.8427,-0.8427,-0.8427,-0.837,-0.833,-0.8094,-0.77,-0.6977,-0.6411,-0.5727,-0.4853,-0.4615,-0.4498,-0.4515,-0.4501,-0.4498,-0.4515,-0.4351,-0.4214,-0.4197,-0.4005,0.0,-0.3795,-0.3631,-0.3143,-0.2144,-0.1736,-0.1257,-0.0725,-0.0715,-0.0745,-0.082,-0.0803,-0.0294,0.0761,0.0913,0.1525,0.2594,0.2464,0.262,0.0,0.0,0.0,0.0,0.0,0.0,0.0,0.0,0.0,0.0,0.0,0.0,0.0,0.0,0.0,-1.1945,-1.2338,-1.2679,-1.3116,-1.2648,-1.2533,-1.326,-1.3413,-1.3822,-1.4744,-1.4915,-1.4971,-1.5017,-1.4663,-1.4606,-1.496,-1.3873,-1.3351,-1.3674,-1.289,-1.248,-1.248,-1.2627,-1.2676,-1.2676,-1.2774,0.0,-1.2832,-1.2832,-1.2832,-1.2832,-1.2832,-1.2832,-1.2832,-1.2832,-1.2578,-1.2076,-1.1217,-1.0241,-0.9361,-0.9361,-0.9361,-0.9361,-0.9263,-0.9256,-0.9361,-0.9361,-0.9361,-0.9361,-0.9517,-0.951,0.0,-0.9413,-0.9361,-0.9256,-0.9061,-0.8789,-0.852,-0.8427,-0.8427,-0.831,-0.807,-0.7955,-0.7594,-0.6665,-0.6202,-0.5782,-0.5011,-0.4685,-0.4485,-0.4498,-0.4365,-0.4331,-0.4501,-0.4491,-0.4375,-0.4207,-0.4143,-0.406,-0.3812,-0.3438,-0.2868,-0.2148,-0.1378,-0.0884,-0.0785,-0.0766,-0.0784,-0.0789,-0.0795,-0.0712,-0.0527,0.0422,0.1016,0.1314,0.2485,0.3072,0.0,0.0,0.0,0.0,0.0,0.0,0.0,0.0,0.0,0.0,0.0,-1.0726,-1.0947,0.0,-1.2555,-1.3206,-1.3387,-1.3506,-1.3689,-1.331,-1.3118,-1.3357,-1.3512,-1.3891,-1.4616,-1.4959,-1.5153,-1.5289,-1.513,-1.513,-1.5424,-1.4628,-1.4107,-1.4061,-1.342,-1.2958,-1.2676,-1.2783,-1.2783,-1.2783,-1.2881,-1.2881,-1.2881,-1.2881,-1.2881,-1.2881,-1.2881,-1.2881,-1.2881,-1.2881,-1.2578,-1.2076,-1.1719,-1.0905,-0.988,-0.988,-0.9725,-0.951,-0.9413,-0.9465,-0.951,-0.951,-0.951,-0.951,-0.9562,-0.9614,-0.9562,-0.951,-0.9458,-0.9361,-0.9211,-0.9047,-0.8892,-0.8738,-0.8687,-0.8646,-0.8404,-0.8119,-0.7723,-0.7227,-0.6561,-0.5941,-0.5504,-0.5105,-0.4757,-0.4725,-0.4616,-0.4544,-0.4622,-0.4577,-0.4546,-0.4362,-0.4237,-0.4133,-0.4033,-0.321,-0.2619,-0.2285,-0.1358,-0.0786,-0.0786,-0.0814,-0.083,-0.083,-0.0845,-0.0698,-0.0437,0.0437,0.1046,0.1397,0.253,0.3056,0.0,0.0,0.0,0.0,0.0,0.0,0.0,0.0,-1.1022,-1.0761,-1.1528,-1.2345,-1.2634,-1.322,-1.3823,-1.4315,-1.4397,-1.4332,-1.4105,-1.3861,-1.3599,-1.3374,-1.3486,-1.3848,-1.4464,-1.4894,-1.5274,-1.5603,-1.5647,-1.5703,-1.5881,-1.5424,-1.496,-1.4536,-1.3894,-1.343,-1.3017,-1.2929,-1.2881,-1.2881,-1.2881,-1.2881,-1.2881,-1.2881,-1.2881,-1.2881,-1.2881,-1.2881,-1.2881,-1.2881,-1.2627,-1.2234,-1.2126,-1.1469,-1.0549,-1.0454,-1.0035,-0.9614,-0.9614,-0.9614,-0.9614,-0.9614,-0.9614,-0.9614,-0.9614,-0.9614,-0.9614,-0.9614,-0.951,-0.9413,-0.9413,-0.9309,-0.9211,-0.9061,-0.9008,-0.8956,-0.8857,-0.8421,-0.8037,-0.7925,-0.7176,-0.6426,-0.6109,-0.5618,-0.523,-0.4952,-0.4897,-0.4846,-0.4743,-0.4743,-0.4688,-0.4574,-0.4415,-0.4227,-0.4039,-0.3054,-0.2393,-0.2239,-0.1333,-0.0825,-0.0825,-0.0848,-0.0915,-0.0915,-0.0885,-0.0617,-0.0,0.0615,0.1229,0.179,0.2521,0.286,-0.9079,-1.0563,-1.0822,-1.075,-1.0569,-1.0802,0.0,0.0,-1.1984,-1.2726,-1.3612,-1.4149,-1.3783,-1.438,-1.485,-1.4763,-1.4746,-1.4746,-1.4714,-1.4452,-1.4176,-1.3847,-1.37,-1.4053,-1.5167,-1.5313,-1.5599,-1.6064,-1.6113,-1.6156,-1.6144,-1.5591,-1.5266,-1.5175,-1.4165,-1.3573,-1.3525,-1.3113,-1.2881,-1.2881,-1.2881,-1.2881,-1.2881,-1.2881,-1.2881,-1.2881,-1.2881,-1.2881,-1.2881,-1.2881,-1.2881,-1.2783,-1.2283,-1.1719,-1.1049,-1.06,-1.0035,-0.9614,-0.9614,-0.9614,-0.9614,-0.9614,-0.9614,-0.9614,-0.9614,-0.9614,-0.9614,-0.9614,-0.9562,-0.9562,-0.9413,-0.9413,-0.9361,-0.9211,-0.9113,-0.9008,-0.8956,-0.8857,-0.8533,-0.7984,-0.7818,-0.7391,-0.6372,-0.61,-0.5828,-0.5007,-0.4897,-0.4897,-0.4901,-0.4901,-0.4846,-0.4688,-0.4673,-0.4334,-0.3567,-0.286,-0.2272,-0.1742,-0.1198,-0.0887,-0.0887,-0.089,-0.0892,-0.0892,-0.0896,-0.0617,-0.0,0.0615,0.1229,0.179,0.241,0.2802,-1.0141,-1.1205,-1.1208,-1.1189,-1.1842,-1.2574,-1.2891,-1.3405,-1.3901,-1.4147,-1.4691,-1.5007,-1.4657,-1.5007,-1.5225,0.0,-1.4918,-1.4935,-1.4839,-1.4578,-1.4374,-1.4246,-1.4369,-1.4584,-1.4876,-1.5396,-1.5849,-1.6151,-1.62,-1.62,-1.62,-1.5957,-1.568,-1.5344,-1.4617,-1.4118,-1.3836,-1.3324,-1.3094,-1.3094,-1.3094,-1.3094,-1.3094,-1.3094,-1.3094,-1.3094,-1.3094,-1.3094,-1.3094,-1.3094,-1.3094,-1.3045,-1.252,-1.1968,-1.136,-1.0651,-1.0035,-0.9614,-0.9614,-0.9614,-0.9614,-0.9614,-0.9614,-0.9614,-0.9614,-0.9614,-0.9614,-0.9614,-0.9614,-0.9562,-0.951,-0.951,-0.9465,-0.9361,-0.9256,-0.9211,-0.9061,-0.8956,-0.8798,-0.8474,-0.815,-0.7765,-0.7278,-0.6637,-0.61,-0.5714,-0.5344,-0.5124,-0.5014,-0.5014,-0.4959,-0.4849,-0.4743,-0.4553,-0.4162,-0.3227,-0.2516,-0.2242,-0.1388,-0.0898,-0.0898,-0.0898,-0.0898,-0.0898,-0.0898,-0.0617,-0.0,0.0615,0.1229,0.179,0.241,0.2747,-1.0849,-1.1788,-1.209,-1.2082,-1.3293,-1.4347,-1.3916,-1.4668,-1.5455,-1.5375,-1.5491,-1.5555,-1.5448,-1.5417,-1.5372,-1.509,-1.5134,-1.5165,-1.5011,-1.478,-1.4641,-1.4578,-1.5073,-1.5289,-1.4993,-1.5632,-1.6125,-1.6281,-1.6275,-1.6275,-1.6275,-1.6275,-1.6088,-1.5712,-1.5164,-1.4744,-1.4387,-1.3732,-1.3399,-1.3399,-1.3266,-1.3218,-1.3218,-1.3218,-1.3218,-1.3218,-1.3218,-1.3218,-1.3218,-1.3218,-1.3218,-1.3122,-1.251,-1.1968,-1.1501,-1.06,-1.0043,-0.9673,-0.9614,-0.9614,-0.9614,-0.9614,-0.9614,-0.9614,-0.9614,-0.9614,-0.9614,-0.9614,-0.9614,-0.9614,-0.9614,-0.9614,-0.9562,-0.9458,-0.9413,-0.9361,-0.9159,-0.9061,-0.9008,-0.8857,-0.8527,-0.8143,-0.7925,-0.7069,-0.6372,-0.6209,-0.5673,-0.5242,-0.5183,-0.5128,-0.5069,-0.4956,-0.4849,-0.4684,-0.4519,-0.3403,-0.2681,-0.2514,-0.1512,-0.0898,-0.0898,-0.0898,-0.0898,-0.0898,-0.0898,-0.0505,0.0224,0.0671,0.1285,0.2071,0.2521,0.2691,-1.124,-1.2537,-1.4089,-1.4033,-1.4837,-1.5748,-1.6189,-1.6243,-1.6238,-1.6501,-1.613,-1.5876,-1.6134,-1.5695,-1.54,-1.5649,-1.5624,-1.5551,-1.5389,-1.5328,-1.5147,-1.4839,-1.5616,-1.6118,-1.5955,-1.6214,-1.641,-1.6484,-1.6479,-1.6479,-1.6479,-1.6436,-1.6392,-1.6349,-1.5712,-1.5389,-1.5344,-1.4433,-1.3978,-1.3978,-1.3447,-1.3218,-1.3218,-1.3218,-1.3218,-1.3218,-1.3218,-1.3218,-1.3218,-1.3218,-1.3218,-1.3122,-1.2049,-1.1601,-1.1451,-1.0403,-0.9895,-0.9792,-0.9621,-0.9614,-0.9614,-0.9614,-0.9614,-0.9614,-0.9614,-0.9614,-0.9614,-0.9614,-0.9614,-0.9614,-0.9614,-0.9614,-0.9614,-0.9614,-0.951,-0.9413,-0.9413,-0.9263,-0.9159,-0.9008,-0.8956,-0.8738,-0.8037,-0.745,-0.6864,-0.6263,-0.5673,-0.5297,-0.5297,-0.5183,-0.5069,-0.5069,-0.4956,-0.4677,-0.4064,-0.3347,-0.2627,-0.2069,-0.1289,-0.0898,-0.0898,-0.0898,-0.0898,-0.0898,-0.0898,-0.0336,0.0894,0.0894,0.151,0.2691,0.2691,0.2691,-1.3185,-1.398,-1.4681,-1.5551,-1.6214,-1.6643,-1.6663,-1.6798,-1.6844,-1.6528,-1.6175,-1.5783,-1.528,-1.5114,-1.5049,-1.5152,-1.5273,-1.537,-1.5448,-1.5463,-1.5403,-1.5284,-1.6323,-1.692,-1.6487,-1.6854,0.0,-1.7037,-1.6976,-1.6863,-1.662,-1.6534,-1.6479,-1.6479,-1.5932,-1.5534,-1.5187,-1.4593,-1.4082,-1.3752,-1.3563,-1.3467,-1.3467,-1.3467,-1.3467,-1.3467,-1.3467,-1.3467,-1.3467,-1.3467,-1.3467,-1.3372,-1.2677,-1.2187,-1.176,-1.0956,-1.0462,-1.011,-0.9947,-0.9784,-0.974,-0.974,-0.9673,-0.9614,-0.9614,-0.9614,-0.9614,-0.9614,-0.9614,-0.9614,-0.9614,-0.9614,-0.9614,-0.9614,-0.9562,-0.9517,-0.9413,-0.9361,-0.9309,-0.9159,-0.9061,-0.8903,-0.8685,-0.7777,-0.6761,-0.5727,-0.5407,-0.5297,-0.5297,-0.5242,-0.5242,-0.5242,-0.5128,-0.4956,-0.4732,-0.3683,-0.2907,-0.2627,-0.1624,-0.101,-0.0898,-0.0898,-0.0898,-0.0898,-0.0898,-0.028,0.0894,0.0894,0.151,0.2691,0.2691,0.2691,-1.4545,-1.532,-1.5951,-1.697,-1.7521,-1.7772,-1.7487,-1.7309,-1.6998,-1.6282,-1.5558,-1.4939,-1.463,-1.434,-1.4411,-1.5146,-1.5298,-1.5417,-1.5679,-1.5667,-1.5698,-1.5831,-1.6819,-1.747,-1.7346,-1.7849,0.0,-1.7299,-1.7256,-1.706,-1.6663,-1.6534,-1.6522,-1.6522,-1.6207,-1.5901,-1.5591,-1.496,-1.4326,-1.3621,-1.3621,-1.3621,-1.3621,-1.3621,-1.3621,-1.3621,-1.3621,-1.3621,-1.3621,-1.3621,-1.3621,-1.3573,-1.3016,-1.257,-1.2187,-1.141,-1.0913,-1.0565,-1.0154,-0.9947,-0.9844,-0.9844,-0.9836,-0.9725,-0.9673,-0.9673,-0.9673,-0.9614,-0.9614,-0.9614,-0.9614,-0.9614,-0.9614,-0.9614,-0.9614,-0.9562,-0.951,-0.9458,-0.9413,-0.9309,-0.9211,-0.9113,-0.9061,-0.799,-0.6756,-0.5462,-0.5297,-0.5297,-0.5297,-0.5297,-0.5297,-0.5297,-0.5242,-0.5183,-0.5183,-0.3959,-0.3125,-0.307,-0.1847,-0.1066,-0.0954,-0.0898,-0.0898,-0.0898,-0.0898,-0.028,0.0894,0.0894,0.151,0.2691,0.2691,0.2691,-1.5326,-1.6524,-1.7867,-1.8279,-1.8804,-1.9104,-1.8591,-1.7705,-1.676,-1.582,-1.4397,-1.348,-1.4049,-1.3448,-1.3521,-1.547,-1.5671,-1.5694,-1.609,-1.6055,-1.6111,0.0,0.0,0.0,-1.8431,-1.9081,0.0,-1.7393,0.0,-1.7118,-1.6607,-1.6522,-1.6522,-1.6522,-1.6522,-1.6522,-1.6466,-1.5546,-1.4593,-1.3621,-1.3621,-1.3621,-1.3621,-1.3621,-1.3621,-1.3621,-1.3621,-1.3621,-1.3621,-1.3621,-1.3621,-1.3573,-1.3064,-1.2812,-1.2667,-1.171,-1.1326,-1.1175,-1.03,-0.9999,-0.9999,-0.9999,-0.9999,-0.9999,-0.9851,-0.9784,-0.9777,-0.9614,-0.9599,-0.9592,-0.9607,-0.9614,-0.9614,-0.9614,-0.9614,-0.9614,-0.9614,-0.9614,-0.9562,-0.9413,-0.9361,-0.9309,-0.9159,-0.809,-0.6804,-0.5517,-0.5297,-0.5297,-0.5297,-0.5297,-0.5297,-0.5297,-0.5297,-0.5297,-0.5242,-0.4067,-0.3287,-0.3287,-0.1902,-0.1122,-0.1122,-0.0954,-0.0898,-0.0898,-0.0898,-0.028,0.0894,0.095,0.1566,0.2691,0.2691,0.2691,-1.6889,-1.7929,-1.8795,-1.9353,-1.9503,-1.9244,-1.8258,-1.7746,-1.6885,-1.4898,-1.4024,-1.3311,-1.2379,-1.2263,-1.2769,-1.4234,-1.4783,0.0,-1.6743,-1.6903,0.0,-1.7354,0.0,-1.8435,-1.8545,-1.9209,0.0,0.0,-1.808,-1.776,-1.7421,-1.7031,-1.6791,-1.6791,-1.6791,-1.6565,-1.612,-1.5096,-1.4233,-1.3621,-1.3621,-1.3621,-1.3621,-1.3621,-1.3621,-1.3621,-1.3621,-1.3621,-1.3621,-1.3621,-1.3621,-1.3573,-1.3467,-1.316,-1.2716,-1.2049,-1.1619,-1.1217,-1.0565,-1.0316,-1.0213,-1.0213,-1.011,-0.9999,-0.9851,-0.9679,-0.9537,-0.9607,-0.9453,-0.9336,-0.9555,-0.9614,-0.9614,-0.9614,-0.9614,-0.9614,-0.9614,-0.9614,-0.9614,-0.9562,-0.9152,-0.8567,-0.7931,-0.7128,-0.6327,-0.5407,-0.5297,-0.5297,-0.5297,-0.5297,-0.5297,-0.5297,-0.5297,-0.5132,-0.4739,-0.3959,-0.3289,-0.2734,-0.1792,-0.1178,-0.1122,-0.0954,-0.0898,-0.0898,-0.0449,0.0168,0.0894,0.1342,0.1959,0.2691,0.2691,0.2691,-1.8222,-1.9036,-1.9687,-1.9952,-1.9563,-1.8839,-1.7787,-1.6826,-1.558,-1.3515,-1.2687,-1.2076,-1.1212,-1.142,-1.2268,0.0,0.0,0.0,-1.678,-1.7195,-1.7469,0.0,-1.8298,0.0,-1.9051,-1.9445,-1.9493,0.0,-1.8447,-1.8014,-1.7639,-1.7157,-1.6876,-1.6876,-1.6876,-1.6607,-1.6051,-1.5266,-1.4582,-1.4071,-1.3858,-1.3773,-1.3773,-1.3773,-1.3773,-1.3773,-1.3773,-1.3716,-1.3668,-1.3668,-1.3668,-1.3621,-1.3621,-1.3266,-1.2716,-1.2197,-1.171,-1.1226,-1.0675,-1.047,-1.0368,-1.0368,-1.0316,-1.0205,-1.0058,-0.9929,-0.9771,-0.9681,-0.9555,-0.9467,-0.957,-0.9614,-0.9614,-0.9614,-0.9614,-0.9614,-0.9614,-0.9406,-0.9197,-0.8928,-0.856,-0.8031,-0.7283,-0.6858,-0.6322,-0.5567,-0.5407,-0.5407,-0.5301,-0.5297,-0.5297,-0.5297,-0.5297,-0.5077,-0.4574,-0.3959,-0.3292,-0.2625,-0.1849,-0.1347,-0.1178,-0.1066,-0.0842,-0.0505,-0.0168,0.0448,0.1285,0.1621,0.2127,0.2691,0.2691,0.2691,-1.9348,-1.9881,-2.0399,-2.0263,-1.9391,-1.8295,-1.7213,-1.5621,-1.3864,-1.2043,-1.1131,-1.0581,-1.0404,-1.0773,-1.1832,-1.4093,0.0,-1.5556,-1.6606,-1.7322,-1.7755,-1.7839,-1.8433,-1.9061,-1.963,-1.969,-1.9545,-1.9213,-1.8669,-1.8108,-1.7557,-1.7199,-1.7002,-1.6918,-1.6918,-1.6637,-1.6027,-1.5599,-1.5119,-1.4617,-1.4186,-1.402,-1.402,-1.402,-1.402,-1.402,-1.402,-1.3915,-1.3821,-1.3821,-1.3716,-1.3621,-1.3515,-1.3218,-1.2716,-1.2147,-1.166,-1.1226,-1.0675,-1.0522,-1.0522,-1.0522,-1.0522,-1.047,-1.0316,-1.0285,-1.0151,-0.9835,-0.9703,-0.9665,-0.9541,-0.949,-0.9504,-0.9548,-0.9555,-0.9563,-0.9607,-0.9249,-0.8718,-0.8137,-0.7978,-0.7711,-0.7015,-0.6853,-0.6534,-0.5727,-0.5622,-0.5513,-0.5352,-0.5297,-0.5297,-0.5297,-0.5297,-0.5073,-0.4408,-0.3904,-0.3292,-0.2627,-0.1962,-0.1515,-0.1291,-0.1178,-0.0729,-0.0,0.0056,0.0672,0.179,0.1902,0.2183,0.2691,0.2691,0.2691,-2.0085,-2.0388,-2.0483,-2.0445,-1.9662,-1.8466,-1.6747,-1.5552,-1.4063,-1.1507,-1.0904,-1.0612,-0.9825,-1.0143,-1.1259,-1.3417,-1.4263,-1.5334,-1.7327,-1.8134,-1.8531,0.0,-1.9156,-1.9555,-1.9675,-1.969,0.0,0.0,-1.8884,-1.8266,-1.7747,-1.7679,-1.7475,-1.7157,-1.7044,-1.6582,-1.572,-1.5511,-1.4994,-1.4104,-1.402,-1.402,-1.402,-1.402,-1.402,-1.402,-1.402,-1.3973,-1.3973,-1.3868,-1.3773,-1.3716,-1.316,-1.2861,-1.2667,-1.176,-1.1368,-1.1226,-1.0675,-1.0522,-1.0522,-1.0522,-1.0522,-1.047,-1.0316,-1.012,-0.9836,-0.9631,-0.9294,-0.9036,-0.8981,-0.8886,-0.8919,-0.919,-0.9248,-0.9321,-0.9563,-0.951,-0.9302,-0.8771,-0.8243,-0.7711,-0.7015,-0.648,-0.6055,-0.5673,-0.5622,-0.5513,-0.5352,-0.5297,-0.5297,-0.5297,-0.5297,-0.4908,-0.3849,-0.368,-0.3128,-0.2018,-0.174,-0.1515,-0.1291,-0.1178,-0.0729,-0.0,0.0504,0.1118,0.179,0.2296,0.2577,0.2691,0.2691,0.2691,-1.9692,-2.0155,-2.0492,-2.0506,-1.9435,-1.7896,-1.6047,-1.4599,-1.3002,-1.0758,-1.0271,-1.0137,-0.9638,-1.0019,-1.0855,-1.2231,-1.3273,-1.4479,-1.6127,-1.7072,-1.784,-1.8513,-1.9015,-1.9421,-1.9818,-1.9848,-1.9726,-1.9442,-1.9258,-1.8884,-1.8187,-1.772,-1.7393,-1.7199,-1.7157,-1.6892,-1.6441,-1.5864,-1.5389,-1.4949,-1.4419,-1.4197,-1.4197,-1.4197,-1.4197,-1.4197,-1.4197,-1.415,-1.4093,-1.3962,-1.3868,-1.3763,-1.3372,-1.2871,-1.2344,-1.1859,-1.1318,-1.0871,-1.0573,-1.0522,-1.049,-1.0248,-1.0311,-1.0438,-1.019,-0.9966,-0.9793,-0.9421,-0.9165,-0.8904,-0.881,-0.8771,-0.8773,-0.9102,-0.9091,-0.8926,-0.8738,-0.8508,-0.8137,-0.7557,-0.7187,-0.6918,-0.6598,-0.6277,-0.6005,-0.5736,-0.5681,-0.5626,-0.5352,-0.5297,-0.5297,-0.5297,-0.5073,-0.4519,-0.3683,-0.3292,-0.2738,-0.1853,-0.1741,-0.1572,-0.1291,-0.0954,-0.0336,0.0448,0.1063,0.1677,0.2296,0.2577,0.2691,0.2691,0.2691,0.2691,-1.9198,-1.983,-2.0468,-2.026,-1.9021,-1.7292,-1.5291,-1.3634,-1.199,-1.0174,-0.9738,-0.9688,-0.9612,-0.9933,-1.0528,-1.1503,-1.253,-1.3699,-1.5096,-1.6184,-1.7184,-1.811,-1.8617,0.0,-1.9732,-1.9793,0.0,-1.9391,-1.9479,-1.9221,-1.8553,-1.7679,-1.7199,-1.7199,-1.7199,-1.7157,-1.7031,-1.6225,-1.5744,-1.5623,-1.4823,-1.4373,-1.4373,-1.4373,-1.4373,-1.4373,-1.4373,-1.4326,-1.4222,-1.4104,-1.3962,-1.3821,-1.342,-1.2725,-1.1889,-1.1724,-1.1107,-1.0367,-1.049,-1.0522,-1.0407,-1.0041,-1.0121,-1.028,-0.9922,-0.9811,-0.9692,-0.9252,-0.902,-0.8914,-0.8701,-0.8557,-0.8621,-0.9026,-0.8889,-0.8593,-0.8178,-0.7664,-0.7085,-0.65,-0.6391,-0.6337,-0.6232,-0.6178,-0.6123,-0.585,-0.5795,-0.5686,-0.5352,-0.5297,-0.5246,-0.5132,-0.4739,-0.4239,-0.3624,-0.307,-0.2462,-0.1853,-0.1797,-0.1629,-0.1291,-0.0729,-0.0,0.0894,0.151,0.2071,0.2691,0.2691,0.2691,0.2691,0.2691,0.2691,-1.9205,-1.985,-2.0312,-1.9522,-1.8592,-1.7206,-1.4605,-1.3275,-1.2057,-1.0187,-0.9738,-0.9688,-0.9612,-0.9578,-1.0226,-1.217,-1.2585,-1.3492,-1.5861,-1.7041,-1.7642,-1.7572,0.0,0.0,-1.9095,-1.9095,-1.9318,-1.9874,-1.9169,-1.8664,-1.85,-1.7679,-1.7199,-1.7199,-1.7199,-1.6989,-1.6565,-1.6064,-1.5579,-1.5153,-1.4651,-1.4373,-1.4373,-1.4373,-1.4373,-1.4373,-1.4373,-1.4373,-1.4373,-1.4233,-1.4093,-1.3868,-1.2764,-1.2003,-1.1449,-1.0839,-1.0356,-1.0017,-1.0351,-1.0522,-1.0407,-1.0041,-0.9946,-0.9906,-0.9549,-0.9445,-0.9374,-0.904,-0.8849,-0.8632,-0.8189,-0.8036,-0.8082,-0.8629,-0.8519,-0.84,-0.8665,-0.8243,-0.7664,-0.7139,-0.7031,-0.682,-0.6282,-0.6178,-0.6123,-0.585,-0.5795,-0.5686,-0.5352,-0.5297,-0.5132,-0.4629,-0.4519,-0.4239,-0.3624,-0.307,-0.2462,-0.1853,-0.1797,-0.1629,-0.1291,-0.0729,-0.0,0.0894,0.151,0.2071,0.2691,0.2691,0.2691,0.2691,0.2691,0.2691,-1.7485,-1.8644,-1.9509,-1.8649,-1.8161,-1.7203,-1.4507,-1.3237,-1.2074,-1.0232,-0.9766,-0.9702,-0.9673,-0.9573,-0.9915,-1.1187,0.0,0.0,-1.4432,-1.5159,-1.5927,-1.7003,-1.7327,-1.7715,0.0,0.0,-1.8768,-1.939,-1.8585,-1.8205,-1.8525,-1.772,-1.7199,-1.7199,-1.7199,-1.7115,-1.6905,-1.6466,-1.5976,-1.5534,-1.5051,-1.4651,-1.4373,-1.4373,-1.4373,-1.4373,-1.4373,-1.4373,-1.4384,-1.4269,-1.3968,-1.3524,-1.3107,-1.2167,-1.104,-1.0924,-1.0341,-0.9628,-0.9771,-0.9827,-0.9763,-0.9422,-0.931,-0.9287,-0.9144,-0.9104,-0.9032,-0.8683,-0.8495,-0.8372,-0.8157,-0.8146,-0.8289,-0.8629,-0.8477,-0.8309,-0.8285,-0.7824,-0.7241,-0.6657,-0.6549,-0.65,-0.6232,-0.6178,-0.6123,-0.585,-0.5795,-0.5686,-0.5352,-0.5297,-0.5077,-0.4574,-0.4184,-0.3738,-0.3125,-0.2517,-0.2074,-0.1797,-0.1797,-0.1629,-0.1291,-0.0392,0.0335,0.0894,0.1846,0.2465,0.2691,0.2691,0.2691,0.2691,0.2691,0.2691,-1.6071,-1.7494,-1.8617,-1.7754,-1.7549,-1.6834,-1.4155,-1.3051,-1.2085,-1.0269,-0.9786,-0.971,-0.971,-0.9589,-0.9726,0.0,0.0,-1.1977,-1.3382,-1.4013,-1.4831,-1.624,0.0,-1.6839,-1.7619,-1.7992,-1.8452,-1.9045,-1.8381,-1.8135,-1.8588,-1.7868,-1.7352,-1.7199,-1.7199,-1.7199,-1.7199,-1.6595,-1.6107,-1.5788,-1.5187,-1.4743,-1.4373,-1.4373,-1.4373,-1.4373,-1.4373,-1.4373,-1.4373,-1.4326,-1.3906,-1.3339,-1.3036,-1.2064,-1.071,-1.0609,-1.0006,-0.9263,-0.9358,-0.9398,-0.9342,-0.9009,-0.8905,-0.8889,-0.8778,-0.8746,-0.8699,-0.8445,-0.8299,-0.8175,-0.8167,-0.8177,-0.826,-0.8321,-0.8078,-0.7783,-0.7628,-0.7131,-0.663,-0.6273,-0.6178,-0.6178,-0.6178,-0.6178,-0.6123,-0.59,-0.585,-0.5686,-0.5407,-0.5187,-0.4853,-0.4294,-0.3683,-0.3181,-0.2736,-0.2128,-0.1797,-0.1797,-0.1797,-0.1572,-0.1066,-0.0112,0.0614,0.1174,0.2183,0.2691,0.2691,0.2691,0.2691,0.2691,0.2691,0.2691,-1.5371,-1.6645,-1.7727,-1.6914,-1.6709,-1.6005,-1.3318,-1.2656,-1.2096,-1.0268,-0.9799,-0.971,-0.971,-0.9589,-0.9717,-1.039,-1.1054,0.0,-1.3304,-1.4429,-1.5117,0.0,-1.6214,-1.6799,-1.6543,-1.7556,-1.8452,-1.9045,-1.8721,0.0,-1.8588,-1.8226,-1.776,-1.724,-1.7199,-1.7199,-1.7199,-1.6269,-1.5788,-1.5788,-1.4858,-1.4373,-1.4373,-1.4373,-1.4373,-1.4373,-1.4373,-1.4373,-1.4373,-1.4373,-1.4054,-1.3407,-1.2315,-1.1341,-1.0414,-0.9669,-0.9191,-0.8961,-0.9287,-0.9398,-0.9342,-0.9009,-0.8905,-0.8842,-0.8484,-0.8422,-0.8422,-0.8414,-0.8299,-0.8167,-0.8028,-0.7953,-0.7834,-0.7579,-0.7115,-0.6719,-0.6823,-0.6319,-0.5977,-0.619,-0.6178,-0.6178,-0.6178,-0.6178,-0.6173,-0.6005,-0.59,-0.5736,-0.5622,-0.4959,-0.4294,-0.3683,-0.307,-0.2681,-0.2681,-0.2128,-0.1797,-0.1797,-0.1797,-0.1403,-0.0449,0.0112,0.0838,0.179,0.2408,0.2691,0.2691,0.2691,0.2691,0.2691,0.2691,0.2691,-1.338,-1.4387,-1.5039,-1.4233,-1.4489,-1.4383,-1.2294,-1.1755,-1.1364,-1.0148,-0.9819,-0.9745,-0.9717,-0.9635,-0.9977,-1.125,-1.1551,0.0,0.0,0.0,0.0,-1.4919,-1.5819,-1.6382,0.0,0.0,-1.7116,-1.7746,-1.7213,-1.7016,-1.7406,-1.683,-1.6729,-1.7173,-1.7199,-1.7199,-1.7199,-1.6892,-1.6441,-1.5788,-1.5478,-1.504,-1.4373,-1.4373,-1.4373,-1.4373,-1.4373,-1.4373,-1.4351,-1.3831,-1.3244,-1.2613,-1.1713,-1.0665,-0.9672,-0.9443,-0.9007,-0.8556,-0.8667,-0.8699,-0.8683,-0.858,-0.854,-0.8524,-0.8454,-0.8414,-0.8414,-0.8414,-0.8381,-0.8291,-0.807,-0.7979,-0.7987,-0.7982,-0.7609,-0.7204,-0.7043,-0.6756,-0.6437,-0.6049,-0.6128,-0.6178,-0.6178,-0.6178,-0.6173,-0.6005,-0.59,-0.5736,-0.5622,-0.4959,-0.4294,-0.368,-0.307,-0.2516,-0.213,-0.1908,-0.1797,-0.1797,-0.1797,-0.1403,-0.0449,0.0112,0.0838,0.179,0.2408,0.2691,0.2691,0.2691,0.2691,0.2691,0.2691,0.2968,-1.2009,-1.2884,-1.3439,-1.2922,-1.3202,-1.3235,-1.1768,-1.1393,-1.1077,-1.0136,-0.9869,-0.9786,-0.9745,-0.9666,-0.9918,-1.0876,-1.1406,-1.1978,0.0,0.0,0.0,-1.5305,-1.5789,0.0,0.0,-1.6277,-1.6471,-1.7147,-1.6773,-1.6635,-1.6909,-1.6466,-1.6315,-1.6572,-1.6558,-1.6663,-1.6898,-1.6542,-1.6156,-1.5788,-1.5433,-1.496,-1.4373,-1.4373,-1.4286,-1.4122,-1.4122,-1.4013,0.0,-1.328,-1.2711,-1.2048,-1.1351,-1.0424,-0.9466,-0.9281,-0.889,-0.8529,-0.8529,-0.8455,-0.8414,-0.8414,-0.8414,-0.8414,-0.8414,-0.8414,-0.8414,-0.8414,-0.8414,-0.8332,-0.8062,-0.8021,-0.7908,-0.7558,-0.7251,-0.6931,-0.6514,-0.6379,-0.6268,-0.5944,-0.6081,-0.6178,-0.6178,-0.6178,-0.6173,-0.6005,-0.5677,-0.5403,-0.5285,-0.4401,-0.3683,-0.3292,-0.2738,-0.2184,-0.1853,-0.1797,-0.1797,-0.1797,-0.1514,-0.1008,-0.0112,0.0503,0.1285,0.2127,0.2521,0.2691,0.2691,0.2691,0.2691,0.2691,0.2856,0.3244,0.0,-1.1998,-1.2617,-1.2616,-1.2614,-1.2403,-1.1594,-1.1363,0.0,-1.0183,-0.9908,-0.9813,-0.9805,-0.9695,-0.9631,-0.9678,-1.0825,-1.1689,0.0,-1.3398,0.0,0.0,-1.6131,0.0,-1.656,-1.6371,-1.6455,-1.7085,-1.7102,-1.7045,-1.6915,-1.6809,-1.6362,-1.5541,-1.5443,-1.5683,-1.6323,-1.5463,-1.5235,-1.568,-1.4846,-1.44,-1.4275,-1.4275,-1.4045,-1.3641,-1.3641,-1.3368,-1.2889,-1.2857,-1.2421,-1.1692,-1.1155,-1.0435,-0.9707,-0.9208,-0.8895,-0.8716,-0.8716,-0.8561,-0.8414,-0.8414,-0.8414,-0.8414,-0.8414,-0.8414,-0.8414,-0.8414,-0.8414,-0.8332,-0.8062,-0.7979,-0.7682,-0.6586,-0.6289,-0.6102,-0.5444,-0.5491,-0.5665,-0.585,-0.6072,-0.6178,-0.6178,-0.6178,-0.6173,-0.6059,-0.5395,-0.4897,-0.4783,-0.3622,-0.2792,-0.2792,-0.2186,-0.1797,-0.1797,-0.1797,-0.1797,-0.1741,-0.1064,-0.0335,0.0391,0.1174,0.1959,0.2691,0.2691,0.2691,0.2691,0.2691,0.2691,0.2747,0.319,0.3633,-1.0443,0.0,-1.0828,-1.0879,-1.0892,-1.0824,0.0,-1.0454,-1.0336,-1.0068,-0.9965,-0.9923,-0.9813,-0.9773,-0.9939,-1.0496,-1.135,-1.2023,-1.2297,-1.3922,0.0,-1.6977,-1.6709,-1.6485,-1.6607,-1.6371,-1.6256,-1.6409,-1.6211,-1.6024,-1.592,-1.5427,-1.4994,-1.468,-1.4405,-1.4747,-1.5696,-1.5944,-1.5555,-1.4586,-1.4808,-1.4359,-1.327,-1.327,-1.3172,-1.3075,-1.3075,-1.3009,-1.2868,-1.2294,-1.1797,-1.1338,-1.0408,-0.979,-0.9399,-0.9088,-0.8975,-0.8895,-0.8765,-0.8683,-0.8602,-0.8455,-0.8414,-0.8414,-0.8414,-0.8414,-0.8414,-0.8414,-0.8414,-0.8332,-0.8062,-0.778,-0.7405,-0.6937,-0.6337,-0.5798,-0.5636,-0.5619,-0.5623,-0.567,-0.5977,-0.6178,-0.6178,-0.6178,-0.6178,-0.6173,-0.5845,-0.5567,-0.5567,-0.4291,-0.3403,-0.3403,-0.2464,-0.1797,-0.1797,-0.1797,-0.1629,-0.129,-0.0896,-0.0223,0.0894,0.1342,0.1959,0.2691,0.2691,0.2691,0.2691,0.2691,0.2856,0.3246,0.3577,0.4236,-1.0207,-1.0498,-1.0818,-1.0838,-1.0852,-1.0847,-1.0802,-1.0434,-1.0086,-1.0061,-1.002,-0.9976,-0.9912,-0.9844,-1.0056,-1.0827,-1.1544,-1.2541,0.0,0.0,-1.6089,-1.7223,-1.7215,-1.6919,0.0,-1.6398,-1.6344,-1.6222,-1.6039,-1.5782,-1.5492,-1.5059,-1.4627,-1.4214,-1.4026,-1.4275,-1.5068,-1.5208,-1.4902,-1.4213,-1.4322,-1.3857,-1.2889,-1.2889,-1.277,-1.2563,-1.2563,-1.2443,-1.2225,-1.1808,-1.1457,-1.1102,-1.043,-0.9952,-0.9646,-0.9426,-0.9257,-0.9128,-0.8886,-0.8724,-0.8529,-0.8414,-0.8414,-0.8414,-0.8414,-0.8414,-0.8414,-0.8414,-0.8414,-0.8332,-0.7953,-0.7621,-0.7245,-0.6677,-0.6124,-0.5658,-0.5404,-0.5413,-0.549,-0.559,-0.5864,-0.6114,-0.6159,-0.6178,-0.6119,-0.5837,-0.534,-0.4901,-0.4574,-0.3516,-0.2796,-0.2796,-0.2188,-0.1797,-0.1797,-0.1628,-0.1347,-0.1122,-0.0503,0.0168,0.1062,0.1734,0.2296,0.2691,0.2691,0.2691,0.2691,0.2914,0.319,0.3577,0.4128,0.4893,-1.0207,-1.0935,-1.1644,-1.1384,-1.14,-1.1475,-1.1324,0.0,0.0,0.0,0.0,-1.0003,-0.9993,-1.0007,0.0,-1.0919,0.0,0.0,-1.5829,-1.6147,-1.6388,-1.7138,-1.7445,0.0,-1.6409,-1.6436,-1.6405,-1.6068,-1.6041,-1.5786,-1.5154,-1.5022,-1.4673,-1.4046,-1.3973,-1.4132,-1.4489,-1.4118,-1.3951,-1.3934,-1.3593,-1.3159,-1.2683,-1.2683,-1.2454,-1.2101,-1.2101,-1.1883,-1.1485,-1.1485,-1.1314,-1.0981,-1.0687,-1.039,-1.0079,-0.9793,-0.9545,-0.9328,-0.9096,-0.8781,-0.8455,-0.8414,-0.8414,-0.8414,-0.8414,-0.8414,-0.8414,-0.8414,-0.8414,-0.8291,-0.7878,-0.7545,-0.707,-0.6252,-0.5825,-0.5486,-0.5072,-0.5146,-0.5339,-0.5524,-0.5722,-0.593,-0.6143,-0.6126,-0.5914,-0.5441,-0.4615,-0.3843,-0.335,-0.2464,-0.1964,-0.1964,-0.1853,-0.1797,-0.1797,-0.1347,-0.1066,-0.0954,-0.0,0.0782,0.1341,0.224,0.2691,0.2691,0.2691,0.2747,0.2802,0.319,0.358,0.4018,0.4791,0.55,-1.0207,-1.1367,-1.2267,-1.084,-1.0994,-1.1302,-1.0563,-1.0295,0.0,0.0,0.0,0.0,0.0,-1.0542,-1.1024,0.0,0.0,-1.3313,0.0,0.0,-1.6001,-1.6857,0.0,-1.7052,-1.6892,-1.649,-1.6003,-1.5406,-1.5334,-1.5062,-1.4404,-1.4357,-1.4256,-1.4097,-1.4141,-1.4132,-1.4086,-1.4082,-1.3667,-1.2854,-1.2971,-1.254,-1.1703,-1.1703,-1.1659,-1.1632,-1.1632,-1.155,-1.1485,-1.1485,-1.1314,-1.0981,-1.0687,-1.039,-1.0079,-0.9793,-0.9683,-0.9594,-0.9136,-0.8854,-0.8643,-0.8455,-0.8414,-0.8414,-0.8414,-0.8414,-0.8414,-0.8414,-0.8414,-0.8373,-0.8175,-0.7447,-0.6725,-0.6477,-0.5755,-0.5072,-0.5029,-0.5146,-0.5297,-0.533,-0.5509,-0.5717,-0.5925,-0.564,-0.5483,-0.5542,-0.4787,-0.4122,-0.4067,-0.3181,-0.2571,-0.2571,-0.213,-0.1797,-0.1797,-0.1347,-0.0842,-0.0224,0.0559,0.1454,0.241,0.2635,0.2691,0.2691,0.2691,0.2914,0.3302,0.3357,0.391,0.4904,0.5332,0.5932,-1.0193,-1.1159,-1.1961,-1.1188,-1.1953,-1.2687,-1.1799,-1.1585,0.0,0.0,0.0,0.0,0.0,0.0,-1.1389,-1.2148,0.0,-1.4044,-1.5092,-1.5354,-1.561,0.0,0.0,-1.6342,-1.6191,-1.5781,-1.5418,-1.5206,-1.4868,-1.4454,-1.397,-1.3786,-1.3596,-1.3333,-1.3577,-1.3655,-1.352,-1.3684,-1.3423,-1.272,-1.2746,-1.2295,-1.1485,-1.1485,-1.1485,-1.1485,-1.1485,-1.1485,-1.1485,-1.1485,-1.14,-1.1239,-1.0774,-1.0505,-1.0322,-0.9872,-0.9554,-0.9306,-0.9065,-0.8814,-0.8529,-0.8414,-0.8414,-0.8414,-0.8414,-0.8414,-0.8414,-0.8414,-0.8414,-0.8291,-0.7878,-0.7321,-0.6725,-0.6184,-0.5588,-0.5116,-0.5029,-0.5061,-0.5155,-0.5268,-0.5222,-0.5211,-0.5458,-0.5212,-0.4939,-0.4816,-0.4184,-0.3624,-0.3408,-0.2685,-0.224,-0.224,-0.1964,-0.1685,-0.1459,-0.101,-0.0336,0.056,0.1286,0.2015,0.2691,0.2691,0.2691,0.2691,0.2691,0.2914,0.3413,0.3799,0.446,0.5391,0.5932,0.648,-1.019,-1.0867,-1.1531,-1.1342,-1.2402,-1.3391,-1.2914,-1.2603,-1.2303,0.0,0.0,0.0,0.0,-1.0939,0.0,-1.3041,-1.3881,-1.4543,-1.4998,-1.5113,-1.5217,-1.5376,-1.5596,-1.5664,-1.5455,-1.5092,-1.4856,-1.4798,-1.4324,-1.382,-1.3365,-1.3237,-1.2989,-1.262,-1.2991,-1.3141,-1.2964,-1.3297,-1.3217,-1.2803,-1.2615,-1.215,-1.1485,-1.1485,-1.1485,-1.1485,-1.1485,-1.1485,-1.1485,-1.1437,-1.14,-1.1314,-1.0736,-1.0428,-1.0322,-0.9783,-0.9386,-0.9056,-0.8975,-0.8732,-0.8455,-0.8414,-0.8414,-0.8414,-0.8414,-0.8414,-0.8414,-0.8414,-0.8332,-0.8167,-0.7663,-0.7154,-0.6641,-0.5976,-0.5501,-0.5203,-0.5029,-0.499,-0.5032,-0.5188,-0.5034,-0.4861,-0.5013,-0.4757,-0.4448,-0.4082,-0.3506,-0.298,-0.2713,-0.2178,-0.1797,-0.1797,-0.1685,-0.1403,-0.0842,-0.0336,0.0336,0.1229,0.1846,0.2352,0.2691,0.2691,0.2691,0.2691,0.2802,0.3079,0.3524,0.4298,0.5007,0.5764,0.6372,0.6864,-1.018,-1.0846,-1.1332,-1.0584,-1.1094,-1.1953,-1.2631,-1.2166,0.0,-1.2468,0.0,0.0,0.0,-1.185,-1.2546,-1.3272,-1.3904,-1.432,-1.4366,0.0,-1.483,-1.5016,-1.5158,-1.5234,-1.5221,-1.4973,-1.4463,-1.3662,-1.3583,-1.3198,-1.2359,-1.2569,-1.2623,-1.2341,-1.2713,-1.2816,-1.2562,-1.3055,-1.3142,-1.2803,-1.2389,-1.1968,-1.1485,-1.1485,-1.1485,-1.1485,-1.1485,-1.1485,-1.1485,-1.1142,-1.1019,-1.0981,-1.038,-0.9971,-0.9713,-0.9448,-0.9319,-0.9239,-0.8837,-0.8716,-0.8643,-0.8455,-0.8414,-0.8414,-0.8414,-0.8414,-0.8414,-0.8414,-0.8167,-0.7919,-0.7878,-0.707,-0.6221,-0.6184,-0.5588,-0.5029,-0.499,-0.499,-0.4994,-0.5009,-0.5009,-0.4937,-0.4853,-0.4424,-0.4105,-0.3963,-0.3125,-0.2562,-0.2509,-0.2091,-0.1797,-0.1797,-0.1403,-0.0785,0.0056,0.0671,0.123,0.1734,0.2015,0.2352,0.2691,0.2691,0.2691,0.2691,0.3135,0.3524,0.3968,0.4684,0.5449,0.6154,0.6539,0.6864,-1.0185,-1.0442,-1.0752,-1.0982,-1.0911,0.0,0.0,-1.2957,-1.3194,-1.3513,-1.3532,0.0,0.0,0.0,-1.3188,-1.3318,-1.3912,-1.432,-1.419,-1.4261,-1.4274,-1.415,-1.4161,-1.4288,-1.4503,-1.4041,-1.3686,-1.35,-1.3115,-1.2686,-1.221,-1.2154,-1.2014,-1.1748,-1.2127,-1.2206,-1.1953,-1.2493,-1.2498,-1.1878,-1.236,-1.2197,-1.1485,-1.1485,-1.1485,-1.1485,-1.1485,-1.1485,-1.1485,-1.1142,-1.1019,-1.0943,-1.0341,-0.9941,-0.9683,-0.9408,-0.9199,-0.9088,-0.8805,-0.8602,-0.8488,-0.8414,-0.8414,-0.8373,-0.8167,-0.8085,-0.8044,-0.7836,-0.7545,-0.7335,-0.7545,-0.6985,-0.6313,-0.597,-0.5545,-0.5159,-0.5029,-0.499,-0.499,-0.499,-0.4635,-0.43,-0.4231,-0.378,-0.3417,-0.3447,-0.2909,-0.2521,-0.2632,-0.2115,-0.1685,-0.1403,-0.0729,-0.0056,0.0449,0.1119,0.1679,0.2015,0.2352,0.2577,0.2691,0.2691,0.2858,0.3135,0.3302,0.3747,0.4411,0.5117,0.5664,0.6209,0.6701,0.7025,-1.0202,-1.0199,-1.0347,-1.0976,0.0,0.0,-1.2072,-1.3056,-1.3768,-1.405,-1.3841,-1.3474,-1.2973,0.0,0.0,0.0,-1.3587,-1.3906,-1.3496,-1.3398,-1.3383,-1.3389,-1.329,-1.341,-1.3895,-1.3274,-1.2864,-1.2939,-1.2291,-1.1892,-1.1856,-1.1678,-1.1523,-1.1408,-1.167,-1.1654,-1.1315,-1.1845,-1.1762,-1.1097,-1.1854,-1.1815,-1.1064,-1.1064,-1.1064,-1.1075,-1.1228,-1.1293,-1.1267,-1.0977,-1.0764,-1.0534,-1.0127,-0.9862,-0.9674,-0.9337,-0.9128,-0.8975,-0.8692,-0.8529,-0.8414,-0.8414,-0.8414,-0.8373,-0.8126,-0.8002,-0.7836,-0.7621,-0.7245,-0.6914,-0.7076,-0.6696,-0.6142,-0.5809,-0.5463,-0.5159,-0.5029,-0.4898,-0.481,-0.481,-0.4324,-0.3884,-0.3751,-0.3388,-0.3111,-0.3096,-0.2709,-0.2447,-0.2539,-0.1974,-0.1331,-0.0728,-0.0168,0.0393,0.0842,0.1456,0.1902,0.2183,0.2521,0.2691,0.2691,0.2858,0.3081,0.3413,0.3691,0.4079,0.4691,0.534,0.5828,0.6209,0.6756,0.7031,-1.0205,-1.0191,-1.0214,-1.0283,0.0,0.0,-1.1301,-1.2155,-1.3024,-1.3917,-1.3403,-1.3015,-1.3744,-1.3067,0.0,-1.2301,-1.2854,-1.2996,-1.2128,-1.1887,-1.2077,-1.2799,-1.2596,-1.2702,-1.3486,-1.2796,-1.2121,-1.1726,-1.1011,-1.075,-1.1066,-1.1093,-1.1187,-1.1394,-1.14,-1.1173,-1.0705,-1.1096,-1.1052,-1.0594,-1.0858,-1.0677,-1.0102,-1.0102,-1.0102,-1.0124,-1.0572,-1.0791,-1.0788,-1.0664,-1.0235,-0.9713,-0.9674,-0.9674,-0.9634,-0.9177,-0.9016,-0.8935,-0.8537,-0.8414,-0.8414,-0.8414,-0.8414,-0.8414,-0.8373,-0.8167,-0.787,-0.7878,-0.7419,-0.6829,-0.6562,-0.6099,-0.568,-0.568,-0.5333,-0.4985,-0.4985,-0.4675,-0.4408,-0.4408,-0.4148,-0.3792,-0.3442,-0.3398,-0.3265,-0.2957,-0.2502,-0.2217,-0.2305,-0.1509,-0.0702,0.0112,0.0224,0.0505,0.1234,0.1624,0.1902,0.2183,0.2521,0.2691,0.2691,0.3137,0.3413,0.3413,0.4245,0.4691,0.4691,0.5462,0.595,0.6209,0.6539,0.6864,-1.0205,-1.0197,-1.0204,-1.0226,0.0,0.0,0.0,-1.1254,0.0,0.0,-1.2907,-1.2614,-1.2214,-1.2322,0.0,-1.1577,-1.2093,-1.2465,-1.2115,-1.201,-1.1988,-1.2113,-1.1912,-1.1825,-1.1971,-1.1656,-1.1302,-1.0946,-1.072,-1.0543,-1.0406,-1.0832,-1.0991,-1.0698,-1.1154,-1.1173,-1.0705,-1.0807,-1.0585,-0.9973,-1.0052,-1.0126,-1.0243,-1.0135,-1.0102,-1.0102,-1.0256,-1.0322,-1.0288,-1.0144,-0.9675,-0.9092,-0.9245,-0.9281,-0.9234,-0.8758,-0.8737,-0.8935,-0.8537,-0.8414,-0.8414,-0.8414,-0.825,-0.8002,-0.7746,-0.7461,-0.7167,-0.6914,-0.6708,-0.6496,-0.6233,-0.5933,-0.5636,-0.5463,-0.498,-0.4587,-0.4587,-0.4276,-0.4056,-0.4056,-0.3792,-0.353,-0.3398,-0.322,-0.3033,-0.2982,-0.2548,-0.2142,-0.1924,-0.1111,-0.0485,-0.0223,0.0336,0.0953,0.1624,0.1734,0.2015,0.2521,0.2635,0.2691,0.2691,0.3137,0.3524,0.3802,0.4411,0.4857,0.5132,0.5572,0.595,0.6209,0.6539,0.6864,-1.0151,-1.0233,-1.0234,-1.0234,-1.0251,-1.0258,-1.0212,0.0,0.0,0.0,-1.2465,-1.2158,-1.1939,-1.1978,0.0,-1.1276,-1.1556,-1.17,-1.1259,-1.112,-1.1159,-1.1342,-1.1168,-1.1117,-1.136,-1.0933,-1.0561,-1.0305,-0.9971,-0.9775,-0.9779,-1.0378,-1.0614,-1.0424,-1.1045,-1.1173,-1.0705,-1.0534,-1.0223,-0.9777,-0.9555,-0.9536,-0.9705,-0.9552,-0.9491,-0.9502,-0.9698,-0.9788,-0.9785,-0.9685,-0.9263,-0.869,-0.8827,-0.8857,-0.8821,-0.8366,-0.8374,-0.8519,-0.827,-0.8079,-0.7981,-0.8162,-0.7961,-0.7663,-0.7461,-0.7167,-0.6872,-0.6666,-0.641,-0.6196,-0.5938,-0.5723,-0.5507,-0.5328,-0.4849,-0.4408,-0.4408,-0.4012,-0.3704,-0.3704,-0.3442,-0.322,-0.322,-0.3043,-0.2892,-0.2825,-0.2243,-0.1683,-0.1192,-0.0588,-0.011,0.0112,0.0561,0.1065,0.1568,0.1736,0.2015,0.2465,0.2635,0.2802,0.2968,0.3413,0.3747,0.4021,0.4632,0.5077,0.5297,0.5521,0.5786,0.6209,0.6426,0.6701,-1.0055,-1.0305,-1.0284,-1.0305,-1.0258,-1.0191,-1.0191,-1.082,-1.1604,-1.2401,0.0,-1.1602,-1.2343,-1.1766,-1.1182,-1.1198,-1.1136,-1.0797,-0.9949,-0.9764,-0.9923,-1.0549,-1.0382,-1.0504,-1.1217,-1.0461,-0.9862,-0.9716,-0.896,-0.8708,-0.9182,-0.9732,-1.0116,-1.0343,-1.1002,-1.1139,-1.0729,-1.0373,-1.0072,-0.9905,-0.9366,-0.9015,-0.8828,-0.8673,-0.86,-0.8622,-0.9028,-0.9224,-0.921,-0.9194,-0.8882,-0.8422,-0.8434,-0.8443,-0.8374,-0.7991,-0.7868,-0.7874,-0.7787,-0.7548,-0.737,-0.7684,-0.7597,-0.7328,-0.7335,-0.7105,-0.6872,-0.6872,-0.6447,-0.5981,-0.5717,-0.5458,-0.5285,-0.5198,-0.4762,-0.4364,-0.4324,-0.3792,-0.3353,-0.3353,-0.309,-0.2912,-0.2912,-0.2912,-0.2776,-0.2462,-0.1818,-0.1105,-0.0403,-0.0,0.0391,0.0785,0.0898,0.101,0.129,0.1624,0.1958,0.2183,0.2577,0.297,0.3357,0.3802,0.4024,0.4079,0.4857,0.5297,0.5297,0.5297,0.5622,0.6209,0.6209,0.6534,-1.0057,-1.0252,-1.0236,-1.0283,-1.0258,-1.0191,-1.0191,-1.0391,-1.0607,-1.0732,-1.061,-1.0524,-1.0705,-1.0524,-1.0364,-1.0352,-1.0349,-1.0269,-1.0063,-0.9894,-0.9838,-0.998,-0.9752,-0.9614,-0.97,-0.9452,-0.9191,-0.8964,-0.8767,-0.8612,-0.8528,-0.9121,-0.9604,-0.9932,-1.0584,-1.0951,-1.1015,-1.0777,-1.0398,-0.9893,-0.9514,-0.922,-0.9026,-0.8739,-0.86,-0.86,-0.8539,-0.8519,-0.8527,-0.8454,-0.8175,-0.7805,-0.7923,-0.7888,-0.7756,-0.7507,-0.7526,-0.7646,-0.7468,-0.7339,-0.7282,-0.7145,-0.7035,-0.688,-0.6734,-0.662,-0.6496,-0.6496,-0.641,-0.6153,-0.5529,-0.527,-0.5014,-0.4487,-0.4184,-0.3924,-0.3663,-0.3309,-0.3001,-0.3001,-0.2957,-0.2912,-0.2912,-0.2912,-0.2642,-0.1927,-0.1633,-0.1265,-0.0502,-0.0,0.0272,0.0335,0.0673,0.101,0.129,0.1958,0.2291,0.2184,0.3132,0.3635,0.3413,0.3802,0.419,0.4522,0.5022,0.5297,0.5297,0.5297,0.5622,0.6209,0.6209,0.6534,-0.9921,-1.0226,-1.0212,-1.0239,-1.0258,-1.0258,-1.0258,-1.0263,-1.0284,-1.0259,-1.0222,-1.0198,-1.0194,-1.018,-1.0145,-1.0112,-1.0098,-1.0085,-1.0054,-0.9938,-0.9832,-0.9757,-0.9563,-0.9412,-0.9294,-0.9184,-0.9039,-0.8902,-0.8778,-0.8607,-0.8409,-0.8972,-0.9452,-0.9797,-1.0338,-1.0778,-1.1108,-1.0777,-1.0361,-0.9905,-0.9619,-0.9301,-0.8949,-0.8784,-0.8673,-0.86,-0.8404,-0.8223,-0.8091,-0.7959,-0.77,-0.7421,-0.7494,-0.7431,-0.7266,-0.6983,-0.6876,-0.6857,-0.6723,-0.6567,-0.6456,-0.6499,-0.6402,-0.6246,-0.6238,-0.6222,-0.6198,-0.6107,-0.5927,-0.5655,-0.511,-0.4767,-0.4423,-0.3982,-0.3744,-0.3619,-0.3442,-0.3132,-0.2912,-0.2912,-0.2912,-0.2912,-0.2912,-0.2781,-0.2422,-0.1748,-0.1205,-0.0626,-0.015,0.0312,0.0594,0.0559,0.0729,0.1065,0.1513,0.2124,0.2567,0.2736,0.3519,0.4024,0.4024,0.4245,0.4467,0.4688,0.5077,0.5297,0.5297,0.5297,0.5572,0.6,0.6159,0.6431,-0.94,-0.9886,-1.0022,-1.0175,-1.0262,-1.0307,-1.0307,-1.0308,-1.0309,-1.0308,-1.024,-1.0203,-1.019,-1.02,-1.0188,-1.0125,-1.0124,-1.0094,-1.0039,-0.9967,-0.9873,-0.9761,-0.9621,-0.9504,-0.9421,-0.9236,-0.9102,-0.9109,-0.8869,-0.8667,-0.851,-0.893,-0.9328,-0.9653,-1.0004,-1.0389,-1.083,-1.0464,-1.013,-0.978,-0.9609,-0.9274,-0.8789,-0.8761,-0.869,-0.86,-0.8404,-0.8138,-0.7898,-0.7695,-0.7432,-0.7196,-0.7166,-0.7047,-0.6859,-0.6474,-0.6191,-0.5982,-0.5948,-0.5746,-0.5548,-0.5841,-0.5778,-0.5603,-0.5707,-0.5809,-0.5767,-0.5558,-0.5271,-0.4893,-0.4519,-0.4152,-0.3753,-0.3502,-0.338,-0.3278,-0.3303,-0.307,-0.2887,-0.2907,-0.2912,-0.2912,-0.2915,-0.2467,-0.1973,-0.1569,-0.0649,0.0096,0.0351,0.0677,0.0918,0.1061,0.1065,0.1288,0.1902,0.2456,0.2956,0.34,0.3886,0.4316,0.4648,0.4674,0.4714,0.4714,0.5101,0.5297,0.5297,0.5297,0.5466,0.5795,0.605,0.6372,-0.7968,-0.8594,-0.9335,-1.0091,-1.029,-1.0293,-1.0293,-1.0292,-1.029,-1.0293,-1.0246,-1.0209,-1.0205,-1.0209,-1.019,-1.0188,-1.0194,-1.018,-1.0173,-1.0078,-0.9977,-0.9965,-0.9794,-0.9632,-0.9494,-0.9295,-0.9157,-0.9109,-0.8964,-0.8761,-0.851,-0.8569,-0.8793,-0.9172,-0.9248,-0.9411,-0.971,-0.9834,-0.9674,-0.9285,-0.9323,-0.9166,-0.8789,-0.8623,-0.8578,-0.86,-0.8404,-0.8138,-0.7898,-0.7695,-0.7432,-0.7196,-0.7077,-0.6807,-0.6443,-0.6221,-0.5913,-0.5592,-0.5571,-0.5522,-0.5465,-0.53,-0.5357,-0.5437,-0.4927,-0.4945,-0.505,-0.4732,-0.4606,-0.4476,-0.3961,-0.3672,-0.3427,-0.2942,-0.2795,-0.2822,-0.2932,-0.2827,-0.274,-0.289,-0.2912,-0.2915,-0.2879,-0.1792,-0.0895,-0.085,-0.0417,0.0096,0.0652,0.0833,0.1079,0.1618,0.1679,0.1902,0.2514,0.3345,0.3677,0.34,0.4388,0.4797,0.4478,0.4652,0.4777,0.4777,0.514,0.5297,0.5297,0.5297,0.5466,0.5795,0.605,0.6372,-0.8163,-0.8711,-0.9219,-1.0077,-1.0293,-1.029,-1.029,-1.0308,-1.0306,-1.031,-1.0273,-1.0247,-1.0214,-1.0203,-1.0193,-1.0198,-1.021,-1.0202,-1.0191,-1.0161,-1.0082,-1.001,-0.9849,-0.9722,-0.962,-0.943,-0.9273,-0.9157,-0.9071,-0.8858,-0.8522,-0.8497,-0.8677,-0.9081,-0.8876,-0.8989,-0.9503,-0.9696,-0.9777,-0.9701,-0.951,-0.9259,-0.896,-0.8878,-0.8701,-0.8421,-0.8052,-0.785,-0.7724,-0.7462,-0.7314,-0.7196,-0.7136,-0.6837,-0.6382,-0.6137,-0.5734,-0.5264,-0.5151,-0.5119,-0.5087,-0.496,-0.5009,-0.504,-0.4693,-0.4668,-0.4671,-0.4238,-0.4042,-0.3906,-0.3414,-0.3138,-0.2957,-0.286,-0.2685,-0.2612,-0.2867,-0.285,-0.2849,-0.2907,-0.2467,-0.2241,-0.2789,-0.1794,-0.0716,-0.0,0.0228,0.0472,0.0751,0.1124,0.1476,0.1781,0.2125,0.2569,0.3125,0.3561,0.3845,0.4066,0.4562,0.4778,0.4618,0.4745,0.4804,0.4804,0.4962,0.5201,0.5624,0.5624,0.5949,0.6549,0.6652,0.6918,-0.8475,-0.8848,-0.8925,-1.0039,-1.031,-1.0305,-1.0305,-1.0305,-1.0305,-1.0305,-1.031,-1.0273,-1.0209,-1.0201,-1.023,-1.0234,-1.0209,-1.02,-1.0207,-1.0197,-1.0154,-1.0035,-0.9901,-0.98,-0.9725,-0.9543,-0.9376,-0.9255,-0.9154,-0.8964,-0.862,-0.8534,-0.861,-0.8834,-0.8525,-0.8547,-0.8957,-0.9261,-0.9593,-0.9944,-0.9579,-0.9298,-0.9081,-0.8944,-0.8656,-0.8195,-0.7908,-0.7734,-0.7666,-0.7403,-0.7225,-0.7107,-0.7047,-0.6686,-0.6137,-0.5897,-0.5484,-0.5017,-0.4838,-0.4812,-0.4774,-0.4678,-0.4646,-0.461,-0.4317,-0.4226,-0.4157,-0.3639,-0.3436,-0.3294,-0.2948,-0.2716,-0.2606,-0.2695,-0.2489,-0.2421,-0.2722,-0.2631,-0.2612,-0.2829,-0.229,-0.1884,-0.2111,-0.1345,-0.0403,0.0539,0.0809,0.0922,0.0986,0.1488,0.1939,0.2193,0.2593,0.3154,0.379,0.3839,0.4026,0.4557,0.4569,0.4597,0.4739,0.4694,0.4718,0.4857,0.4857,0.5167,0.5775,0.5986,0.6405,0.7046,0.716,0.7456,-0.8301,-0.8396,-0.8178,-0.9876,-1.0305,-1.0305,-1.0305,-1.0305,-1.0305,-1.0305,-1.0305,-1.0286,-1.0209,-1.0254,-1.0284,-1.0284,-1.0236,-1.0208,-1.0201,-1.0207,-1.018,-1.0097,-0.9967,-0.9875,-0.9808,-0.9607,-0.9465,-0.9394,-0.9222,-0.9028,-0.888,-0.8632,-0.8387,-0.8169,-0.8016,-0.7797,-0.7521,-0.8083,-0.8782,-0.9511,-0.9244,-0.912,-0.9092,-0.8572,-0.8195,-0.7927,-0.8166,-0.8109,-0.7869,-0.7676,-0.7285,-0.6807,-0.6604,-0.6145,-0.5522,-0.5372,-0.5125,-0.4806,-0.4812,-0.4812,-0.4742,-0.4339,-0.4242,-0.4113,-0.348,-0.329,-0.3191,-0.2867,-0.2763,-0.2693,-0.2496,-0.2466,-0.2435,-0.2206,-0.2113,-0.2181,-0.2457,-0.196,-0.175,-0.2724,-0.2837,-0.2248,-0.0449,0.009,0.0405,0.0674,0.1077,0.1366,0.1473,0.1861,0.2454,0.3224,0.3356,0.3669,0.4395,0.4431,0.4501,0.461,0.4458,0.4467,0.4513,0.4394,0.4517,0.4994,0.4994,0.5147,0.5501,0.6208,0.6627,0.6843,0.7395,0.7771,-0.707,-0.7928,-0.8685,-0.93,-0.9892,-1.0287,-1.0242,-1.0265,-1.0308,-1.0307,-1.0305,-1.0281,-1.0218,-1.0229,-1.0234,-1.0234,-1.0212,-1.0227,-1.026,-1.0269,-1.0246,-1.017,-1.0079,-0.9997,-0.9882,-0.9713,-0.9578,-0.9474,-0.9274,-0.9085,-0.8902,-0.8726,-0.851,-0.8243,-0.7968,-0.7764,-0.7658,-0.7752,-0.8068,-0.8596,-0.8689,-0.8613,-0.8432,-0.8159,-0.8078,-0.8117,-0.7673,-0.7451,-0.7462,-0.7373,-0.7225,-0.7047,-0.6777,-0.6329,-0.5804,-0.5529,-0.5151,-0.478,-0.4511,-0.4409,-0.4344,-0.4011,-0.3876,-0.3784,-0.3335,-0.3039,-0.2801,-0.2414,-0.2281,-0.2211,-0.2042,-0.2217,-0.2377,-0.2151,-0.1778,-0.17,-0.2564,-0.256,-0.2117,-0.1208,-0.1033,-0.0808,-0.0135,0.0225,0.0674,0.1481,0.1479,0.1546,0.1893,0.2422,0.2934,0.3376,0.3643,0.3901,0.4257,0.4148,0.4101,0.4255,0.4137,0.4149,0.4373,0.4308,0.4535,0.5005,0.5308,0.572,0.6313,0.6767,0.7326,0.7955,0.8176,0.8461,-0.6405,-0.746,0.0,0.0,-0.944,-0.9931,-1.0184,-1.0246,-1.0268,-1.0306,-1.0304,-1.0276,-1.0219,-1.0203,-1.0196,-1.0208,-1.0194,-1.0215,-1.0252,-1.0265,-1.0248,-1.0205,-1.0138,-1.0052,-0.9914,-0.9825,-0.9705,-0.954,-0.9394,-0.9208,-0.9022,-0.8807,-0.8534,-0.8176,-0.784,-0.7707,-0.7804,-0.7586,-0.7648,-0.8,-0.8087,-0.8035,-0.7864,-0.7692,-0.7653,-0.77,-0.721,-0.712,-0.7314,-0.7136,-0.6987,-0.6867,-0.6565,-0.6137,-0.5648,-0.5428,-0.5119,-0.4742,-0.4344,-0.421,-0.4113,-0.3686,-0.3528,-0.3458,-0.2973,-0.2676,-0.2441,-0.2147,-0.2047,-0.1947,-0.1709,-0.195,-0.2143,-0.1552,-0.1067,-0.0772,-0.0937,-0.145,-0.1501,-0.0045,0.0763,0.1078,0.0674,0.0897,0.139,0.2152,0.2059,0.2031,0.241,0.293,0.3343,0.3509,0.3754,0.4005,0.4107,0.3938,0.3889,0.4084,0.3972,0.41,0.4535,0.453,0.4836,0.5437,0.5739,0.629,0.7051,0.7301,0.7876,0.867,0.8761,0.9047,0.0,0.0,0.0,0.0,0.0,0.0,-1.0091,0.0,-1.0218,-1.028,-1.0299,-1.0271,-1.0205,-1.0191,-1.0197,-1.02,-1.0196,-1.0191,-1.0194,-1.0191,-1.0191,-1.0202,-1.0139,-1.0043,-0.9929,-0.9908,-0.9825,-0.962,-0.9532,-0.9412,-0.9208,-0.8885,-0.846,-0.7928,-0.7575,-0.7527,-0.7777,-0.7522,-0.7502,-0.7742,-0.7497,-0.7361,-0.7349,-0.7095,-0.6824,-0.6605,-0.6839,-0.7184,-0.7511,-0.7008,-0.6604,-0.6276,-0.5936,-0.5498,-0.5023,-0.4992,-0.4902,-0.471,-0.4307,-0.4178,-0.4048,-0.3401,-0.3175,-0.3043,-0.2314,-0.2083,-0.2047,-0.2014,-0.1981,-0.1845,-0.1373,-0.1646,-0.1688,-0.0269,0.0073,0.059,0.2455,0.1391,0.0214,0.0669,0.225,0.32,0.2064,0.2284,0.2595,0.264,0.2768,0.2898,0.2898,0.3306,0.3636,0.3775,0.3788,0.3846,0.3999,0.3873,0.3882,0.4123,0.4014,0.4272,0.5005,0.5005,0.5437,0.6289,0.6289,0.6687,0.7527,0.7782,0.8221,0.8813,0.9071,0.9361,-0.658,0.0,0.0,0.0,0.0,0.0,0.0,0.0,-1.0283,-1.0304,-1.0269,-1.023,-1.0205,-1.0197,-1.0193,-1.0202,-1.019,-1.0197,-1.0194,-1.0248,-1.0254,-1.0211,-1.0175,-1.0147,-1.0059,-0.9996,-0.9912,-0.9764,-0.9581,-0.9439,-0.9277,-0.8807,-0.8447,-0.8203,-0.7783,-0.7492,-0.7367,-0.7006,-0.676,-0.6639,-0.6664,-0.663,-0.6511,-0.6269,-0.6261,-0.644,-0.6059,-0.6154,-0.6551,-0.6922,-0.6927,-0.6626,-0.6191,-0.5734,-0.5302,-0.4768,-0.4479,-0.428,-0.3695,-0.3467,-0.3368,-0.2646,-0.2414,-0.2347,-0.2114,-0.178,-0.1548,-0.1684,-0.1311,-0.0839,-0.0469,-0.047,-0.0238,0.1167,0.1807,0.203,0.1845,0.2094,0.2165,0.1606,0.2059,0.2645,0.3051,0.2823,0.2773,0.3265,0.3081,0.3034,0.3353,0.3534,0.3636,0.3775,0.37,0.3697,0.3843,0.4039,0.4256,0.4434,0.4732,0.5091,0.548,0.5524,0.5776,0.6289,0.6289,0.6787,0.7802,0.7842,0.8221,0.8813,0.927,0.9517,-0.7181,0.0,0.0,0.0,0.0,0.0,-1.0169,-1.0246,-1.0267,0.0,-1.0259,-1.0238,-1.0209,-1.0205,-1.0202,-1.019,-1.0202,-1.0202,-1.0209,-1.0254,-1.0287,-1.0252,-1.0228,-1.0174,-1.0151,-1.0061,-0.9955,-0.9857,-0.9681,-0.9464,-0.9183,-0.8857,-0.8559,-0.8306,-0.7811,-0.7454,-0.7191,-0.6664,-0.6301,-0.6112,-0.6057,-0.5979,-0.5888,-0.5632,-0.5645,-0.5844,-0.5492,-0.5533,-0.5869,-0.6222,-0.625,-0.6029,-0.5494,-0.5093,-0.4788,-0.4344,-0.4113,-0.3914,-0.3368,-0.3208,-0.3076,-0.2347,-0.2117,-0.205,-0.178,-0.1514,-0.1279,-0.1179,-0.0739,-0.0235,-0.0067,0.0437,0.1086,0.1898,0.2437,0.262,0.2109,0.2663,0.3004,0.219,0.2413,0.2862,0.3226,0.3135,0.3132,0.3537,0.3353,0.3306,0.3578,0.3755,0.3921,0.4009,0.4114,0.4228,0.4278,0.4462,0.4661,0.4792,0.5135,0.548,0.5873,0.5953,0.6161,0.6592,0.6592,0.6987,0.7736,0.7869,0.8289,0.8952,0.9327,0.9562,-0.8051,0.0,0.0,0.0,-0.9152,0.0,-1.0117,-1.0253,-1.0209,0.0,-1.0173,-1.0161,-1.0187,-1.0118,-1.0088,-1.0183,-1.0199,-1.0191,-1.0193,-1.0248,-1.0284,-1.0305,-1.0231,-1.0203,-1.0198,-1.0094,-0.9987,-0.9904,-0.9779,-0.9512,-0.9074,-0.8951,-0.8715,-0.8358,-0.7796,-0.7426,-0.7227,-0.6502,-0.6106,-0.6016,-0.5633,-0.5454,-0.5435,-0.5137,-0.4991,-0.5,-0.5015,-0.5139,-0.534,-0.5134,-0.5059,-0.5036,-0.4392,-0.4043,-0.3886,-0.3788,-0.3686,-0.3519,-0.3171,-0.3006,-0.2907,-0.2214,-0.1947,-0.1811,-0.1278,-0.1111,-0.0976,-0.0471,-0.0101,0.0134,0.0134,0.1043,0.2029,0.211,0.2317,0.2595,0.2841,0.3088,0.3138,0.2682,0.3129,0.3486,0.3034,0.3306,0.3581,0.3581,0.3622,0.3667,0.3667,0.41,0.436,0.436,0.4748,0.5009,0.5009,0.5053,0.514,0.5231,0.5399,0.5739,0.6264,0.6337,0.6592,0.6979,0.7054,0.7201,0.7513,0.7809,0.8391,0.9162,0.9347,0.9458,-0.872,-0.9299,-0.9974,-1.0038,-1.0058,0.0,-1.0251,-1.0287,-1.0286,0.0,-0.9734,-0.945,-1.0088,-0.9621,-0.938,-1.0083,-1.0194,-1.021,-1.0193,-1.0201,-1.0237,-1.0284,-1.0231,-1.0203,-1.0198,-1.0135,-1.0048,-0.9982,-0.9767,-0.9568,-0.9421,-0.903,-0.8761,-0.862,-0.7952,-0.7515,-0.7351,-0.6731,-0.6331,-0.6165,-0.5434,-0.5108,-0.5088,-0.4604,-0.4382,-0.4387,-0.4432,-0.4494,-0.4504,-0.4146,-0.4442,-0.5036,-0.4483,-0.4103,-0.3821,-0.3159,-0.2925,-0.2794,-0.2137,-0.1907,-0.1842,-0.1444,-0.1039,-0.0635,-0.0101,0.0101,0.0235,0.0672,0.0841,0.0875,0.0875,0.1076,0.1464,0.2169,0.2448,0.262,0.2838,0.3064,0.335,0.3693,0.366,0.3578,0.349,0.3534,0.3581,0.3581,0.3928,0.4144,0.4144,0.4574,0.4879,0.4879,0.4966,0.5009,0.5058,0.5443,0.575,0.5964,0.6349,0.6647,0.6852,0.6852,0.6894,0.6979,0.7261,0.7453,0.7513,0.816,0.8586,0.8904,0.9247,0.9458,-0.9542,-0.987,-1.0214,-1.0246,-1.0246,0.0,0.0,-1.0273,-1.0293,-1.0253,-0.9921,-0.964,-0.9615,-0.9607,-0.9594,-0.9596,-0.9934,-1.0191,-1.0202,-1.0226,-1.026,-1.0305,-1.0231,-1.0206,-1.0195,-1.0132,-1.0052,-0.9952,-0.9819,-0.9666,-0.9517,-0.921,-0.8938,-0.8703,-0.8086,-0.7592,-0.7242,-0.6621,-0.6177,-0.5936,-0.5339,-0.4932,-0.4686,-0.4354,-0.4068,-0.3856,-0.3808,-0.3791,-0.3721,-0.3241,-0.3304,-0.369,-0.3408,-0.3192,-0.2904,-0.2167,-0.1899,-0.1833,-0.1236,-0.1036,-0.1004,-0.0636,-0.0334,-0.0033,0.0638,0.1043,0.1346,0.155,0.1585,0.1585,0.1585,0.1684,0.187,0.2283,0.2701,0.3064,0.3251,0.3634,0.4049,0.4482,0.4399,0.4316,0.4316,0.4316,0.4316,0.4316,0.4491,0.4661,0.4661,0.5048,0.5351,0.5351,0.5572,0.5707,0.5787,0.6007,0.6227,0.6447,0.6873,0.7058,0.6956,0.7527,0.7873,0.7974,0.776,0.7717,0.7896,0.8246,0.8609,0.8863,0.9276,0.9718,-1.0177,-1.0198,-1.0193,-1.0193,-1.0194,-1.0209,0.0,0.0,0.0,-1.0212,-1.0129,-0.9883,0.0,0.0,-0.9681,-0.9296,-0.9649,-1.0019,-1.019,-1.0107,-1.0112,-1.0262,-1.0234,-1.0203,-1.0203,-1.0135,-1.0056,-0.9946,-0.9925,-0.9813,-0.9594,-0.9376,-0.9107,-0.8756,-0.8201,-0.7665,-0.7101,-0.6431,-0.5939,-0.5625,-0.5078,-0.4609,-0.42,-0.3976,-0.3626,-0.3205,-0.311,-0.3043,-0.2927,-0.2393,-0.2165,-0.2093,-0.2093,-0.2009,-0.1811,-0.1138,-0.0903,-0.0836,-0.0434,-0.0301,-0.02,0.01,0.0334,0.06,0.1343,0.1919,0.2326,0.2326,0.2326,0.2332,0.2389,0.2507,0.2634,0.2723,0.3178,0.3648,0.3841,0.4295,0.4744,0.5048,0.5135,0.5091,0.5009,0.5009,0.5009,0.5009,0.5096,0.5135,0.5135,0.5529,0.583,0.583,0.6227,0.6575,0.6653,0.6689,0.6738,0.6872,0.7211,0.7308,0.717,0.82,0.8776,0.888,0.8158,0.7979,0.8316,0.8346,0.8556,0.8982,0.9525,1.0044,-1.011,-1.0145,-1.0202,-1.0205,-1.0189,-1.0195,-1.0191,0.0,-1.0212,-1.0191,0.0,-0.9343,-0.9941,0.0,0.0,-0.9837,-0.9545,-0.9393,-1.0096,-0.9588,-0.9413,-1.0121,-1.0201,-1.0192,-1.0192,-1.0134,-1.0082,-1.0083,-1.0021,-0.9958,-0.9852,-0.9447,-0.9101,-0.8881,-0.8294,-0.7694,-0.7101,-0.6431,-0.5844,-0.5327,-0.4332,-0.3743,-0.3495,-0.2948,-0.251,-0.2172,-0.2216,-0.2199,-0.2089,-0.1621,-0.1405,-0.139,-0.1276,-0.1236,-0.1136,-0.0401,-0.0133,-0.0067,0.0268,0.047,0.0571,0.0605,0.1171,0.1869,0.2377,0.2779,0.3076,0.3076,0.3076,0.3115,0.3368,0.346,0.3553,0.3826,0.4057,0.426,0.4461,0.4639,0.4952,0.5524,0.561,0.548,0.5091,0.5009,0.5009,0.5009,0.5351,0.561,0.561,0.6013,0.6325,0.6325,0.6696,0.7027,0.7286,0.7286,0.7363,0.7558,0.7635,0.7808,0.8114,0.8679,0.8778,0.8387,0.8299,0.8234,0.8316,0.8438,0.8722,0.9172,0.9971,1.0429,-1.0033,-1.0065,-1.0078,-1.0075,-1.0087,-1.0083,-1.008,-1.0114,-1.0135,-1.0135,0.0,0.0,0.0,0.0,0.0,0.0,-0.9605,-0.9644,-0.947,-0.9157,-0.9081,-0.9453,-0.9471,-0.9643,-1.0153,-1.017,-1.014,-1.0105,-1.0105,-1.0043,-0.9911,-0.9637,-0.9292,-0.8859,-0.8554,-0.7889,-0.6819,-0.6457,-0.5839,-0.4952,-0.4131,-0.3515,-0.3027,-0.2474,-0.1916,-0.1427,-0.1448,-0.1194,-0.0754,-0.0491,-0.0183,0.0123,0.0488,0.03,-0.0133,0.0766,0.1001,0.0969,0.1573,0.1707,0.1673,0.2006,0.2371,0.2739,0.2944,0.3076,0.3208,0.3208,0.3208,0.3249,0.3529,0.3622,0.3729,0.402,0.4457,0.4819,0.4986,0.5308,0.5782,0.6337,0.6264,0.6136,0.6167,0.5959,0.5798,0.5798,0.597,0.6099,0.6099,0.6483,0.6738,0.6738,0.7147,0.7482,0.7739,0.7739,0.7821,0.8021,0.8288,0.881,0.9638,0.9686,0.9724,0.9796,0.9317,0.9064,0.9105,0.9271,0.9578,1.0007,1.0418,1.0849,-0.9967,-0.9986,-1.0,-1.0006,-1.0006,-1.0,-1.0006,-1.004,-1.0078,-1.007,-1.0108,0.0,0.0,0.0,0.0,0.0,0.0,-0.9668,-0.9253,-0.9003,-0.889,-0.8936,-0.9105,-0.9469,-1.0112,-1.019,-1.0192,-1.0158,-1.0175,-1.0115,-0.9963,-0.9803,-0.9476,-0.8977,-0.8683,-0.7976,-0.682,-0.6196,-0.542,-0.4481,-0.3646,-0.2895,-0.2216,-0.1753,-0.1145,-0.0424,-0.0434,-0.0075,0.0502,0.0681,0.105,0.1531,0.2079,0.1933,0.146,0.1932,0.2004,0.1942,0.2639,0.2801,0.2765,0.313,0.3331,0.3434,0.3434,0.3467,0.3499,0.3565,0.3638,0.3759,0.393,0.4126,0.4327,0.4523,0.5065,0.5572,0.5696,0.6215,0.6725,0.7105,0.6943,0.6865,0.7147,0.6738,0.6416,0.6416,0.6496,0.6575,0.6575,0.6943,0.7189,0.7189,0.7599,0.7979,0.8185,0.8185,0.8267,0.848,0.9036,0.9651,1.0397,1.0495,1.0543,1.0588,1.0045,0.9769,0.9683,1.0017,1.0293,1.0605,1.0873,1.1303,-0.9881,-0.9952,-1.0,-1.0006,-1.0006,-1.0,-1.0006,-1.0006,-1.001,-0.9992,-1.0005,-1.0019,-1.0056,-0.9406,0.0,0.0,0.0,0.0,0.0,-0.9287,-0.8806,-0.8806,-0.9551,-1.0076,-1.0096,-1.0155,-1.0226,-1.0291,-1.0175,-1.0091,-1.0086,-0.9842,-0.9607,-0.939,-0.856,-0.7878,-0.7388,-0.5503,-0.4349,-0.3907,-0.2533,-0.1485,-0.075,-0.0555,0.0089,0.1021,0.1037,0.1194,0.1472,0.1822,0.2148,0.2511,0.3108,0.357,0.3774,0.297,0.2679,0.2712,0.313,0.3482,0.3727,0.3612,0.3806,0.407,0.407,0.4178,0.4312,0.4505,0.4777,0.5033,0.4963,0.532,0.5728,0.5764,0.6209,0.6689,0.6823,0.728,0.7641,0.7682,0.7675,0.7682,0.7682,0.6943,0.6416,0.6416,0.6738,0.6979,0.6979,0.7391,0.7682,0.7682,0.8111,0.8447,0.8675,0.8675,0.8765,0.8975,0.9744,1.0013,0.9725,1.0847,1.0921,0.9738,1.0077,1.0077,0.9683,1.0274,1.0596,1.0596,1.1271,1.1797,-0.9766,-0.9759,-0.974,-0.9781,-0.9767,-0.974,-0.9781,-0.9832,-0.9881,-0.9933,-0.9936,-0.9962,-1.0024,-0.9753,0.0,0.0,0.0,0.0,0.0,-0.8883,-0.8726,-0.8731,-0.9031,-0.9249,-0.9239,-0.9785,-0.993,-0.9415,-0.9835,-1.0084,-1.0036,-0.995,-0.9755,-0.9406,-0.8651,-0.7625,-0.6351,-0.5248,-0.3874,-0.2243,-0.1439,-0.0606,0.0238,0.0657,0.1123,0.157,0.1808,0.2103,0.2444,0.2686,0.3169,0.3744,0.3724,0.4077,0.4541,0.4016,0.3728,0.3653,0.3941,0.4264,0.459,0.4526,0.4596,0.4698,0.4698,0.473,0.4762,0.4864,0.4958,0.5138,0.5663,0.5926,0.6188,0.668,0.7007,0.7231,0.7273,0.7523,0.7807,0.8111,0.7897,0.7807,0.8111,0.7648,0.7273,0.7273,0.7398,0.7474,0.7474,0.7855,0.816,0.816,0.8529,0.8895,0.9079,0.9257,0.9386,0.9475,1.0202,1.0596,1.0514,1.1426,1.1563,1.0884,1.1012,1.1053,1.0964,1.1318,1.1608,1.1901,1.1979,1.208,-0.9666,-0.9635,-0.962,-0.9688,-0.9658,-0.962,-0.9695,-0.9724,-0.9759,-0.9838,-0.9863,-0.9893,-0.9946,-0.9903,0.0,0.0,0.0,0.0,0.0,-0.8953,-0.9003,-0.8947,-0.914,-0.9256,-0.9231,-0.9686,-0.9826,-0.9395,-0.9758,-0.9919,-0.9727,-0.8803,-0.8083,-0.7601,-0.5968,-0.4694,-0.3844,-0.2821,-0.168,-0.0433,0.0209,0.0904,0.1668,0.2072,0.2414,0.273,0.2929,0.3219,0.3577,0.3637,0.4186,0.4973,0.4774,0.5103,0.5598,0.4814,0.4628,0.477,0.5023,0.5257,0.5435,0.5365,0.5239,0.5195,0.5455,0.5287,0.5094,0.5591,0.5651,0.5732,0.6253,0.6577,0.6912,0.7293,0.7551,0.7807,0.7923,0.817,0.8464,0.8895,0.8716,0.8626,0.8935,0.8716,0.8341,0.7799,0.7855,0.7938,0.7938,0.8324,0.8618,0.8618,0.8862,0.9096,0.9279,0.9545,0.9762,0.9911,1.0531,1.0974,1.1137,1.1742,1.1997,1.181,1.177,1.181,1.19,1.2273,1.2584,1.2892,1.292,1.2955]},{"header":{"parameterUnit":"m.s-1","parameterCategory":1,"la1":30.6,"la2":29.2853,"lo1":-89.7004,"lo2":-87.6739,"dy":0.0162,"dx":0.0183,"nx":112,"ny":82,"refTime":"2024-09-16T12:00:00:Z","depth":0,"parameterNumber":3,"parameterNumberName":"V-component_of_WINDS"},"data":[0.0,0.0,0.0,0.0,0.0,0.0,0.0,0.0,0.0,0.0,0.0,0.0,0.0,0.0,0.0,0.0,0.0,0.0,0.0,0.0,0.0,0.0,0.0,0.0,0.0,0.0,0.0,0.0,0.0,0.0,0.0,0.0,0.0,0.0,0.0,0.0,0.0,0.0,0.0,0.0,0.0,0.0,0.0,0.0,0.0,0.0,0.0,0.0,0.0,0.0,0.0,0.0,0.0,0.0,0.0,0.0,0.0,0.0,0.0,0.0,0.0,0.0,0.0,0.0,0.0,0.0,0.0,0.0,0.0,0.0,0.0,0.0,0.0,0.0,0.0,0.0,0.0,0.0,0.0,0.0,0.0,0.0,0.0,0.0,0.0,0.0,0.0,0.0,0.0,0.0,-1.5207,-1.6407,-1.8478,-1.9762,-1.9762,-1.9649,-1.8185,-1.4942,0.0,0.0,0.0,0.0,0.0,0.0,0.0,0.0,0.0,0.0,0.0,0.0,0.0,0.0,0.0,0.0,0.0,0.0,0.0,0.0,0.0,0.0,0.0,0.0,0.0,0.0,0.0,0.0,0.0,0.0,0.0,0.0,0.0,0.0,0.0,0.0,0.0,0.0,0.0,0.0,0.0,0.0,0.0,0.0,0.0,0.0,0.0,0.0,0.0,0.0,0.0,0.0,0.0,0.0,0.0,0.0,0.0,0.0,0.0,0.0,0.0,0.0,0.0,0.0,0.0,0.0,0.0,0.0,0.0,0.0,0.0,0.0,0.0,0.0,0.0,0.0,0.0,0.0,0.0,0.0,0.0,0.0,0.0,0.0,0.0,0.0,0.0,0.0,0.0,0.0,0.0,0.0,0.0,0.0,0.0,0.0,0.0,0.0,0.0,0.0,0.0,0.0,0.0,0.0,-1.6052,-1.9135,-1.9812,-2.004,-2.004,-1.9421,-1.7851,-1.5142,0.0,0.0,0.0,0.0,0.0,0.0,0.0,0.0,0.0,0.0,0.0,0.0,0.0,0.0,0.0,0.0,0.0,0.0,0.0,0.0,0.0,0.0,0.0,0.0,0.0,0.0,0.0,0.0,0.0,0.0,0.0,0.0,0.0,0.0,0.0,0.0,0.0,0.0,0.0,0.0,0.0,0.0,0.0,0.0,0.0,0.0,0.0,0.0,0.0,0.0,0.0,0.0,0.0,0.0,0.0,0.0,0.0,0.0,0.0,0.0,0.0,0.0,0.0,0.0,0.0,0.0,0.0,0.0,0.0,0.0,0.0,0.0,0.0,0.0,0.0,0.0,0.0,0.0,0.0,0.0,0.0,0.0,0.0,0.0,0.0,0.0,0.0,0.0,0.0,0.0,0.0,0.0,0.0,0.0,0.0,0.0,0.0,0.0,0.0,0.0,0.0,0.0,0.0,-1.5459,-1.684,-1.9783,-2.0088,-2.0088,-2.0088,-1.9362,-1.777,-1.5163,-1.4495,0.0,0.0,0.0,0.0,0.0,0.0,0.0,0.0,0.0,0.0,0.0,0.0,0.0,0.0,0.0,0.0,0.0,0.0,0.0,0.0,0.0,0.0,0.0,0.0,0.0,0.0,0.0,0.0,0.0,0.0,0.0,0.0,0.0,0.0,0.0,0.0,0.0,0.0,0.0,0.0,0.0,0.0,0.0,0.0,0.0,0.0,0.0,0.0,0.0,0.0,0.0,0.0,0.0,0.0,0.0,0.0,0.0,0.0,0.0,0.0,0.0,0.0,0.0,0.0,0.0,0.0,0.0,0.0,0.0,0.0,0.0,0.0,0.0,0.0,0.0,0.0,0.0,0.0,0.0,0.0,0.0,0.0,0.0,0.0,0.0,0.0,0.0,0.0,0.0,0.0,0.0,0.0,0.0,0.0,0.0,0.0,0.0,0.0,0.0,0.0,0.0,0.0,-1.6723,-1.7543,-1.9652,-2.0035,-2.0082,-1.9882,-1.8923,-1.7309,-1.4892,-1.378,0.0,0.0,0.0,0.0,0.0,0.0,0.0,0.0,0.0,0.0,0.0,0.0,0.0,0.0,0.0,0.0,0.0,0.0,0.0,0.0,0.0,0.0,0.0,0.0,0.0,0.0,0.0,0.0,0.0,0.0,0.0,0.0,0.0,0.0,0.0,0.0,0.0,0.0,0.0,0.0,0.0,0.0,0.0,0.0,0.0,0.0,0.0,0.0,0.0,0.0,0.0,0.0,0.0,0.0,0.0,0.0,0.0,0.0,0.0,0.0,0.0,0.0,0.0,0.0,0.0,0.0,0.0,0.0,0.0,0.0,0.0,0.0,0.0,0.0,0.0,0.0,0.0,0.0,0.0,0.0,0.0,0.0,0.0,0.0,0.0,0.0,0.0,0.0,0.0,0.0,0.0,0.0,0.0,0.0,0.0,0.0,0.0,0.0,0.0,0.0,0.0,0.0,-1.6229,-1.8078,-1.9076,-1.9848,-1.9984,-1.9237,-1.7623,-1.589,-1.4096,-1.2391,0.0,0.0,0.0,0.0,0.0,0.0,0.0,0.0,0.0,0.0,0.0,0.0,0.0,0.0,0.0,0.0,0.0,0.0,0.0,0.0,0.0,0.0,0.0,0.0,0.0,0.0,0.0,0.0,0.0,0.0,0.0,0.0,0.0,0.0,0.0,0.0,0.0,0.0,0.0,0.0,0.0,0.0,0.0,0.0,0.0,0.0,0.0,0.0,0.0,0.0,0.0,0.0,0.0,0.0,0.0,0.0,0.0,0.0,0.0,0.0,0.0,0.0,0.0,0.0,0.0,0.0,0.0,0.0,0.0,0.0,0.0,0.0,0.0,0.0,0.0,0.0,0.0,0.0,0.0,0.0,0.0,0.0,0.0,0.0,0.0,0.0,0.0,0.0,0.0,0.0,0.0,0.0,0.0,0.0,0.0,0.0,0.0,0.0,0.0,0.0,0.0,0.0,-1.5299,-1.6769,-1.8139,-1.8551,-1.8609,-1.8313,-1.719,-1.5763,-1.4,0.0,0.0,0.0,0.0,0.0,0.0,0.0,0.0,0.0,0.0,0.0,0.0,0.0,0.0,0.0,0.0,0.0,0.0,0.0,0.0,0.0,0.0,0.0,0.0,0.0,0.0,0.0,0.0,0.0,0.0,0.0,0.0,0.0,0.0,0.0,0.0,0.0,0.0,0.0,0.0,0.0,0.0,0.0,0.0,0.0,0.0,0.0,0.0,0.0,0.0,0.0,0.0,0.0,0.0,0.0,0.0,0.0,0.0,0.0,0.0,0.0,0.0,0.0,0.0,0.0,0.0,0.0,0.0,0.0,0.0,0.0,0.0,0.0,0.0,0.0,0.0,0.0,0.0,0.0,0.0,0.0,0.0,0.0,0.0,0.0,0.0,0.0,0.0,0.0,0.0,0.0,0.0,0.0,0.0,0.0,0.0,0.0,0.0,0.0,0.0,0.0,0.0,-1.3469,-1.4853,-1.6188,-1.7326,-1.7699,-1.7758,-1.7462,-1.665,-1.5416,-1.3656,0.0,0.0,0.0,0.0,0.0,0.0,0.0,0.0,0.0,0.0,0.0,0.0,0.0,0.0,0.0,0.0,0.0,0.0,0.0,0.0,0.0,0.0,0.0,0.0,0.0,0.0,0.0,0.0,0.0,0.0,0.0,0.0,0.0,0.0,0.0,0.0,0.0,0.0,0.0,0.0,0.0,0.0,0.0,0.0,0.0,0.0,0.0,0.0,0.0,0.0,0.0,0.0,0.0,0.0,0.0,0.0,0.0,0.0,0.0,0.0,0.0,0.0,0.0,0.0,0.0,0.0,0.0,0.0,0.0,0.0,0.0,0.0,0.0,0.0,0.0,0.0,0.0,0.0,0.0,0.0,0.0,0.0,0.0,0.0,0.0,0.0,0.0,0.0,0.0,0.0,0.0,0.0,0.0,0.0,0.0,0.0,0.0,0.0,0.0,0.0,0.0,0.0,-1.2803,-1.5065,-1.6699,-1.6688,-1.745,-1.7626,-1.6767,-1.5898,-1.4641,0.0,0.0,0.0,0.0,0.0,0.0,0.0,0.0,0.0,0.0,0.0,0.0,0.0,0.0,0.0,0.0,0.0,0.0,0.0,0.0,0.0,0.0,0.0,0.0,0.0,0.0,0.0,0.0,0.0,0.0,0.0,0.0,0.0,0.0,0.0,0.0,0.0,0.0,0.0,0.0,0.0,0.0,0.0,0.0,0.0,0.0,0.0,0.0,0.0,0.0,0.0,0.0,0.0,0.0,0.0,0.0,0.0,0.0,0.0,0.0,0.0,0.0,0.0,0.0,0.0,0.0,0.0,0.0,0.0,0.0,0.0,0.0,0.0,0.0,0.0,0.0,0.0,0.0,0.0,0.0,0.0,0.0,0.0,0.0,0.0,0.0,0.0,0.0,0.0,0.0,0.0,0.0,0.0,0.0,0.0,0.0,0.0,0.0,0.0,0.0,0.0,0.0,0.0,-1.279,-1.4555,-1.579,-1.5772,-1.6007,-1.6066,-1.5812,-1.4988,-1.4007,-1.2865,0.0,0.0,0.0,0.0,0.0,0.0,0.0,0.0,0.0,0.0,0.0,0.0,0.0,0.0,0.0,0.0,0.0,0.0,0.0,0.0,0.0,0.0,0.0,0.0,0.0,0.0,0.0,0.0,0.0,0.0,0.0,0.0,0.0,0.0,0.0,0.0,0.0,0.0,0.0,0.0,0.0,0.0,0.0,0.0,0.0,0.0,0.0,0.0,0.0,0.0,0.0,0.0,0.0,0.0,0.0,0.0,0.0,0.0,0.0,0.0,0.0,0.0,0.0,0.0,0.0,0.0,0.0,0.0,0.0,0.0,0.0,0.0,0.0,0.0,0.0,0.0,0.0,0.0,0.0,0.0,0.0,0.0,0.0,0.0,0.0,0.0,0.0,0.0,0.0,0.0,0.0,0.0,0.0,0.0,0.0,0.0,0.0,0.0,0.0,0.0,0.0,0.0,-1.3266,-1.4834,-1.593,-1.593,-1.593,-1.5773,-1.5421,-1.4914,-1.411,-1.2915,0.0,0.0,0.0,0.0,0.0,0.0,0.0,0.0,0.0,0.0,0.0,0.0,0.0,0.0,0.0,0.0,0.0,0.0,0.0,0.0,0.0,0.0,0.0,0.0,0.0,0.0,0.0,0.0,0.0,0.0,0.0,0.0,0.0,0.0,0.0,0.0,0.0,0.0,0.0,0.0,0.0,0.0,0.0,0.0,0.0,0.0,0.0,0.0,0.0,0.0,0.0,0.0,0.0,0.0,0.0,0.0,0.0,0.0,0.0,0.0,0.0,0.0,0.0,0.0,0.0,0.0,0.0,0.0,0.0,0.0,0.0,0.0,0.0,0.0,0.0,0.0,0.0,0.0,0.0,0.0,0.0,0.0,0.0,0.0,0.0,0.0,0.0,0.0,0.0,0.0,0.0,0.0,0.0,0.0,0.0,0.0,0.0,0.0,0.0,0.0,0.0,0.0,-1.3988,-1.5615,-1.6732,-1.681,-1.6751,-1.638,-1.5598,-1.5364,-1.4622,-1.3119,0.0,0.0,0.0,0.0,0.0,0.0,0.0,0.0,0.0,0.0,0.0,0.0,0.0,0.0,0.0,0.0,0.0,0.0,0.0,0.0,0.0,0.0,0.0,0.0,0.0,0.0,0.0,0.0,0.0,0.0,0.0,0.0,0.0,0.0,0.0,0.0,0.0,0.0,0.0,0.0,0.0,0.0,0.0,0.0,0.0,0.0,0.0,0.0,0.0,0.0,0.0,0.0,0.0,0.0,0.0,0.0,0.0,0.0,0.0,0.0,-1.2026,0.0,0.0,0.0,0.0,0.0,0.0,0.0,0.0,0.0,0.0,0.0,0.0,0.0,0.0,0.0,0.0,0.0,0.0,0.0,0.0,0.0,0.0,0.0,0.0,0.0,0.0,0.0,0.0,0.0,0.0,0.0,0.0,0.0,0.0,0.0,0.0,0.0,0.0,0.0,0.0,0.0,-1.3996,-1.562,-1.6969,-1.7653,-1.7106,-1.6618,-1.6441,-1.5172,-1.4215,-1.3863,-1.2595,0.0,0.0,0.0,0.0,0.0,0.0,0.0,0.0,0.0,0.0,0.0,0.0,0.0,0.0,0.0,0.0,0.0,0.0,0.0,0.0,0.0,0.0,0.0,0.0,0.0,0.0,0.0,0.0,0.0,0.0,0.0,0.0,0.0,0.0,0.0,0.0,0.0,0.0,0.0,0.0,0.0,0.0,0.0,0.0,0.0,0.0,0.0,0.0,0.0,0.0,0.0,0.0,0.0,0.0,0.0,0.0,0.0,0.0,0.0,0.0,-1.2956,0.0,0.0,0.0,0.0,0.0,0.0,0.0,0.0,0.0,0.0,0.0,0.0,0.0,0.0,0.0,0.0,0.0,0.0,0.0,0.0,0.0,0.0,0.0,0.0,0.0,0.0,0.0,0.0,0.0,0.0,0.0,0.0,0.0,0.0,0.0,0.0,0.0,0.0,0.0,0.0,-1.5194,-1.6832,-1.8079,-1.8528,-1.8164,-1.7734,-1.7363,-1.6484,-1.5624,-1.4784,-1.3906,0.0,0.0,0.0,0.0,0.0,0.0,0.0,0.0,0.0,0.0,0.0,0.0,0.0,0.0,0.0,0.0,0.0,0.0,0.0,0.0,0.0,0.0,0.0,0.0,0.0,0.0,0.0,0.0,0.0,0.0,0.0,0.0,0.0,0.0,0.0,0.0,0.0,0.0,0.0,0.0,0.0,0.0,0.0,0.0,0.0,0.0,0.0,0.0,0.0,0.0,0.0,0.0,0.0,-1.6432,-1.6563,-1.6563,-1.6548,-1.6605,-1.6666,-1.5905,-1.5608,-1.552,-1.3592,0.0,0.0,0.0,0.0,0.0,0.0,0.0,0.0,0.0,0.0,0.0,0.0,0.0,0.0,0.0,0.0,0.0,0.0,0.0,0.0,0.0,0.0,-1.588,-1.578,-1.6457,-1.6721,-1.5197,0.0,0.0,0.0,0.0,0.0,0.0,0.0,0.0,0.0,0.0,0.0,-1.6475,-1.815,-1.9266,-1.9402,-1.9292,-1.8942,-1.8281,-1.8086,-1.7383,-1.5937,-1.5703,-1.4941,0.0,0.0,0.0,0.0,0.0,0.0,0.0,0.0,0.0,0.0,0.0,0.0,0.0,0.0,0.0,0.0,0.0,0.0,0.0,0.0,0.0,0.0,0.0,0.0,0.0,0.0,0.0,0.0,0.0,0.0,0.0,0.0,-1.0573,-1.0748,0.0,0.0,0.0,0.0,0.0,0.0,0.0,0.0,0.0,0.0,0.0,0.0,0.0,-1.53,-1.6204,-1.7552,-1.827,-1.8395,-1.9737,-2.0362,-2.0362,-2.0299,-2.0314,-2.0316,-2.0253,0.0,-1.5912,-1.5599,0.0,0.0,0.0,0.0,0.0,0.0,0.0,0.0,0.0,0.0,0.0,0.0,0.0,0.0,0.0,0.0,0.0,0.0,0.0,0.0,0.0,0.0,-1.896,-1.843,-1.8979,-1.9396,-1.8537,-1.6692,-1.5125,-1.4845,-1.4273,-1.38,0.0,0.0,0.0,0.0,0.0,0.0,-1.6483,-1.814,-1.9482,-2.0249,-1.9655,-1.9169,-1.9121,-1.8437,-1.7891,-1.7676,-1.6953,-1.6094,-1.5117,-1.4238,0.0,0.0,0.0,0.0,0.0,0.0,0.0,0.0,0.0,0.0,0.0,0.0,0.0,0.0,0.0,0.0,0.0,0.0,0.0,0.0,0.0,0.0,0.0,0.0,0.0,0.0,0.0,0.0,0.0,-1.0703,-1.144,-1.1516,-1.185,-1.1949,0.0,0.0,0.0,0.0,0.0,0.0,0.0,0.0,0.0,-1.7196,-1.7268,-1.7841,-1.9074,-1.9771,-2.0285,-2.067,-2.1345,-2.1622,-2.1556,-2.1507,-2.13,-2.0962,-2.0969,-2.0187,-1.8768,-1.7615,-1.6706,-1.5956,0.0,0.0,0.0,0.0,-1.478,-1.4966,-1.6214,-1.6614,-1.654,-1.6061,0.0,0.0,0.0,0.0,0.0,0.0,0.0,-1.673,-1.7212,-1.8497,-1.9649,-1.9465,-1.9773,-2.003,-1.9785,-1.8852,-1.7658,-1.6256,-1.6058,-1.5685,-1.4291,-1.4134,0.0,0.0,0.0,-1.7054,-1.7902,-1.9101,-2.0025,-2.0399,-2.0092,-1.9908,-1.9961,-1.9627,-1.9219,-1.8769,-1.8379,-1.7773,-1.6894,-1.5547,-1.4472,0.0,0.0,0.0,0.0,0.0,0.0,0.0,0.0,0.0,0.0,0.0,0.0,0.0,0.0,0.0,0.0,0.0,0.0,0.0,0.0,0.0,0.0,0.0,0.0,0.0,0.0,0.0,0.0,-1.1527,-1.2169,-1.2147,-1.3052,-1.3365,0.0,0.0,0.0,0.0,0.0,0.0,-1.6102,-1.6389,-1.7483,-1.9628,-1.9663,-2.0283,-2.1654,-2.1629,-2.1848,-2.2364,-2.2364,-2.2318,-2.2224,-2.2159,-2.189,-2.1401,-2.1463,-2.1511,-2.1462,-1.9647,-1.8778,-1.8432,-1.6783,-1.5876,-1.5618,-1.6429,-1.6583,-1.6601,-1.801,-1.8621,-1.8658,-1.778,-1.7229,-1.6765,-1.6054,0.0,0.0,0.0,0.0,-1.818,-1.9013,-1.9587,-1.9994,-2.0125,-2.0058,-2.004,-2.0208,-2.0241,-1.97,-1.7838,-1.7818,-1.7503,-1.5617,-1.5642,0.0,-1.5947,-1.7215,-1.8401,-1.9016,-1.985,-2.0379,-2.0399,-2.0399,-2.0424,-2.0488,-2.0497,-2.0234,-1.9648,-1.9629,-1.9238,-1.8379,-1.709,-1.6074,-1.541,0.0,0.0,0.0,0.0,0.0,0.0,0.0,0.0,0.0,0.0,0.0,0.0,0.0,0.0,0.0,0.0,0.0,0.0,0.0,0.0,0.0,0.0,0.0,0.0,0.0,0.0,0.0,0.0,0.0,-1.2585,-1.4165,0.0,0.0,0.0,0.0,-1.5128,-1.5899,-1.6998,-1.8539,-1.9343,-2.0505,-2.2075,-2.1998,-2.2339,-2.3189,-2.3069,-2.3014,-2.3049,-2.3049,-2.3049,-2.3025,-2.29,-2.2832,-2.2822,-2.2947,-2.2996,-2.2904,-2.1776,-2.0861,-2.0188,-2.026,-1.9361,-1.8121,-1.8908,-1.8728,-1.8194,-1.8974,-1.9748,-2.0262,-1.9436,-1.8147,-1.7187,-1.8691,-1.8093,0.0,0.0,-2.0394,-2.0615,-2.1498,-2.1182,-2.0685,-2.0826,-2.0276,-1.9793,-2.005,-2.0097,-2.0103,-2.0115,-1.9475,-1.8904,-1.877,0.0,-1.7664,-1.7664,-1.8403,-1.8976,-1.9079,-1.98,-2.0328,-2.0399,-2.0405,-2.043,-2.0488,-2.0499,-2.0488,-2.0449,-2.0508,-2.0137,-1.9277,-1.9141,-1.7949,-1.5449,-1.5273,0.0,0.0,0.0,0.0,0.0,0.0,0.0,0.0,0.0,0.0,0.0,0.0,0.0,0.0,0.0,0.0,0.0,0.0,0.0,0.0,0.0,0.0,0.0,0.0,0.0,0.0,0.0,0.0,-1.4656,-1.5851,0.0,-1.618,-1.6264,-1.6881,-1.8216,-1.8429,-1.9204,-2.0844,-2.1118,-2.171,-2.2764,-2.2776,-2.2869,-2.3168,-2.3102,-2.307,-2.297,-2.297,-2.2944,-2.2842,-2.279,-2.2764,-2.2764,-2.2816,-2.2825,-2.2841,-2.2776,-2.2355,-2.1751,-2.1494,-2.1027,-2.0494,-2.0205,-1.9929,-1.9638,-1.9396,-1.9822,-2.0448,-2.017,-1.9693,-1.9326,-1.9929,-1.9709,-1.9669,-2.1599,-2.2151,-2.2096,-2.1892,-2.1614,-2.1182,-2.0271,-1.9868,-1.9919,-2.0697,-2.0919,-2.112,-2.1793,-2.124,-2.067,-2.067,-2.0446,-2.006,-1.9489,-1.965,-1.9857,-1.9876,-2.0115,-2.0308,-2.0334,-2.0334,-2.036,-2.0424,-2.0443,-2.023,-1.9765,-1.9746,-1.9375,-1.8496,-1.793,-1.7187,-1.625,-1.5137,-1.3825,0.0,0.0,0.0,0.0,0.0,0.0,0.0,0.0,0.0,0.0,0.0,0.0,0.0,0.0,0.0,0.0,0.0,0.0,0.0,0.0,0.0,0.0,0.0,0.0,0.0,0.0,-1.5153,-1.5575,-1.6952,-1.7763,-1.7502,-1.8014,-1.8933,-2.0301,-2.0333,-2.0888,-2.2265,-2.2312,-2.2558,-2.3077,-2.307,-2.3028,-2.3028,-2.2995,-2.2919,-2.2842,-2.2842,-2.279,-2.2712,-2.2712,-2.2712,-2.2712,-2.2712,-2.2712,-2.2738,-2.3122,-2.3079,-2.2772,-2.2647,-2.2428,-2.2134,-2.1565,-2.1163,-2.0904,-2.0647,-2.0721,-2.0978,-2.1255,-2.1161,-2.0996,-2.1255,-2.1328,-2.1621,-2.3033,-2.34,-2.329,-2.274,-2.2206,-2.1557,-2.0559,-2.0168,-2.0204,-2.097,-2.1388,-2.1901,-2.293,-2.2525,-2.201,-2.2002,-2.2002,-2.1817,-2.1228,-2.114,-2.1147,-2.1135,-2.0904,-2.073,-2.0738,-2.0487,-2.0328,-2.0355,-2.0394,-2.0184,-1.97,-1.9432,-1.9042,-1.8457,-1.7598,-1.6992,-1.6717,-1.5272,-1.4394,-1.4075,0.0,0.0,0.0,0.0,0.0,0.0,0.0,0.0,0.0,0.0,0.0,0.0,0.0,0.0,0.0,0.0,0.0,0.0,0.0,0.0,0.0,0.0,0.0,-1.3119,-1.457,-1.551,-1.5237,-1.7446,-1.8646,-1.7803,-1.9174,-2.0433,-2.1199,-2.1489,-2.196,-2.273,-2.2977,-2.3077,-2.3095,-2.297,-2.2876,-2.2876,-2.2764,-2.2685,-2.2685,-2.2685,-2.2685,-2.2685,-2.2685,-2.2685,-2.2685,-2.2685,-2.2685,-2.2712,-2.2977,-2.3095,-2.3175,-2.3894,-2.3712,-2.3015,-2.2997,-2.2501,-2.1896,-2.2721,-2.2483,-2.1951,-2.274,-2.2464,-2.1969,-2.2758,-2.2978,-2.3162,-2.3969,-2.4208,-2.419,-2.4171,-2.2978,-2.1784,-2.178,-2.1173,-2.0631,-2.0769,-2.1451,-2.2393,-2.3567,-2.3304,-2.287,-2.287,-2.2831,-2.2812,-2.2831,-2.2793,0.0,-2.2808,-2.2114,-2.1621,-2.1606,-2.0834,-2.0332,-2.0301,-2.0351,-2.0383,-2.0336,-1.9653,-1.9252,-1.9216,-1.8418,-1.7577,-1.6763,-1.5883,-1.5839,-1.6639,0.0,0.0,0.0,0.0,0.0,0.0,0.0,0.0,0.0,0.0,0.0,0.0,0.0,0.0,0.0,0.0,0.0,0.0,0.0,0.0,0.0,-1.224,-1.3556,-1.373,-1.5077,-1.638,-1.7322,-1.8211,-1.9102,-1.9915,-2.0447,-2.1102,-2.1993,-2.2156,-2.2231,-2.2358,-2.2651,-2.2738,-2.2596,-2.2712,-2.2764,-2.2764,-2.2659,-2.2649,-2.2649,-2.2579,-2.2552,-2.2552,-2.2552,-2.2552,-2.2552,-2.2552,-2.2552,-2.2579,-2.2833,-2.306,-2.3277,-2.3689,-2.371,-2.3456,-2.3068,-2.2429,-2.1861,-2.2703,-2.2813,-2.263,-2.2868,-2.2795,-2.263,-2.2794,-2.2848,-2.3031,-2.3894,-2.4132,-2.4004,-2.3474,-2.2575,-2.1637,-2.1013,-2.0717,-2.0631,-2.0769,-2.2046,-2.3288,-2.3728,-2.4232,-2.462,-2.4611,-2.3601,-2.3004,-2.3648,-2.2658,-2.2081,-2.2725,-2.2609,-2.2233,-2.1597,-2.1309,-2.0928,-2.034,-2.0363,-1.9873,-1.8659,-1.8447,-1.8077,-1.7433,-1.7182,-1.724,-1.763,-1.6785,-1.6753,0.0,0.0,0.0,0.0,0.0,0.0,0.0,0.0,0.0,0.0,0.0,0.0,0.0,0.0,0.0,0.0,0.0,0.0,0.0,0.0,0.0,0.0,-1.3091,-1.4256,-1.446,-1.5723,-1.702,-1.8088,-1.8628,-1.9376,-2.0532,-2.0953,-2.1342,-2.1816,-2.194,-2.1911,-2.1744,-2.2153,-2.2354,-2.2231,-2.2497,-2.2623,-2.2623,-2.2579,-2.2569,-2.2569,-2.2515,-2.2515,-2.2515,-2.2515,-2.2515,-2.2515,-2.2515,-2.2515,-2.2515,-2.2668,-2.2807,-2.301,0.0,0.0,0.0,0.0,-2.305,-2.274,-2.3234,-2.3379,-2.336,-2.336,-2.336,-2.336,-2.3303,-2.3303,-2.3412,-2.3926,-2.4074,-2.3984,-2.3583,-2.2887,-2.2171,-2.1675,-2.1582,-2.1633,-2.1692,-2.2902,-2.3982,-2.4157,-2.4719,0.0,-2.5292,-2.4495,-2.4024,-2.4524,-2.3735,-2.3274,-2.3774,-2.3543,-2.3148,-2.2639,-2.1947,-2.1309,-2.0834,-2.0527,0.0,0.0,0.0,-1.8122,-1.7273,-1.7605,0.0,0.0,0.0,0.0,0.0,0.0,0.0,0.0,-1.8333,-1.8548,0.0,0.0,0.0,0.0,0.0,0.0,0.0,0.0,0.0,0.0,0.0,0.0,0.0,0.0,0.0,0.0,-1.3893,-1.4928,-1.5189,-1.6295,-1.7374,-1.8065,-1.8755,-1.9467,-2.0277,-2.0891,-2.1183,-2.1071,-2.1261,-2.1276,-2.1086,0.0,0.0,0.0,0.0,-2.2515,-2.2515,-2.2487,-2.2487,-2.2487,-2.2487,-2.2487,-2.2487,-2.2487,-2.2487,-2.2487,-2.2487,-2.2487,-2.2487,-2.2487,-2.2487,-2.2579,-2.3271,-2.3732,-2.3996,-2.3996,-2.3996,-2.3996,-2.3996,0.0,0.0,-2.3996,-2.3996,-2.3996,-2.3976,-2.3976,-2.3976,-2.3996,-2.4016,-2.4074,-2.4094,-2.3565,-2.2997,-2.2997,-2.2997,-2.2997,-2.2887,-2.3674,-2.442,-2.4535,-2.479,-2.5057,-2.5261,-2.5206,-2.5187,-2.5284,-2.5207,-2.5187,-2.5284,-2.4678,-2.4206,-2.411,-2.2716,0.0,-2.1523,-2.0858,-2.0424,-2.0395,-1.9846,-1.9178,-1.8462,-1.9264,-2.0084,-2.0863,-2.1645,-2.2439,-2.3249,-2.3244,-2.327,-2.3215,-2.0064,-2.0241,0.0,0.0,0.0,0.0,0.0,0.0,0.0,0.0,0.0,0.0,0.0,0.0,0.0,0.0,0.0,-1.2922,-1.3884,-1.4779,-1.5357,-1.6044,-1.7015,-1.8419,-1.8718,-1.9289,-2.0575,-2.0813,-2.0893,-2.086,-2.1039,-2.1055,-2.0877,-2.1568,-2.1895,-2.1672,-2.2215,-2.2515,-2.2515,-2.2432,-2.2405,-2.2405,-2.2349,0.0,-2.2338,-2.2338,-2.2338,-2.2338,-2.2338,-2.2338,-2.2338,-2.2338,-2.246,-2.2712,-2.3126,-2.3553,-2.3917,-2.3917,-2.3917,-2.3917,-2.3976,-2.3958,-2.3917,-2.3917,-2.3917,-2.3917,-2.3855,-2.3837,0.0,-2.3896,-2.3917,-2.3958,-2.4074,-2.3508,-2.2941,-2.2997,-2.2997,-2.2832,-2.2171,-2.3268,-2.4269,-2.3832,-2.442,-2.5044,-2.519,-2.4676,-2.4495,-2.5187,-2.4755,-2.4562,-2.5207,-2.5149,-2.4812,-2.4168,-2.3802,-2.3024,-2.162,-2.1405,-2.1075,-2.0434,-2.1029,-2.131,-2.1157,-2.194,-2.2447,-2.2603,-2.2779,-2.329,-2.4154,-2.4156,-2.4491,-2.5063,-2.3639,-2.3334,0.0,0.0,0.0,0.0,0.0,0.0,0.0,0.0,0.0,0.0,0.0,-1.1254,-1.1637,0.0,-1.3288,-1.3855,-1.4356,-1.4804,-1.527,-1.5653,-1.6418,-1.7887,-1.8428,-1.9119,-2.021,-2.0589,-2.0761,-2.0662,-2.073,-2.073,-2.0561,-2.1087,-2.1415,-2.1446,-2.1899,-2.222,-2.2405,-2.2366,-2.2366,-2.2366,-2.231,-2.231,-2.231,-2.231,-2.231,-2.231,-2.231,-2.231,-2.231,-2.231,-2.246,-2.2712,-2.2876,-2.3253,-2.3707,-2.3707,-2.3771,-2.3837,-2.3896,-2.3876,-2.3837,-2.3837,-2.3837,-2.3837,-2.3816,-2.3795,-2.3816,-2.3837,-2.3858,-2.3917,-2.3996,-2.3724,-2.347,-2.3527,-2.3546,-2.3436,-2.3088,-2.3748,-2.431,-2.4014,-2.4488,-2.4987,-2.5087,-2.4812,-2.4762,-2.5186,-2.4908,-2.4822,-2.5244,-2.5312,-2.5139,-2.4736,-2.4341,-2.3744,-2.287,-2.2487,-2.2131,-2.1736,-2.2205,-2.2506,-2.2506,-2.3306,-2.3755,-2.3755,-2.4184,-2.4619,-2.5055,-2.5016,-2.5213,-2.5587,-2.5127,-2.4891,0.0,0.0,0.0,0.0,0.0,0.0,0.0,0.0,-0.9289,-1.0167,-1.123,-1.2238,-1.2969,-1.3571,-1.4128,-1.4631,-1.4714,-1.4777,-1.4994,-1.5193,-1.5713,-1.6814,-1.7815,-1.8715,-1.9547,-2.0128,-2.0454,-2.0426,-2.0392,-2.0373,-2.0235,-2.0561,-2.0877,-2.115,-2.1601,-2.1915,-2.2209,-2.2282,-2.231,-2.231,-2.231,-2.231,-2.231,-2.231,-2.231,-2.231,-2.231,-2.231,-2.231,-2.231,-2.2432,-2.2649,-2.2685,-2.3003,-2.3417,-2.3481,-2.3642,-2.3795,-2.3795,-2.3795,-2.3795,-2.3795,-2.3795,-2.3795,-2.3795,-2.3795,-2.3795,-2.3795,-2.3837,-2.3896,-2.3896,-2.3937,-2.3996,-2.4074,-2.4094,-2.4113,-2.417,-2.4284,-2.4373,-2.4389,-2.462,-2.4847,-2.4966,-2.5082,-2.5145,-2.5182,-2.5192,-2.5222,-2.5282,-2.5282,-2.5292,-2.5293,-2.4726,-2.4283,-2.4137,-2.3592,-2.3256,-2.3252,-2.3478,-2.3618,-2.3618,-2.4282,-2.4651,-2.4651,-2.5336,-2.5696,-2.5703,-2.5637,-2.5595,-2.5601,-2.5599,-2.5602,-0.3854,-0.5469,-0.6217,-0.6301,-0.6962,-0.7993,0.0,0.0,-1.0056,-1.161,-1.2203,-1.2628,-1.3253,-1.3646,-1.403,-1.4319,-1.4365,-1.4365,-1.4397,-1.4578,-1.4873,-1.5312,-1.6473,-1.7746,-1.8982,-1.9165,-1.9436,-2.0015,-2.0076,-2.0041,-2.0025,-2.041,-2.063,-2.0697,-2.1401,-2.1827,-2.1857,-2.2152,-2.231,-2.231,-2.231,-2.231,-2.231,-2.231,-2.231,-2.231,-2.231,-2.231,-2.231,-2.231,-2.231,-2.2366,-2.2623,-2.2876,-2.3164,-2.3394,-2.3642,-2.3795,-2.3795,-2.3795,-2.3795,-2.3795,-2.3795,-2.3795,-2.3795,-2.3795,-2.3795,-2.3795,-2.3816,-2.3816,-2.3896,-2.3896,-2.3917,-2.3996,-2.4054,-2.4094,-2.4113,-2.417,-2.4266,-2.4391,-2.4424,-2.4556,-2.4861,-2.4929,-2.4994,-2.5171,-2.5192,-2.5192,-2.5212,-2.5212,-2.5222,-2.5292,-2.5215,-2.4899,-2.4231,-2.4167,-2.4151,-2.4156,-2.4932,-2.5414,-2.5414,-2.5492,-2.5551,-2.5551,-2.5648,-2.5696,-2.5703,-2.5637,-2.5595,-2.5601,-2.5609,-2.5589,-0.4097,-0.5496,-0.6086,-0.6202,-0.7364,-0.8601,-0.9069,-1.0056,-1.1107,-1.1976,-1.2602,-1.3161,-1.3608,-1.3631,-1.3769,0.0,-1.4157,-1.4111,-1.4268,-1.4452,-1.4627,-1.4752,-1.5682,-1.6851,-1.8288,-1.8594,-1.9056,-1.9945,-2.0005,-2.0005,-2.0005,-2.015,-2.0342,-2.0548,-2.1071,-2.1432,-2.1615,-2.1957,-2.2118,-2.2118,-2.2118,-2.2118,-2.2118,-2.2118,-2.2118,-2.2118,-2.2118,-2.2118,-2.2118,-2.2118,-2.2118,-2.2147,-2.247,-2.2747,-2.3035,-2.3371,-2.3642,-2.3795,-2.3795,-2.3795,-2.3795,-2.3795,-2.3795,-2.3795,-2.3795,-2.3795,-2.3795,-2.3795,-2.3795,-2.3816,-2.3837,-2.3837,-2.3876,-2.3917,-2.3958,-2.3996,-2.4074,-2.4113,-2.4171,-2.4266,-2.4356,-2.4441,-2.457,-2.4771,-2.4929,-2.5,-2.5141,-2.5187,-2.5209,-2.5209,-2.522,-2.5241,-2.5282,-2.5178,-2.4869,-2.4929,-2.4991,-2.4997,-2.5431,-2.5707,-2.5707,-2.5707,-2.5707,-2.5707,-2.5707,-2.5696,-2.5703,-2.5637,-2.5595,-2.5601,-2.5609,-2.5595,-0.411,-0.5217,-0.5864,-0.6057,-0.7521,-0.8921,-0.8908,-1.0175,-1.1489,-1.2013,-1.2433,-1.288,-1.3429,-1.3226,-1.3187,-1.3888,-1.3868,-1.3835,-1.4059,-1.4273,-1.4388,-1.4452,-1.5007,-1.5971,-1.7477,-1.8062,-1.8797,-1.9839,-1.9919,-1.9919,-1.9919,-1.9919,-2.0045,-2.0292,-2.0681,-2.0959,-2.1229,-2.1658,-2.1866,-2.1866,-2.1969,-2.1998,-2.1998,-2.1998,-2.1998,-2.1998,-2.1998,-2.1998,-2.1998,-2.1998,-2.1998,-2.2056,-2.2453,-2.2747,-2.2943,-2.3394,-2.366,-2.3792,-2.3795,-2.3795,-2.3795,-2.3795,-2.3795,-2.3795,-2.3795,-2.3795,-2.3795,-2.3795,-2.3795,-2.3795,-2.3795,-2.3795,-2.3816,-2.3858,-2.3896,-2.3917,-2.4016,-2.4074,-2.4094,-2.417,-2.4247,-2.4338,-2.4389,-2.4651,-2.4861,-2.4902,-2.5069,-2.5203,-2.5195,-2.5206,-2.5198,-2.5201,-2.5241,-2.5273,-2.5303,-2.5418,-2.5504,-2.5521,-2.5639,-2.5707,-2.5707,-2.5707,-2.5707,-2.5707,-2.5707,-2.5698,-2.5663,-2.5616,-2.5593,-2.56,-2.5599,-2.5601,-0.3383,-0.4501,-0.5692,-0.6029,-0.7317,-0.8774,-0.9727,-1.0199,-1.0748,-1.1879,-1.1559,-1.1376,-1.2436,-1.2207,-1.214,-1.3073,-1.3344,-1.3459,-1.3615,-1.3741,-1.3941,-1.4268,-1.4498,-1.5162,-1.6522,-1.7541,-1.8548,-1.9645,-1.9726,-1.9726,-1.9726,-1.9762,-1.9797,-1.9833,-2.0292,-2.0514,-2.0548,-2.1197,-2.1524,-2.1524,-2.1836,-2.1998,-2.1998,-2.1998,-2.1998,-2.1998,-2.1998,-2.1998,-2.1998,-2.1998,-2.1998,-2.2056,-2.266,-2.2892,-2.2968,-2.3504,-2.3743,-2.3786,-2.3813,-2.3795,-2.3795,-2.3795,-2.3795,-2.3795,-2.3795,-2.3795,-2.3795,-2.3795,-2.3795,-2.3795,-2.3795,-2.3795,-2.3795,-2.3795,-2.3837,-2.3896,-2.3896,-2.3976,-2.4016,-2.4094,-2.4113,-2.4172,-2.4373,-2.4559,-2.4749,-2.4888,-2.5069,-2.5191,-2.5191,-2.5195,-2.5198,-2.5198,-2.5201,-2.5234,-2.5301,-2.5425,-2.5529,-2.558,-2.5671,-2.5707,-2.5707,-2.5707,-2.5707,-2.5707,-2.5707,-2.5662,-2.559,-2.5609,-2.56,-2.5601,-2.5601,-2.5601,-0.3226,-0.4174,-0.5235,-0.6244,-0.7561,-0.8803,-0.9379,-1.0193,-1.0783,-1.0733,-1.0808,-1.0898,-1.1,-1.083,-1.1085,-1.2324,-1.2423,-1.2613,-1.3429,-1.356,-1.3628,-1.3762,-1.4505,-1.5301,-1.6131,-1.6927,0.0,-1.9089,-1.9273,-1.9398,-1.9632,-1.9705,-1.9726,-1.9726,-2.012,-2.0429,-2.0712,-2.1135,-2.1479,-2.1691,-2.1811,-2.1869,-2.1869,-2.1869,-2.1869,-2.1869,-2.1869,-2.1869,-2.1869,-2.1869,-2.1869,-2.1928,-2.2292,-2.2563,-2.2833,-2.323,-2.3499,-2.3674,-2.3721,-2.3768,-2.3807,-2.3807,-2.3792,-2.3795,-2.3795,-2.3795,-2.3795,-2.3795,-2.3795,-2.3795,-2.3795,-2.3795,-2.3795,-2.3795,-2.3816,-2.3855,-2.3896,-2.3917,-2.3937,-2.4016,-2.4074,-2.4133,-2.4191,-2.4478,-2.4798,-2.5057,-2.5168,-2.5191,-2.5191,-2.5203,-2.5203,-2.5203,-2.5206,-2.5201,-2.5224,-2.5398,-2.5518,-2.5529,-2.5632,-2.5703,-2.5707,-2.5707,-2.5707,-2.5707,-2.5707,-2.5662,-2.5609,-2.5609,-2.56,-2.5601,-2.5601,-2.5601,-0.2761,-0.3537,-0.4386,-0.5968,-0.7258,-0.8287,-0.8958,-0.9743,-1.0163,-0.9687,-0.9674,-0.9701,-0.9638,-0.9581,-0.9997,-1.1413,-1.1633,-1.1991,-1.3098,-1.3263,-1.3408,-1.3762,-1.462,-1.5389,-1.5964,-1.6571,0.0,-1.8878,-1.8997,-1.9199,-1.9596,-1.9705,-1.969,-1.969,-1.9925,-2.017,-2.041,-2.0877,-2.134,-2.1797,-2.1797,-2.1797,-2.1797,-2.1797,-2.1797,-2.1797,-2.1797,-2.1797,-2.1797,-2.1797,-2.1797,-2.1827,-2.2096,-2.233,-2.2563,-2.301,-2.3271,-2.3453,-2.3634,-2.3721,-2.3765,-2.3765,-2.3747,-2.3771,-2.3792,-2.3792,-2.3792,-2.3795,-2.3795,-2.3795,-2.3795,-2.3795,-2.3795,-2.3795,-2.3795,-2.3816,-2.3837,-2.3858,-2.3896,-2.3937,-2.3996,-2.4054,-2.4074,-2.4409,-2.4779,-2.5156,-2.5191,-2.5191,-2.5191,-2.5191,-2.5191,-2.5191,-2.5203,-2.5195,-2.5195,-2.5357,-2.5453,-2.546,-2.5617,-2.5701,-2.5705,-2.5707,-2.5707,-2.5707,-2.5707,-2.5662,-2.5609,-2.5609,-2.56,-2.5601,-2.5601,-2.5601,-0.195,-0.2543,-0.3271,-0.5198,-0.6338,-0.7238,-0.8423,-0.8875,-0.8958,-0.8724,-0.8187,-0.7901,-0.8358,-0.8444,-0.8907,-1.0386,-1.0922,-1.156,-1.2684,-1.2885,-1.3281,0.0,0.0,0.0,-1.5951,-1.6514,0.0,-1.8898,0.0,-1.9095,-1.9617,-1.969,-1.969,-1.969,-1.969,-1.969,-1.9711,-2.0444,-2.1135,-2.1797,-2.1797,-2.1797,-2.1797,-2.1797,-2.1797,-2.1797,-2.1797,-2.1797,-2.1797,-2.1797,-2.1797,-2.1827,-2.2068,-2.2192,-2.2275,-2.2859,-2.3095,-2.3168,-2.3549,-2.37,-2.37,-2.37,-2.37,-2.37,-2.3783,-2.3768,-2.375,-2.3795,-2.3759,-2.3741,-2.3777,-2.3795,-2.3795,-2.3795,-2.3795,-2.3795,-2.3795,-2.3795,-2.3816,-2.3896,-2.3917,-2.3937,-2.4016,-2.4355,-2.4746,-2.5144,-2.5191,-2.5191,-2.5191,-2.5191,-2.5191,-2.5191,-2.5191,-2.5191,-2.5203,-2.532,-2.5394,-2.5394,-2.5593,-2.5698,-2.5698,-2.5705,-2.5707,-2.5707,-2.5707,-2.5662,-2.5609,-2.5607,-2.5597,-2.5601,-2.5601,-2.5601,-0.0922,-0.1884,-0.3061,-0.4114,-0.5317,-0.6439,-0.71,-0.7579,-0.7739,-0.7146,-0.7107,-0.7041,-0.6547,-0.708,-0.8018,-0.9244,-0.9972,0.0,-1.3022,-1.3325,0.0,-1.4626,0.0,-1.5676,-1.5909,-1.6334,0.0,0.0,-1.8159,-1.8472,-1.8846,-1.925,-1.9487,-1.9487,-1.9487,-1.9654,-1.9995,-2.0778,-2.1402,-2.1797,-2.1797,-2.1797,-2.1797,-2.1797,-2.1797,-2.1797,-2.1797,-2.1797,-2.1797,-2.1797,-2.1797,-2.1827,-2.1869,-2.201,-2.2248,-2.266,-2.2927,-2.3126,-2.3453,-2.3585,-2.3629,-2.3629,-2.3674,-2.37,-2.3783,-2.3368,-2.3025,-2.3629,-2.3397,-2.3107,-2.365,-2.3795,-2.3795,-2.3795,-2.3795,-2.3795,-2.3795,-2.3795,-2.3795,-2.3816,-2.3998,-2.4192,-2.4408,-2.4654,-2.4912,-2.5168,-2.5191,-2.5191,-2.5191,-2.5191,-2.5191,-2.5191,-2.5191,-2.5225,-2.5262,-2.5357,-2.5413,-2.5479,-2.5621,-2.5696,-2.5698,-2.5705,-2.5707,-2.5707,-2.5699,-2.5663,-2.5609,-2.5609,-2.5609,-2.5601,-2.5601,-2.5601,-0.008,-0.0998,-0.2156,-0.3249,-0.4517,-0.558,-0.5994,-0.6417,-0.6533,-0.5947,-0.5882,-0.576,-0.5348,-0.6104,-0.7226,0.0,0.0,0.0,-1.2587,-1.3075,-1.3648,0.0,-1.5354,0.0,-1.6128,-1.6388,-1.6723,0.0,-1.7814,-1.8252,-1.8669,-1.9139,-1.9413,-1.9413,-1.9413,-1.9617,-2.0,-2.063,-2.1119,-2.1462,-2.1648,-2.1724,-2.1724,-2.1724,-2.1724,-2.1724,-2.1724,-2.1738,-2.1768,-2.1768,-2.1768,-2.1797,-2.1797,-2.1969,-2.2248,-2.2581,-2.2859,-2.3144,-2.3424,-2.3517,-2.3562,-2.3562,-2.3585,-2.3611,-2.3696,-2.339,-2.316,-2.3663,-2.3503,-2.3286,-2.3687,-2.3795,-2.3795,-2.3795,-2.3795,-2.3795,-2.3795,-2.3878,-2.3959,-2.404,-2.4174,-2.4355,-2.4588,-2.4731,-2.4893,-2.5113,-2.5168,-2.5168,-2.521,-2.5191,-2.5191,-2.5191,-2.5191,-2.5236,-2.5293,-2.5357,-2.5432,-2.551,-2.5636,-2.5707,-2.5696,-2.5701,-2.5709,-2.5698,-2.5703,-2.566,-2.5593,-2.5593,-2.5595,-2.5601,-2.5601,-2.5601,0.0549,-0.026,-0.1114,-0.2443,-0.3725,-0.4689,-0.5017,-0.5265,-0.5357,-0.5019,-0.4668,-0.4464,-0.4578,-0.5401,-0.6491,-0.7772,0.0,-1.0006,-1.19,-1.2643,-1.3501,-1.4837,-1.5467,-1.5994,-1.6471,-1.6522,-1.6693,-1.7073,-1.7639,-1.8187,-1.8745,-1.9101,-1.9302,-1.9376,-1.9376,-1.9566,-1.9969,-2.033,-2.0714,-2.1071,-2.1433,-2.1589,-2.1589,-2.1589,-2.1589,-2.1589,-2.1589,-2.1634,-2.1694,-2.1694,-2.1738,-2.1797,-2.184,-2.1998,-2.2248,-2.2607,-2.2884,-2.3144,-2.3424,-2.3494,-2.3494,-2.3494,-2.3494,-2.3517,-2.3585,-2.3513,-2.3486,-2.3599,-2.3569,-2.3479,-2.3467,-2.3487,-2.3524,-2.3632,-2.365,-2.3668,-2.3777,-2.3939,-2.4117,-2.4319,-2.4372,-2.4458,-2.4666,-2.4712,-2.4818,-2.5057,-2.5101,-2.5125,-2.518,-2.5191,-2.5191,-2.5191,-2.5191,-2.5217,-2.5322,-2.5365,-2.5432,-2.5529,-2.5648,-2.5697,-2.571,-2.5696,-2.5693,-2.5703,-2.5683,-2.5655,-2.5601,-2.5593,-2.5591,-2.5601,-2.5601,-2.5601,0.0701,-0.0311,-0.1343,-0.1609,-0.2676,-0.3673,-0.3866,-0.3986,-0.4099,-0.4245,-0.4131,-0.402,-0.4045,-0.473,-0.5737,-0.7134,-0.7988,-0.9443,-1.2132,-1.3054,-1.3964,0.0,-1.6003,-1.6409,-1.6509,-1.6522,0.0,0.0,-1.738,-1.8028,-1.8539,-1.863,-1.8822,-1.9139,-1.9265,-1.9588,-2.0212,-2.0398,-2.0828,-2.1511,-2.1589,-2.1589,-2.1589,-2.1589,-2.1589,-2.1589,-2.1589,-2.162,-2.162,-2.1664,-2.1724,-2.1738,-2.201,-2.2164,-2.2275,-2.2833,-2.3052,-2.3144,-2.3424,-2.3494,-2.3494,-2.3494,-2.3494,-2.3517,-2.3585,-2.3137,-2.2622,-2.2689,-2.2301,-2.1816,-2.1817,-2.1856,-2.2075,-2.2745,-2.289,-2.3071,-2.3668,-2.3837,-2.3919,-2.4098,-2.4284,-2.4458,-2.4666,-2.4832,-2.498,-2.5069,-2.5101,-2.5125,-2.518,-2.5191,-2.5191,-2.5191,-2.5191,-2.525,-2.5374,-2.5379,-2.5473,-2.5643,-2.5683,-2.5697,-2.571,-2.5696,-2.5693,-2.5703,-2.5659,-2.5601,-2.5601,-2.56,-2.5593,-2.5601,-2.5601,-2.5601,0.1161,0.022,-0.0805,-0.1299,-0.2128,-0.2874,-0.3119,-0.327,-0.3393,-0.3548,-0.3587,-0.3614,-0.3724,-0.4435,-0.5324,-0.6367,-0.7357,-0.8743,-1.0878,-1.2121,-1.3322,-1.4595,-1.5467,-1.6081,-1.6337,-1.6362,-1.6479,-1.6752,-1.6964,-1.738,-1.8108,-1.8592,-1.8898,-1.9101,-1.9139,-1.9347,-1.9681,-2.0124,-2.0514,-2.0861,-2.1277,-2.145,-2.145,-2.145,-2.145,-2.145,-2.145,-2.1481,-2.1495,-2.1603,-2.1664,-2.1708,-2.1928,-2.2181,-2.25,-2.2782,-2.3077,-2.3313,-2.3471,-2.3494,-2.3422,-2.3017,-2.316,-2.3445,-2.3021,-2.265,-2.2257,-2.1929,-2.1592,-2.1363,-2.1402,-2.1439,-2.1713,-2.2528,-2.3079,-2.3561,-2.4006,-2.4192,-2.4319,-2.4526,-2.4657,-2.4734,-2.4842,-2.4945,-2.5012,-2.5095,-2.5107,-2.512,-2.518,-2.5191,-2.5191,-2.5191,-2.5217,-2.5303,-2.5398,-2.5432,-2.5517,-2.5695,-2.5703,-2.5694,-2.571,-2.5705,-2.5681,-2.5641,-2.5622,-2.559,-2.56,-2.5593,-2.5601,-2.5601,-2.5601,-2.5601,0.1511,0.0736,-0.0179,-0.115,-0.1748,-0.2277,-0.2696,-0.2836,-0.2934,-0.3062,-0.3211,-0.3359,-0.357,-0.4191,-0.4966,-0.5861,-0.6803,-0.8029,-0.971,-1.1279,-1.26,-1.3647,-1.4809,0.0,-1.5979,-1.6028,0.0,-1.6782,-1.671,-1.7005,-1.776,-1.863,-1.9101,-1.9101,-1.9101,-1.9139,-1.925,-1.9859,-2.0243,-2.0361,-2.0974,-2.1309,-2.1309,-2.1309,-2.1309,-2.1309,-2.1309,-2.134,-2.1386,-2.1511,-2.1603,-2.1694,-2.1899,-2.2152,-2.2479,-2.2764,-2.3028,-2.3285,-2.3422,-2.3494,-2.3374,-2.2553,-2.2732,-2.3088,-2.2285,-2.2036,-2.1896,-2.1151,-2.0996,-2.0999,-2.0877,-2.0915,-2.1205,-2.22,-2.3157,-2.3934,-2.4264,-2.4493,-2.4707,-2.4908,-2.4936,-2.495,-2.4996,-2.501,-2.5023,-2.5089,-2.5101,-2.5126,-2.518,-2.5191,-2.5222,-2.5225,-2.5262,-2.5331,-2.5387,-2.546,-2.5565,-2.5695,-2.5699,-2.571,-2.571,-2.5693,-2.5664,-2.559,-2.56,-2.56,-2.5601,-2.5601,-2.5601,-2.5601,-2.5601,-2.5601,0.1427,0.0737,-0.0044,-0.1066,-0.1504,-0.1846,-0.2542,-0.2641,-0.2645,-0.3018,-0.3211,-0.3359,-0.357,-0.3821,-0.4499,-0.6101,-0.6447,-0.7364,-0.9815,-1.1549,-1.2701,-1.3062,0.0,0.0,-1.5463,-1.5463,-1.5714,-1.6238,-1.7034,-1.7558,-1.7787,-1.863,-1.9101,-1.9101,-1.9101,-1.9288,-1.9654,-2.0015,-2.0395,-2.0761,-2.1119,-2.1309,-2.1309,-2.1309,-2.1309,-2.1309,-2.1309,-2.1309,-2.1309,-2.1402,-2.1495,-2.1664,-2.222,-2.2108,-2.1762,-2.2982,-2.299,-2.25,-2.3249,-2.3494,-2.3374,-2.2553,-2.2339,-2.225,-2.1447,-2.1215,-2.1054,-2.0305,-2.0112,-1.9972,-1.9291,-1.9164,-1.9632,-2.1223,-2.2337,-2.3235,-2.397,-2.4284,-2.4493,-2.4692,-2.4723,-2.4802,-2.4964,-2.501,-2.5023,-2.5089,-2.5101,-2.5126,-2.518,-2.5191,-2.5225,-2.5283,-2.5303,-2.5331,-2.5387,-2.546,-2.5565,-2.5695,-2.5699,-2.571,-2.571,-2.5693,-2.5664,-2.559,-2.56,-2.56,-2.5601,-2.5601,-2.5601,-2.5601,-2.5601,-2.5601,0.1607,0.1018,0.0341,-0.0366,-0.0912,-0.1467,-0.2168,-0.2423,-0.2566,-0.2862,-0.3126,-0.3317,-0.3402,-0.3675,-0.4234,-0.5217,0.0,0.0,-0.8165,-0.9611,-1.0895,-1.2016,-1.2998,-1.3903,0.0,0.0,-1.4996,-1.5562,-1.6515,-1.7276,-1.7733,-1.8592,-1.9101,-1.9101,-1.9101,-1.9176,-1.9362,-1.9711,-2.0085,-2.0429,-2.0811,-2.1119,-2.1309,-2.1309,-2.1309,-2.1309,-2.1309,-2.1309,-2.1325,-2.1355,-2.1203,-2.1026,-2.1814,-2.1615,-2.0984,-2.203,-2.2051,-2.1625,-2.1946,-2.2071,-2.1929,-2.1161,-2.0912,-2.0858,-2.0537,-2.0448,-2.0287,-1.9502,-1.9307,-1.9255,-1.8986,-1.9309,-2.0011,-2.1223,-2.2227,-2.3143,-2.4063,-2.4442,-2.4642,-2.4846,-2.4875,-2.4908,-2.4996,-2.501,-2.5023,-2.5089,-2.5101,-2.5126,-2.518,-2.5191,-2.5236,-2.5293,-2.534,-2.539,-2.5453,-2.556,-2.5639,-2.5699,-2.5699,-2.571,-2.571,-2.5661,-2.5623,-2.5609,-2.5598,-2.5604,-2.5601,-2.5601,-2.5601,-2.5601,-2.5601,-2.5601,0.1618,0.1262,0.0772,0.0077,-0.0574,-0.1177,-0.1864,-0.2243,-0.2514,-0.2728,-0.3062,-0.3296,-0.3296,-0.3633,-0.4079,0.0,0.0,-0.6135,-0.7115,-0.842,-0.9724,-1.0851,0.0,-1.2574,-1.3581,-1.4057,-1.4546,-1.5149,-1.5979,-1.6837,-1.7639,-1.8422,-1.8936,-1.9101,-1.9101,-1.9101,-1.9101,-1.9603,-1.998,-2.0208,-2.0712,-2.1055,-2.1309,-2.1309,-2.1309,-2.1309,-2.1309,-2.1309,-2.1309,-2.134,-2.101,-2.0541,-2.1378,-2.1,-2.0142,-2.1162,-2.1216,-2.0805,-2.1019,-2.1108,-2.0983,-2.0234,-2.0002,-1.9966,-1.9716,-1.9645,-1.9538,-1.8967,-1.886,-1.8914,-1.8896,-1.9381,-2.0065,-2.0989,-2.1751,-2.2604,-2.3828,-2.4267,-2.453,-2.4926,-2.501,-2.501,-2.501,-2.501,-2.5023,-2.5057,-2.5089,-2.5126,-2.5168,-2.5214,-2.5261,-2.5322,-2.5398,-2.5446,-2.5498,-2.5615,-2.5699,-2.5699,-2.5699,-2.5694,-2.5701,-2.5644,-2.5598,-2.5598,-2.5591,-2.5601,-2.5601,-2.5601,-2.5601,-2.5601,-2.5601,-2.5601,0.1345,0.1347,0.1278,-0.0074,-0.0583,-0.0979,-0.1635,-0.2118,-0.2461,-0.2655,-0.3019,-0.3296,-0.3296,-0.3633,-0.41,-0.4707,-0.5361,0.0,-0.7261,-0.8713,-0.9677,0.0,-1.0783,-1.1763,-1.2186,-1.3471,-1.4546,-1.5149,-1.564,0.0,-1.7639,-1.8068,-1.8553,-1.9064,-1.9101,-1.9101,-1.9101,-1.9823,-2.0208,-2.0208,-2.0926,-2.1309,-2.1309,-2.1309,-2.1309,-2.1309,-2.1309,-2.1309,-2.1309,-2.1309,-2.0935,-2.045,-2.1012,-2.0355,-1.9281,-2.0619,-2.0644,-2.0127,-2.0858,-2.1108,-2.0983,-2.0234,-2.0002,-1.9859,-1.9056,-1.8806,-1.8806,-1.8788,-1.886,-1.8896,-1.8913,-1.8966,-1.9269,-2.027,-2.0665,-2.131,-2.3034,-2.3582,-2.3973,-2.4826,-2.501,-2.501,-2.501,-2.501,-2.4991,-2.5012,-2.5057,-2.5095,-2.5101,-2.522,-2.5322,-2.5398,-2.546,-2.5504,-2.5504,-2.5615,-2.5699,-2.5699,-2.5699,-2.5704,-2.5699,-2.5644,-2.5592,-2.5601,-2.559,-2.5601,-2.5601,-2.5601,-2.5601,-2.5601,-2.5601,-2.5601,0.1613,0.1385,0.1085,0.0404,-0.0285,-0.0943,-0.1482,-0.1941,-0.2338,-0.2648,-0.2955,-0.319,-0.3275,-0.3507,-0.393,-0.4688,-0.5173,0.0,0.0,0.0,0.0,-0.9874,-1.1388,-1.2401,0.0,0.0,-1.3433,-1.399,-1.4701,-1.5457,-1.6302,-1.6978,-1.7862,-1.9072,-1.9101,-1.9101,-1.9101,-1.9347,-1.9681,-2.0208,-2.0447,-2.0795,-2.1309,-2.1309,-2.1309,-2.1309,-2.1309,-2.1309,-2.1276,-2.0896,-2.0393,-1.9893,-2.0391,-1.9745,-1.868,-1.9797,-1.9763,-1.9217,-1.9466,-1.9538,-1.9502,-1.927,-1.9181,-1.9145,-1.8877,-1.8788,-1.8788,-1.8788,-1.8824,-1.8843,-1.8896,-1.8913,-1.9164,-2.0136,-2.0488,-2.0923,-2.217,-2.2993,-2.3611,-2.4036,-2.458,-2.501,-2.501,-2.501,-2.4991,-2.5012,-2.5057,-2.5095,-2.5101,-2.522,-2.5322,-2.5379,-2.546,-2.554,-2.5634,-2.5671,-2.5699,-2.5699,-2.5699,-2.5704,-2.5699,-2.5644,-2.5592,-2.5601,-2.559,-2.5601,-2.5601,-2.5601,-2.5601,-2.5601,-2.5601,-2.5551,0.1554,0.1297,0.0999,0.0451,-0.0202,-0.0838,-0.1263,-0.1728,-0.2178,-0.2457,-0.2783,-0.3062,-0.319,-0.3423,-0.3757,-0.4257,-0.4871,-0.5554,0.0,0.0,0.0,-1.0034,-1.1262,0.0,0.0,-1.2603,-1.2926,-1.3457,-1.395,-1.4653,-1.5631,-1.6181,-1.7043,-1.8325,-1.839,-1.8506,-1.8767,-1.903,-1.9512,-2.0208,-2.0481,-2.0877,-2.1309,-2.1309,-2.1179,-2.0936,-2.0936,-2.0774,0.0,-2.0159,-1.9668,-1.9187,-1.9562,-1.9098,-1.8281,-1.9029,-1.9064,-1.8715,-1.8715,-1.8769,-1.8788,-1.8788,-1.8788,-1.8788,-1.8788,-1.8788,-1.8788,-1.8788,-1.8788,-1.8824,-1.8878,-1.8895,-1.9091,-1.9819,-2.0058,-2.0418,-2.1475,-2.2431,-2.3191,-2.3619,-2.439,-2.501,-2.501,-2.501,-2.4991,-2.5012,-2.5088,-2.5149,-2.5134,-2.5284,-2.5398,-2.5432,-2.5517,-2.561,-2.5695,-2.5699,-2.5699,-2.5699,-2.5678,-2.5664,-2.5664,-2.562,-2.5593,-2.5595,-2.5599,-2.5601,-2.5601,-2.5601,-2.5601,-2.5601,-2.5564,-2.5498,0.0,0.1129,0.0993,0.0165,-0.0303,-0.0677,-0.104,-0.1521,0.0,-0.2164,-0.2562,-0.2907,-0.3068,-0.3338,-0.3577,-0.3618,-0.4539,-0.5389,0.0,-0.7086,0.0,0.0,-1.0626,0.0,-1.2031,-1.2449,-1.2914,-1.3409,-1.3482,-1.4051,-1.5365,-1.5538,-1.6009,-1.6886,-1.7002,-1.7417,-1.8129,-1.8842,-1.95,-2.007,-2.0814,-2.1149,-2.1163,-2.1163,-2.0823,-2.0224,-2.0224,-1.9819,-1.92,-1.9151,-1.8855,-1.8442,-1.8658,-1.8444,-1.8065,-1.8368,-1.8544,-1.8585,-1.8585,-1.8678,-1.8788,-1.8788,-1.8788,-1.8788,-1.8788,-1.8788,-1.8788,-1.8788,-1.8788,-1.8824,-1.8878,-1.8913,-1.9014,-1.9401,-1.9499,-1.9804,-2.0864,-2.182,-2.2722,-2.3461,-2.4352,-2.501,-2.501,-2.501,-2.4991,-2.4999,-2.5111,-2.5192,-2.5194,-2.5368,-2.5492,-2.5492,-2.563,-2.5699,-2.5699,-2.5699,-2.5699,-2.5703,-2.5642,-2.5603,-2.5602,-2.5598,-2.5609,-2.5601,-2.5601,-2.5601,-2.5601,-2.5601,-2.5601,-2.5595,-2.5524,-2.5445,0.1167,0.0,0.0828,-0.0071,-0.038,-0.0591,0.0,-0.1539,-0.1892,-0.214,-0.2415,-0.2659,-0.2907,-0.3105,-0.335,-0.3769,-0.4385,-0.5166,-0.6064,-0.7917,0.0,-1.0609,-1.1377,-1.1868,-1.2066,-1.2449,-1.2758,-1.2878,-1.3127,-1.3446,-1.3839,-1.4386,-1.4864,-1.5202,-1.5516,-1.6236,-1.7432,-1.81,-1.8538,-1.8669,-1.9386,-1.9673,-1.9673,-1.9673,-1.9621,-1.9475,-1.9475,-1.9378,-1.9167,-1.8751,-1.8607,-1.8593,-1.8302,-1.822,-1.8249,-1.8428,-1.8505,-1.8544,-1.8584,-1.8622,-1.8659,-1.8769,-1.8788,-1.8788,-1.8788,-1.8788,-1.8788,-1.8788,-1.8788,-1.8824,-1.8878,-1.9017,-1.9166,-1.932,-1.9504,-1.9732,-1.9982,-2.1343,-2.2552,-2.2741,-2.3973,-2.501,-2.501,-2.501,-2.501,-2.4991,-2.507,-2.5113,-2.5113,-2.5303,-2.5418,-2.5418,-2.5585,-2.5699,-2.5699,-2.5699,-2.571,-2.569,-2.5648,-2.5604,-2.5609,-2.5609,-2.5609,-2.5601,-2.5601,-2.5601,-2.5601,-2.5601,-2.5564,-2.5517,-2.5453,-2.5312,0.1163,0.1011,0.0685,-0.0213,-0.0403,-0.0521,-0.1112,-0.1536,-0.1847,-0.1978,-0.2267,-0.2534,-0.2702,-0.2939,-0.3243,-0.3649,-0.4259,-0.5195,0.0,0.0,-0.9242,-1.0658,-1.1073,-1.152,0.0,-1.2413,-1.2484,-1.2674,-1.2873,-1.3126,-1.3467,-1.3921,-1.4374,-1.4783,-1.5041,-1.5715,-1.6735,-1.7265,-1.776,-1.8192,-1.8749,-1.9072,-1.92,-1.92,-1.9021,-1.8713,-1.8713,-1.8535,-1.821,-1.7925,-1.7897,-1.8028,-1.7884,-1.7954,-1.8142,-1.8301,-1.8365,-1.8408,-1.8526,-1.8603,-1.8715,-1.8788,-1.8788,-1.8788,-1.8788,-1.8788,-1.8788,-1.8788,-1.8788,-1.8824,-1.8966,-1.9102,-1.9248,-1.939,-1.9572,-1.9732,-1.9823,-2.0932,-2.2021,-2.2419,-2.3518,-2.4523,-2.4934,-2.501,-2.5004,-2.5032,-2.5122,-2.5212,-2.5293,-2.5422,-2.5531,-2.5531,-2.5649,-2.5699,-2.5699,-2.5691,-2.5707,-2.5698,-2.564,-2.5605,-2.5603,-2.5605,-2.56,-2.5601,-2.5601,-2.5601,-2.5601,-2.5577,-2.5524,-2.5453,-2.535,-2.5173,0.1163,0.0957,0.061,-0.0224,-0.0373,-0.0451,-0.0991,0.0,0.0,0.0,0.0,-0.2425,-0.2468,-0.2799,0.0,-0.3364,0.0,0.0,-0.7089,-0.7658,-0.8576,-1.0348,-1.0482,0.0,-1.2365,-1.233,-1.2306,-1.2554,-1.2589,-1.2783,-1.329,-1.3585,-1.4046,-1.4673,-1.4984,-1.5422,-1.6021,-1.653,-1.7152,-1.7915,-1.8369,-1.8706,-1.8892,-1.8892,-1.8551,-1.7941,-1.7941,-1.7617,-1.7108,-1.7108,-1.7175,-1.732,-1.7526,-1.7726,-1.7905,-1.813,-1.8239,-1.8307,-1.8445,-1.8619,-1.8769,-1.8788,-1.8788,-1.8788,-1.8788,-1.8788,-1.8788,-1.8788,-1.8788,-1.8843,-1.9019,-1.9153,-1.9292,-1.9532,-1.9663,-1.9781,-1.9971,-2.0638,-2.1415,-2.2154,-2.295,-2.3784,-2.4636,-2.4801,-2.4873,-2.5061,-2.5206,-2.5335,-2.5444,-2.5585,-2.5667,-2.5667,-2.5695,-2.5699,-2.5699,-2.5707,-2.5701,-2.5705,-2.5644,-2.5593,-2.559,-2.5605,-2.5601,-2.5601,-2.5601,-2.5595,-2.5589,-2.5524,-2.5472,-2.5367,-2.5233,-2.5068,0.1163,0.0945,0.067,0.0071,-0.0192,-0.0395,-0.0692,-0.1082,0.0,0.0,0.0,0.0,0.0,-0.2604,-0.2851,0.0,0.0,-0.5823,0.0,0.0,-0.8961,-0.9392,0.0,-1.1394,-1.1664,-1.2258,-1.2447,-1.2037,-1.2034,-1.1874,-1.1509,-1.248,-1.3178,-1.3377,-1.439,-1.5023,-1.5172,-1.62,-1.6653,-1.6527,-1.7371,-1.7661,-1.7432,-1.7432,-1.7367,-1.7245,-1.7245,-1.7205,-1.7108,-1.7108,-1.7175,-1.732,-1.7526,-1.7726,-1.7905,-1.813,-1.8211,-1.8236,-1.8426,-1.8563,-1.8641,-1.8769,-1.8788,-1.8788,-1.8788,-1.8788,-1.8788,-1.8788,-1.8788,-1.8806,-1.8914,-1.915,-1.9394,-1.9499,-1.9745,-1.9971,-1.9982,-2.0638,-2.1244,-2.1377,-2.2097,-2.2931,-2.3765,-2.3954,-2.4231,-2.4998,-2.5214,-2.5311,-2.532,-2.5446,-2.5535,-2.5535,-2.5634,-2.5699,-2.5699,-2.5707,-2.5709,-2.5702,-2.5638,-2.5603,-2.5609,-2.5607,-2.5601,-2.5601,-2.5601,-2.5577,-2.551,-2.5503,-2.5404,-2.5231,-2.5084,-2.4949,0.1116,0.0854,0.0522,0.0269,-0.0078,-0.0471,-0.0929,-0.132,0.0,0.0,0.0,0.0,0.0,0.0,-0.3293,-0.3947,0.0,-0.5853,-0.668,-0.7324,-0.804,0.0,0.0,-1.0261,-1.1337,-1.1308,-1.1408,-1.188,-1.1616,-1.1446,-1.1363,-1.2036,-1.2568,-1.2876,-1.3877,-1.4452,-1.4498,-1.5536,-1.6068,-1.6136,-1.6611,-1.6923,-1.7108,-1.7108,-1.7108,-1.7108,-1.7108,-1.7108,-1.7108,-1.7108,-1.7141,-1.7224,-1.7496,-1.7658,-1.7789,-1.8087,-1.8256,-1.8363,-1.8483,-1.8582,-1.8715,-1.8788,-1.8788,-1.8788,-1.8788,-1.8788,-1.8788,-1.8788,-1.8788,-1.8843,-1.9019,-1.9198,-1.9394,-1.9614,-1.9813,-1.996,-1.9982,-2.0297,-2.0676,-2.113,-2.1544,-2.2129,-2.2954,-2.3511,-2.4009,-2.4492,-2.5004,-2.5387,-2.5456,-2.5543,-2.5605,-2.5605,-2.5667,-2.5707,-2.5701,-2.5703,-2.5681,-2.5658,-2.5612,-2.5604,-2.5601,-2.5601,-2.5601,-2.5601,-2.5601,-2.5577,-2.5495,-2.5421,-2.5293,-2.5091,-2.4949,-2.4832,0.1139,0.0831,0.0529,0.0347,0.0,-0.0438,-0.096,-0.1352,-0.1565,0.0,0.0,0.0,0.0,-0.2626,0.0,-0.4714,-0.5259,-0.5765,-0.6405,-0.6729,-0.734,-0.8479,-0.8645,-0.9273,-1.0822,-1.0421,-1.0451,-1.1355,-1.1041,-1.0895,-1.1115,-1.1507,-1.1902,-1.2348,-1.322,-1.3728,-1.3842,-1.4703,-1.5475,-1.6095,-1.6219,-1.657,-1.7108,-1.7108,-1.7108,-1.7108,-1.7108,-1.7108,-1.7108,-1.7117,-1.7141,-1.7175,-1.7519,-1.7704,-1.7789,-1.8113,-1.8322,-1.8465,-1.8505,-1.862,-1.8769,-1.8788,-1.8788,-1.8788,-1.8788,-1.8788,-1.8788,-1.8788,-1.8824,-1.8896,-1.9086,-1.9261,-1.9423,-1.9699,-1.9837,-1.9938,-1.9982,-2.0012,-2.0183,-2.0808,-2.0967,-2.1268,-2.2155,-2.287,-2.3429,-2.3753,-2.4556,-2.5176,-2.5284,-2.5532,-2.5699,-2.5699,-2.5707,-2.5704,-2.5709,-2.5681,-2.5642,-2.5595,-2.5598,-2.5595,-2.5601,-2.5601,-2.5601,-2.5601,-2.5589,-2.5538,-2.548,-2.5341,-2.5171,-2.4968,-2.4861,-2.4749,0.1227,0.1068,0.0892,0.0208,0.0,-0.0104,-0.0386,-0.0717,0.0,-0.1503,0.0,0.0,0.0,-0.2492,-0.3362,-0.4153,-0.5026,-0.5641,-0.5841,0.0,-0.772,-0.7527,-0.8707,-0.9566,-0.9697,-1.0005,-1.0127,-0.9972,-0.9914,-0.9811,-0.9656,-1.0453,-1.1022,-1.1308,-1.2224,-1.2816,-1.3065,-1.3757,-1.479,-1.6095,-1.6367,-1.6701,-1.7108,-1.7108,-1.7108,-1.7108,-1.7108,-1.7108,-1.7108,-1.724,-1.7296,-1.732,-1.771,-1.7988,-1.8172,-1.8246,-1.829,-1.833,-1.8528,-1.8585,-1.8641,-1.8769,-1.8788,-1.8788,-1.8788,-1.8788,-1.8788,-1.8788,-1.8896,-1.9002,-1.9019,-1.9292,-1.9582,-1.9614,-1.9813,-1.9982,-2.0012,-2.0012,-2.0031,-2.0088,-2.0088,-2.0367,-2.123,-2.1503,-2.1884,-2.2763,-2.374,-2.4377,-2.4383,-2.5167,-2.5699,-2.5699,-2.5704,-2.5691,-2.5703,-2.5636,-2.5615,-2.5605,-2.5604,-2.5595,-2.5601,-2.5601,-2.5601,-2.5601,-2.5531,-2.548,-2.5415,-2.5273,-2.5099,-2.4915,-2.4837,-2.4749,0.1183,0.0982,0.0799,0.0552,0.0381,0.0,0.0,-0.0906,-0.1125,-0.148,-0.1812,0.0,0.0,0.0,-0.375,-0.4392,-0.5063,-0.5641,-0.606,-0.6574,-0.7001,-0.7249,-0.7769,-0.8416,-0.9151,-0.9075,-0.9188,-0.9763,-0.9529,-0.9387,-0.9497,-0.9974,-1.0352,-1.0625,-1.1508,-1.21,-1.2378,-1.305,-1.382,-1.4734,-1.5749,-1.6559,-1.7108,-1.7108,-1.7108,-1.7108,-1.7108,-1.7108,-1.7108,-1.724,-1.7296,-1.7344,-1.7732,-1.8027,-1.8211,-1.8266,-1.8351,-1.8428,-1.8565,-1.8659,-1.8733,-1.8788,-1.8788,-1.8806,-1.8896,-1.8932,-1.8949,-1.9036,-1.9153,-1.9235,-1.9153,-1.9323,-1.9574,-1.9681,-1.9825,-1.9949,-1.9982,-2.0012,-2.0012,-2.0012,-2.0077,-2.0232,-2.0565,-2.1169,-2.1883,-2.2728,-2.3689,-2.4499,-2.5038,-2.5459,-2.5707,-2.5704,-2.5693,-2.5703,-2.5699,-2.564,-2.5609,-2.5604,-2.5595,-2.5593,-2.5601,-2.5601,-2.5583,-2.5531,-2.551,-2.5448,-2.5341,-2.5149,-2.5031,-2.4902,-2.4794,-2.4704,0.1027,0.0847,0.0701,0.0671,0.0,0.0,-0.0659,-0.0884,-0.1053,-0.1415,-0.17,-0.2074,-0.2846,0.0,0.0,0.0,-0.4812,-0.5303,-0.5694,-0.5825,-0.6099,-0.6676,-0.6955,-0.7433,-0.8349,-0.8094,-0.8234,-0.9102,-0.8767,-0.8719,-0.9221,-0.9414,-0.9755,-1.0272,-1.0883,-1.1353,-1.1717,-1.2427,-1.3063,-1.3582,-1.4903,-1.5822,-1.6403,-1.6403,-1.6403,-1.6419,-1.6645,-1.6743,-1.6783,-1.723,-1.7479,-1.7618,-1.79,-1.807,-1.8194,-1.8325,-1.8408,-1.8505,-1.8639,-1.8715,-1.8788,-1.8788,-1.8788,-1.8806,-1.8914,-1.8967,-1.9036,-1.9102,-1.9248,-1.939,-1.9311,-1.9446,-1.9628,-1.977,-1.9868,-1.9949,-1.9982,-2.0015,-2.0036,-2.0036,-2.0127,-2.0216,-2.0241,-2.08,-2.1455,-2.203,-2.2887,-2.3781,-2.4674,-2.5079,-2.5395,-2.5673,-2.5703,-2.57,-2.5709,-2.5642,-2.5593,-2.5591,-2.5599,-2.5601,-2.5601,-2.5583,-2.5557,-2.5495,-2.5456,-2.5397,-2.5311,-2.5122,-2.4994,-2.4902,-2.4779,-2.4723,0.0781,0.069,0.0647,0.0449,0.0,0.0,-0.0419,-0.0557,-0.0768,-0.1371,-0.1409,-0.154,-0.2362,-0.2778,0.0,-0.344,-0.4177,-0.4666,-0.4595,-0.4833,-0.5189,-0.5732,-0.6383,-0.6896,-0.717,-0.713,-0.7283,-0.7762,-0.7427,-0.7632,-0.8646,-0.8706,-0.9181,-1.0259,-1.031,-1.0556,-1.1085,-1.1899,-1.2492,-1.2909,-1.3774,-1.4429,-1.4907,-1.4907,-1.4907,-1.4939,-1.5674,-1.5998,-1.607,-1.715,-1.7816,-1.8172,-1.8194,-1.8194,-1.8215,-1.8406,-1.8485,-1.8524,-1.8732,-1.8788,-1.8788,-1.8788,-1.8788,-1.8788,-1.8806,-1.8896,-1.9001,-1.9019,-1.9202,-1.942,-1.9471,-1.9641,-1.9807,-1.9807,-1.9903,-1.9993,-1.9993,-2.0048,-2.0089,-2.0089,-2.0164,-2.0214,-2.0296,-2.0304,-2.0325,-2.0392,-2.1141,-2.2018,-2.2892,-2.3819,-2.4736,-2.5605,-2.5702,-2.5698,-2.5693,-2.5632,-2.5593,-2.5591,-2.5599,-2.5601,-2.5601,-2.555,-2.5495,-2.5495,-2.537,-2.5311,-2.5311,-2.5156,-2.5025,-2.4902,-2.4837,-2.4749,0.0781,0.0601,0.0468,0.0424,0.0,0.0,0.0,-0.059,0.0,0.0,-0.1613,-0.1885,-0.2154,-0.2619,0.0,-0.3129,-0.3668,-0.411,-0.4231,-0.452,-0.4844,-0.5204,-0.565,-0.609,-0.6399,-0.6528,-0.6825,-0.7348,-0.7264,-0.7485,-0.8094,-0.8501,-0.902,-0.9718,-1.0087,-1.0556,-1.1085,-1.1339,-1.1705,-1.2206,-1.2468,-1.3377,-1.4834,-1.4885,-1.4907,-1.4907,-1.5133,-1.523,-1.5324,-1.6392,-1.6674,-1.6487,-1.7116,-1.7363,-1.7366,-1.7567,-1.8012,-1.8524,-1.8732,-1.8788,-1.8788,-1.8788,-1.8861,-1.8967,-1.9052,-1.9186,-1.9298,-1.939,-1.9483,-1.9555,-1.962,-1.9712,-1.982,-1.9868,-1.9974,-2.0068,-2.0068,-2.0117,-2.0162,-2.0162,-2.0214,-2.0281,-2.0304,-2.0332,-2.0598,-2.1217,-2.1529,-2.2241,-2.3789,-2.4232,-2.4722,-2.5604,-2.5701,-2.5685,-2.5632,-2.5605,-2.5604,-2.5599,-2.5607,-2.5601,-2.5601,-2.555,-2.548,-2.544,-2.5341,-2.528,-2.5225,-2.5132,-2.5025,-2.4902,-2.4837,-2.4749,0.0332,0.0179,0.0089,0.0089,-0.0224,-0.056,-0.0669,0.0,0.0,0.0,-0.1531,-0.1763,-0.2025,-0.2355,0.0,-0.2811,-0.3205,-0.3549,-0.3713,-0.3938,-0.4228,-0.4669,-0.5119,-0.5543,-0.5882,-0.606,-0.6314,-0.6724,-0.6662,-0.6845,-0.7436,-0.8035,-0.871,-0.9468,-1.0033,-1.0556,-1.1085,-1.1247,-1.1505,-1.1861,-1.2066,-1.277,-1.3924,-1.4029,-1.4071,-1.4087,-1.4379,-1.4718,-1.514,-1.5804,-1.5964,-1.5839,-1.6343,-1.657,-1.659,-1.678,-1.7168,-1.7662,-1.8146,-1.836,-1.8466,-1.8771,-1.8984,-1.9086,-1.9186,-1.9298,-1.9405,-1.9497,-1.9583,-1.9652,-1.9731,-1.9795,-1.9856,-1.9884,-2.0007,-2.0089,-2.0089,-2.0171,-2.023,-2.023,-2.0296,-2.0332,-2.0332,-2.036,-2.0579,-2.1101,-2.1799,-2.2652,-2.374,-2.4485,-2.5117,-2.5644,-2.5697,-2.5681,-2.5636,-2.5625,-2.5604,-2.5604,-2.5607,-2.5589,-2.5551,-2.5495,-2.5448,-2.5387,-2.5302,-2.5236,-2.5191,-2.5163,-2.5063,-2.4902,-2.4847,-2.4794,-0.0263,-0.0382,-0.0427,-0.0405,-0.056,-0.069,-0.069,-0.0923,-0.1143,-0.1221,0.0,-0.1347,-0.1845,-0.1995,-0.2148,-0.2457,-0.2725,-0.2944,-0.3065,-0.3196,-0.3514,-0.4129,-0.4677,-0.5152,-0.5471,-0.5621,-0.5809,-0.6012,-0.5819,-0.5985,-0.6701,-0.7401,-0.8302,-0.9354,-0.9906,-1.0478,-1.1062,-1.137,-1.1637,-1.1805,-1.2262,-1.2522,-1.2607,-1.2738,-1.2811,-1.2843,-1.3511,-1.434,-1.5178,-1.5302,-1.5462,-1.5674,-1.5778,-1.5795,-1.5832,-1.6028,-1.6133,-1.6325,-1.7185,-1.7568,-1.7792,-1.855,-1.8922,-1.9091,-1.9109,-1.9259,-1.9405,-1.9405,-1.955,-1.9718,-1.9776,-1.9849,-1.9896,-1.9919,-2.0028,-2.0098,-2.0127,-2.0214,-2.0311,-2.0311,-2.0372,-2.0399,-2.0399,-2.0399,-2.0398,-2.0418,-2.1878,-2.3001,-2.3082,-2.4551,-2.5602,-2.5691,-2.5707,-2.5703,-2.569,-2.5632,-2.5589,-2.5591,-2.5593,-2.557,-2.5503,-2.544,-2.5406,-2.5397,-2.528,-2.5191,-2.5191,-2.5191,-2.5101,-2.4902,-2.4902,-2.4818,0.0154,-0.0201,-0.0604,-0.0449,-0.056,-0.069,-0.069,-0.0636,-0.0626,-0.0798,-0.1068,-0.1315,-0.1433,-0.1596,-0.1734,-0.1802,-0.2035,-0.223,-0.2254,-0.2767,-0.322,-0.3412,-0.3965,-0.4432,-0.4705,-0.4894,-0.5173,-0.552,-0.5505,-0.5673,-0.6139,-0.6718,-0.7503,-0.852,-0.908,-0.9817,-1.0777,-1.1015,-1.1347,-1.179,-1.2123,-1.2347,-1.2538,-1.2716,-1.2811,-1.2811,-1.3086,-1.3308,-1.358,-1.4424,-1.4449,-1.4008,-1.4745,-1.5072,-1.5141,-1.5222,-1.5691,-1.6304,-1.6579,-1.6679,-1.6747,-1.7039,-1.7633,-1.8279,-1.8375,-1.8955,-1.9555,-1.9555,-1.9583,-1.9665,-1.9769,-1.9839,-1.9926,-2.0031,-2.0116,-2.0188,-2.0257,-2.0318,-2.0386,-2.0386,-2.0392,-2.0399,-2.0399,-2.0399,-2.0416,-2.0476,-2.1344,-2.2269,-2.3002,-2.4023,-2.494,-2.5623,-2.5694,-2.5703,-2.569,-2.5589,-2.5542,-2.561,-2.5511,-2.5464,-2.5495,-2.544,-2.5379,-2.5322,-2.5248,-2.5191,-2.5191,-2.5191,-2.5101,-2.4902,-2.4902,-2.4818,-0.0152,-0.0402,-0.0669,-0.0559,-0.056,-0.056,-0.056,-0.0471,-0.0427,-0.0538,-0.0805,-0.1072,-0.1274,-0.1385,-0.1493,-0.1579,-0.1781,-0.196,-0.2114,-0.2524,-0.2912,-0.3217,-0.3647,-0.4019,-0.4285,-0.4604,-0.4882,-0.5088,-0.53,-0.5537,-0.5834,-0.6459,-0.7253,-0.8257,-0.8947,-0.9747,-1.0681,-1.1015,-1.1407,-1.1805,-1.2039,-1.2287,-1.2546,-1.2662,-1.2738,-1.2811,-1.294,-1.3033,-1.3138,-1.3785,-1.382,-1.3528,-1.4021,-1.4275,-1.4338,-1.4478,-1.4831,-1.5312,-1.5839,-1.6052,-1.6182,-1.6605,-1.7123,-1.7638,-1.8116,-1.8596,-1.9077,-1.9516,-1.9388,-1.9245,-1.976,-1.9665,-1.9545,-2.0018,-2.0203,-2.0265,-2.0296,-2.0346,-2.0399,-2.0399,-2.0399,-2.0399,-2.0399,-2.0437,-2.0463,-2.0492,-2.1216,-2.2081,-2.2988,-2.3865,-2.4739,-2.5619,-2.5693,-2.5681,-2.5658,-2.5556,-2.5496,-2.5498,-2.5441,-2.5406,-2.5406,-2.537,-2.5332,-2.5292,-2.5236,-2.5191,-2.5191,-2.5191,-2.5132,-2.4993,-2.4934,-2.4865,-0.0513,-0.0561,-0.0591,-0.0645,-0.0493,-0.0337,-0.0337,-0.0292,-0.027,-0.0315,-0.0537,-0.0803,-0.1139,-0.123,-0.1319,-0.1491,-0.1626,-0.1803,-0.2088,-0.2324,-0.2622,-0.3078,-0.3431,-0.3744,-0.3999,-0.4455,-0.4764,-0.4793,-0.5146,-0.5442,-0.5686,-0.6282,-0.7061,-0.8064,-0.8735,-0.9478,-1.0322,-1.0883,-1.13,-1.1604,-1.1972,-1.2307,-1.261,-1.263,-1.2703,-1.2811,-1.294,-1.3086,-1.321,-1.3329,-1.3477,-1.3605,-1.362,-1.3682,-1.3756,-1.3963,-1.4069,-1.4265,-1.5101,-1.5471,-1.5668,-1.6268,-1.6663,-1.6991,-1.7696,-1.8012,-1.8292,-1.907,-1.8847,-1.8585,-1.9382,-1.9125,-1.8869,-1.9612,-1.993,-2.0125,-2.028,-2.0237,-2.0225,-2.036,-2.0399,-2.0399,-2.0418,-2.0457,-2.0491,-2.0506,-2.124,-2.2109,-2.2986,-2.3858,-2.4729,-2.5583,-2.5681,-2.5651,-2.5593,-2.5507,-2.5454,-2.5398,-2.5249,-2.512,-2.5081,-2.4917,-2.483,-2.483,-2.5072,-2.5191,-2.5191,-2.5191,-2.5175,-2.5101,-2.4961,-2.4861,-0.007,-0.0056,-0.0143,-0.0374,-0.0247,-0.0045,-0.0045,0.0135,0.0225,0.0,-0.0403,-0.0714,-0.0781,-0.0961,-0.1139,-0.1161,-0.1274,-0.1385,-0.143,-0.1891,-0.228,-0.2415,-0.2971,-0.3458,-0.3716,-0.4236,-0.4615,-0.4793,-0.502,-0.529,-0.5686,-0.5807,-0.6272,-0.7231,-0.7356,-0.7897,-0.8859,-0.9749,-1.042,-1.0871,-1.1826,-1.2388,-1.261,-1.2724,-1.2778,-1.2811,-1.294,-1.3086,-1.321,-1.3329,-1.3477,-1.3605,-1.3667,-1.3803,-1.3977,-1.4056,-1.4188,-1.4381,-1.4514,-1.4575,-1.4617,-1.4761,-1.5341,-1.6016,-1.6242,-1.6828,-1.7468,-1.7658,-1.7651,-1.7624,-1.7867,-1.7849,-1.7838,-1.8063,-1.8699,-1.9464,-2.0218,-1.9799,-1.9496,-2.0244,-2.0399,-2.0418,-2.0482,-2.0488,-2.0508,-2.049,-2.1246,-2.2109,-2.2999,-2.3853,-2.4703,-2.5535,-2.5609,-2.5593,-2.5521,-2.5406,-2.536,-2.5398,-2.4572,-2.4117,-2.4159,-2.3389,-2.2965,-2.2965,-2.4446,-2.5191,-2.5191,-2.5191,-2.5175,-2.5101,-2.4961,-2.4861,-0.0125,-0.0038,-0.002,-0.0154,0.0022,0.0225,0.0225,0.0315,0.036,0.0247,-0.0067,-0.038,-0.0647,-0.0803,-0.0914,-0.1072,-0.1141,-0.1208,-0.1296,-0.1519,-0.1869,-0.2311,-0.2708,-0.3135,-0.3549,-0.4027,-0.4423,-0.4615,-0.4823,-0.5166,-0.5667,-0.5704,-0.6132,-0.7063,-0.7349,-0.7849,-0.8594,-0.9611,-1.0485,-1.1209,-1.1902,-1.2343,-1.2562,-1.262,-1.2719,-1.2906,-1.3139,-1.3261,-1.3312,-1.3461,-1.3542,-1.3605,-1.3636,-1.3789,-1.4005,-1.4114,-1.4282,-1.4462,-1.4545,-1.4556,-1.4567,-1.4611,-1.4862,-1.5284,-1.5843,-1.6278,-1.6703,-1.7321,-1.7167,-1.6918,-1.7562,-1.7355,-1.7209,-1.8056,-1.7965,-1.8015,-1.9181,-1.9658,-1.9954,-2.036,-2.0457,-2.0464,-2.0495,-2.0508,-2.0515,-2.0547,-2.0878,-2.1616,-2.2937,-2.3391,-2.4135,-2.5465,-2.5576,-2.5515,-2.5453,-2.4942,-2.4623,-2.4627,-2.3745,-2.3225,-2.3217,-2.2812,-2.2601,-2.2601,-2.3346,-2.3954,-2.4359,-2.4359,-2.4543,-2.4875,-2.4827,-2.4734,-0.0148,-0.0019,0.0078,0.0088,0.0247,0.0405,0.0405,0.0405,0.0405,0.0405,0.0247,0.0,-0.0356,-0.0535,-0.0693,-0.0895,-0.0961,-0.105,-0.1163,-0.1252,-0.1563,-0.2202,-0.2514,-0.288,-0.3372,-0.3856,-0.4199,-0.4414,-0.4664,-0.502,-0.5518,-0.5649,-0.6057,-0.6871,-0.7281,-0.7729,-0.8207,-0.9465,-1.0654,-1.1747,-1.2096,-1.2338,-1.2499,-1.2597,-1.2773,-1.3051,-1.3226,-1.3329,-1.3345,-1.3493,-1.3589,-1.3652,-1.3682,-1.3862,-1.4114,-1.4237,-1.438,-1.4571,-1.4672,-1.4701,-1.4693,-1.4724,-1.4734,-1.4848,-1.5565,-1.5772,-1.5931,-1.6758,-1.6521,-1.6192,-1.6933,-1.6675,-1.6455,-1.7509,-1.7164,-1.6957,-1.8216,-1.9333,-2.0183,-2.045,-2.0497,-2.05,-2.0517,-2.0522,-2.0543,-2.0598,-2.059,-2.1113,-2.2576,-2.2705,-2.3337,-2.506,-2.5199,-2.5233,-2.5363,-2.4585,-2.406,-2.4005,-2.2968,-2.2345,-2.2295,-2.2085,-2.196,-2.1909,-2.1909,-2.238,-2.3379,-2.3568,-2.3903,-2.4373,-2.4564,-2.4578,0.0036,0.0183,0.0303,0.0366,0.0382,0.0405,0.0405,0.0405,0.0405,0.0405,0.0382,0.0382,0.0356,-0.0067,-0.0427,-0.0427,-0.0604,-0.0736,-0.0825,-0.1163,-0.1521,-0.1894,-0.2324,-0.2762,-0.3187,-0.364,-0.3994,-0.4207,-0.4573,-0.4902,-0.5127,-0.5499,-0.59,-0.6325,-0.6549,-0.6838,-0.7169,-0.8938,-1.0606,-1.2174,-1.2379,-1.2495,-1.2514,-1.2829,-1.3051,-1.3192,-1.3069,-1.3104,-1.3227,-1.3362,-1.3557,-1.3803,-1.3923,-1.4132,-1.4387,-1.4464,-1.4574,-1.4683,-1.4701,-1.4701,-1.4703,-1.4766,-1.4794,-1.4831,-1.5072,-1.5155,-1.5176,-1.528,-1.528,-1.5272,-1.5325,-1.535,-1.5375,-1.5449,-1.6053,-1.6852,-1.7761,-1.8647,-1.9511,-2.0346,-2.0508,-2.0522,-2.0581,-2.0586,-2.0601,-2.0594,-2.0558,-2.0834,-2.1747,-2.1815,-2.2405,-2.4082,-2.4261,-2.4551,-2.5245,-2.4505,-2.3995,-2.3995,-2.2412,-2.1474,-2.1464,-2.0671,-2.0164,-2.0031,-2.0031,-2.0838,-2.2481,-2.3167,-2.3497,-2.3476,-2.4188,-2.4459,-0.0046,0.0138,0.0341,0.0548,0.0454,0.0359,0.0492,0.0403,0.0292,0.0337,0.0405,0.0494,0.058,0.0335,0.0067,-0.0112,-0.0245,-0.0379,-0.0515,-0.0696,-0.0987,-0.1452,-0.1777,-0.2193,-0.281,-0.3226,-0.3605,-0.3973,-0.4374,-0.4755,-0.5088,-0.5347,-0.5686,-0.6099,-0.6423,-0.7052,-0.8,-0.8762,-0.9701,-1.0807,-1.1427,-1.18,-1.1931,-1.2096,-1.2499,-1.3053,-1.2707,-1.2906,-1.3461,-1.3509,-1.3589,-1.3682,-1.3818,-1.405,-1.4275,-1.4405,-1.4545,-1.4712,-1.4755,-1.4766,-1.4785,-1.4839,-1.4854,-1.4898,-1.5045,-1.5107,-1.5114,-1.524,-1.526,-1.5251,-1.5255,-1.5289,-1.5443,-1.6068,-1.6565,-1.726,-1.8534,-1.9442,-2.0143,-2.0492,-2.056,-2.057,-2.0605,-2.0604,-2.0594,-2.0533,-2.0513,-2.0802,-2.1636,-2.1681,-2.2288,-2.4022,-2.3667,-2.3625,-2.4456,-2.3226,-2.2401,-2.2412,-2.1281,-2.0622,-2.0575,-2.027,-2.004,-1.9888,-1.9809,-2.0283,-2.1311,-2.2133,-2.2715,-2.3102,-2.3914,-2.4229,-0.0098,0.0098,0.0,0.0,0.0495,0.0455,0.0489,0.0403,0.0336,0.036,0.0427,0.0584,0.0849,0.0803,0.0624,0.0379,0.0156,-0.0022,-0.0201,-0.0403,-0.0717,-0.1185,-0.1402,-0.1818,-0.2541,-0.2864,-0.3247,-0.3758,-0.4109,-0.4466,-0.4873,-0.5214,-0.5649,-0.6189,-0.6579,-0.7314,-0.8479,-0.8726,-0.9237,-1.0058,-1.0732,-1.111,-1.1231,-1.135,-1.1728,-1.2323,-1.2301,-1.2779,-1.3542,-1.3636,-1.3713,-1.3774,-1.392,-1.4114,-1.4338,-1.4422,-1.4556,-1.4703,-1.4785,-1.4804,-1.4831,-1.4923,-1.4981,-1.4977,-1.5121,-1.5176,-1.5196,-1.5279,-1.5293,-1.5306,-1.5295,-1.5326,-1.5497,-1.6117,-1.6841,-1.7678,-1.8648,-1.9516,-2.0198,-2.0527,-2.0572,-2.0577,-2.0575,-2.0547,-2.0519,-2.0473,-2.0443,-2.0623,-2.1152,-2.1185,-2.1717,-2.3134,-2.2739,-2.2716,-2.359,-2.2331,-2.1507,-2.151,-2.0677,-2.0153,-2.004,-2.0021,-1.995,-1.9774,-1.9688,-1.995,-2.0625,-2.1509,-2.224,-2.2885,-2.3748,-2.4037,0.0,0.0,0.0,0.0,0.0,0.0,0.0374,0.0,0.058,0.0516,0.0517,0.0673,0.1185,0.1296,0.1252,0.105,0.0624,0.0289,0.0133,-0.0289,-0.069,-0.1027,-0.1245,-0.1636,-0.2315,-0.2562,-0.2934,-0.3549,-0.3779,-0.4068,-0.4466,-0.5078,-0.576,-0.6564,-0.6911,-0.7527,-0.845,-0.873,-0.9306,-1.0135,-1.0366,-1.0463,-1.0495,-1.0669,-1.0867,-1.1047,-1.1906,-1.2698,-1.3411,-1.368,-1.3923,-1.4096,-1.4242,-1.4417,-1.4589,-1.46,-1.4651,-1.4714,-1.4776,-1.4813,-1.4849,-1.503,-1.5099,-1.5127,-1.5255,-1.5308,-1.5293,-1.5298,-1.5302,-1.5299,-1.531,-1.5342,-1.5416,-1.5427,-1.6758,-1.8018,-1.8037,-1.8718,-1.9589,-2.0438,-2.0541,-2.0494,-2.0502,-2.0439,-2.0402,-2.0396,-2.034,-2.0302,-2.0302,-2.0299,-2.0619,-2.1408,-2.1485,-2.1812,-2.2677,-2.1966,-2.1468,-2.1463,-2.0649,-2.0098,-1.9888,-1.9888,-1.9774,-1.9499,-1.9499,-1.9841,-2.0539,-2.1382,-2.2136,-2.281,-2.3631,-2.3917,-0.0158,0.0,0.0,0.0,0.0,0.0,0.0,0.0,0.0449,0.0427,0.0696,0.094,0.1005,0.1252,0.1433,0.1366,0.1139,0.087,0.0646,0.0335,0.0022,-0.0267,-0.0645,-0.1178,-0.1887,-0.2285,-0.2702,-0.3196,-0.3654,-0.4007,-0.4277,-0.5136,-0.5778,-0.6153,-0.6676,-0.7172,-0.7629,-0.7988,-0.8348,-0.8692,-0.9473,-0.9875,-0.9931,-1.0131,-1.0524,-1.1099,-1.1577,-1.2209,-1.2927,-1.3439,-1.3743,-1.3891,-1.4069,-1.4282,-1.4469,-1.4674,-1.4765,-1.4804,-1.496,-1.5015,-1.5038,-1.5201,-1.524,-1.525,-1.5284,-1.5327,-1.5371,-1.5377,-1.5374,-1.5368,-1.5364,-1.5383,-1.5565,-1.6188,-1.719,-1.8168,-1.8737,-1.9517,-2.0177,-2.0406,-2.0443,-2.0435,-2.0418,-2.0411,-2.0379,-2.0325,-2.0314,-2.0302,-2.0311,-2.03,-2.0619,-2.1408,-2.0985,-2.0966,-2.1793,-2.1022,-2.046,-2.0423,-2.0095,-1.9866,-1.9762,-1.975,-1.9657,-1.9499,-1.9499,-2.0137,-2.1437,-2.1692,-2.2136,-2.281,-2.3533,-2.3855,-0.0298,0.0,0.0,0.0,0.0,0.0,0.0377,0.0403,0.0359,0.0,0.0538,0.0851,0.0961,0.1185,0.1366,0.1455,0.1366,0.1208,0.0961,0.0627,0.0337,0.0179,-0.0357,-0.0912,-0.1449,-0.1978,-0.2459,-0.2896,-0.3381,-0.3896,-0.4429,-0.5088,-0.5611,-0.5979,-0.6583,-0.7012,-0.7254,-0.7768,-0.8065,-0.8185,-0.8896,-0.9252,-0.9287,-0.9467,-0.9777,-1.0225,-1.0836,-1.1535,-1.2305,-1.3045,-1.3636,-1.4118,-1.4314,-1.4482,-1.4627,-1.4785,-1.4831,-1.4865,-1.5038,-1.5092,-1.512,-1.525,-1.5303,-1.5313,-1.5327,-1.5375,-1.5396,-1.5404,-1.5392,-1.5408,-1.539,-1.5404,-1.5528,-1.604,-1.7073,-1.8073,-1.8513,-1.9566,-2.0405,-2.041,-2.0385,-2.0366,-2.0371,-2.0366,-2.0346,-2.0319,-2.0311,-2.0299,-2.0292,-2.026,-2.0408,-2.0868,-2.045,-2.0327,-2.0795,-2.0337,-1.9991,-1.996,-1.9855,-1.9762,-1.9669,-1.9625,-1.954,-1.9419,-1.9419,-2.0007,-2.1253,-2.162,-2.2319,-2.3321,-2.3678,-2.3816,-0.0492,0.0,0.0,0.0,0.038,0.0,-0.0044,0.0134,0.0334,0.0,0.0244,0.0555,0.0981,0.1086,0.1172,0.1363,0.1388,0.1296,0.1116,0.0717,0.0427,0.0405,-0.0246,-0.0803,-0.1072,-0.1689,-0.2237,-0.2654,-0.3083,-0.3723,-0.4648,-0.4962,-0.5366,-0.5907,-0.657,-0.6986,-0.7164,-0.7853,-0.8214,-0.828,-0.8592,-0.8729,-0.8741,-0.8897,-0.8957,-0.9019,-1.0005,-1.0835,-1.1582,-1.2629,-1.3622,-1.4523,-1.471,-1.483,-1.4892,-1.4917,-1.4923,-1.4943,-1.508,-1.5114,-1.5133,-1.527,-1.5306,-1.5303,-1.5377,-1.5409,-1.5399,-1.5403,-1.539,-1.541,-1.541,-1.5394,-1.5414,-1.5502,-1.6755,-1.7899,-1.794,-1.9226,-2.0385,-2.0371,-2.0327,-2.0289,-2.0302,-2.0299,-2.0312,-2.0312,-2.0285,-2.0277,-2.0277,-2.0153,-2.0079,-2.0079,-1.9971,-1.9907,-1.9907,-1.9896,-1.9873,-1.987,-1.9804,-1.9688,-1.9569,-1.9504,-1.9419,-1.9305,-1.9381,-1.9785,-2.0503,-2.1455,-2.2594,-2.3868,-2.3881,-2.3858,-0.0725,-0.0569,-0.0348,-0.0153,-0.011,0.0,0.0224,0.0337,0.0382,0.0,0.0489,0.0661,0.0772,0.0948,0.1173,0.1372,0.1274,0.1141,0.1116,0.0825,0.0581,0.0427,-0.0246,-0.0803,-0.1072,-0.156,-0.2044,-0.2512,-0.3056,-0.3577,-0.4048,-0.4776,-0.529,-0.5518,-0.6411,-0.6947,-0.7037,-0.7709,-0.8066,-0.8144,-0.8696,-0.8936,-0.8947,-0.9184,-0.9292,-0.9354,-1.0255,-1.0717,-1.1009,-1.2761,-1.3877,-1.4523,-1.4662,-1.4793,-1.4909,-1.5023,-1.505,-1.5075,-1.5202,-1.5252,-1.528,-1.5342,-1.5336,-1.5319,-1.5371,-1.539,-1.5408,-1.5395,-1.5407,-1.5405,-1.5405,-1.5392,-1.5556,-1.6203,-1.715,-1.8073,-1.8712,-1.9625,-2.0292,-2.0172,-2.0238,-2.0292,-2.0308,-2.03,-2.0312,-2.0312,-2.0208,-2.0144,-2.0144,-2.0011,-1.9939,-1.9939,-1.9918,-1.9907,-1.9915,-1.9793,-1.9726,-1.9662,-1.9541,-1.9442,-1.935,-1.935,-1.9335,-1.9305,-1.995,-2.0338,-2.0503,-2.1971,-2.2813,-2.3047,-2.3626,-2.3858,-0.0961,-0.0798,-0.0647,-0.0403,-0.0403,0.0,0.0,-0.0134,-0.0022,-0.0134,0.0108,0.04,0.0525,0.0651,0.0818,0.1009,0.0957,0.0936,0.1027,0.076,0.0515,0.0405,-0.0246,-0.0758,-0.0892,-0.1446,-0.2022,-0.2551,-0.2885,-0.3305,-0.3869,-0.4418,-0.4904,-0.5385,-0.6177,-0.6776,-0.7148,-0.7753,-0.816,-0.8361,-0.8755,-0.899,-0.9099,-0.9284,-0.9412,-0.9543,-1.0461,-1.1089,-1.1626,-1.3121,-1.4171,-1.4801,-1.4908,-1.5016,-1.5114,-1.5178,-1.5194,-1.5202,-1.5282,-1.5297,-1.5319,-1.5338,-1.5328,-1.5312,-1.5377,-1.5394,-1.539,-1.5391,-1.5407,-1.5407,-1.5407,-1.5691,-1.6103,-1.6503,-1.7547,-1.8557,-1.8922,-1.9607,-2.0124,-2.0012,-2.005,-2.0088,-2.0088,-2.0088,-2.0088,-2.0088,-2.005,-1.9991,-1.9991,-1.9877,-1.9797,-1.9797,-1.9757,-1.9738,-1.9695,-1.9649,-1.9601,-1.955,-1.9819,-1.9795,-1.9375,-1.9998,-2.0116,-1.9613,-1.9699,-1.9716,-1.9666,-2.0934,-2.1715,-2.2076,-2.2815,-2.3034,-0.125,-0.1072,-0.0914,-0.0668,-0.0646,-0.0714,0.0,0.0,0.0,-0.0669,-0.0398,-0.0043,0.0,0.0,0.0359,0.0609,0.0611,0.0635,0.0713,0.0463,0.0331,0.0493,-0.0089,-0.049,-0.049,-0.111,-0.1796,-0.2411,-0.2498,-0.2837,-0.3563,-0.4004,-0.454,-0.5261,-0.5958,-0.6634,-0.7289,-0.7836,-0.8287,-0.862,-0.8885,-0.9094,-0.9269,-0.9367,-0.9508,-0.972,-1.0669,-1.1458,-1.2193,-1.3401,-1.427,-1.4893,-1.5129,-1.5259,-1.5303,-1.5309,-1.5305,-1.5309,-1.5306,-1.5329,-1.5311,-1.5312,-1.5309,-1.5281,-1.5351,-1.5349,-1.5332,-1.5332,-1.5332,-1.5371,-1.552,-1.6055,-1.6629,-1.6951,-1.8023,-1.8989,-1.909,-1.9573,-1.9952,-1.9877,-1.9855,-1.9866,-1.9907,-1.9907,-1.9907,-1.9907,-1.9885,-1.9855,-1.9855,-1.9769,-1.9682,-1.9682,-1.9601,-1.9508,-1.946,-1.9427,-1.9431,-1.9405,-1.9947,-2.0079,-1.9567,-2.0553,-2.0675,-1.9713,-1.9219,-1.8913,-1.8789,-1.9543,-2.0281,-2.1033,-2.1906,-2.2167,-0.1714,-0.1493,-0.1208,-0.1005,-0.0959,-0.0892,-0.069,0.0,-0.0669,-0.069,0.0,-0.049,-0.0043,0.0,0.0,0.0365,0.0333,0.0143,-0.0198,-0.0188,0.0123,0.0841,0.0535,0.0267,0.0267,-0.0221,-0.0838,-0.1507,-0.1767,-0.2094,-0.2548,-0.3674,-0.4464,-0.4847,-0.5862,-0.6689,-0.7289,-0.7836,-0.8307,-0.8693,-0.9186,-0.9441,-0.9474,-0.9719,-0.9882,-1.0001,-1.089,-1.1312,-1.1551,-1.3202,-1.3953,-1.4111,-1.4965,-1.5282,-1.529,-1.5307,-1.5292,-1.5312,-1.5369,-1.5383,-1.54,-1.5398,-1.5307,-1.5218,-1.5226,-1.5177,-1.512,-1.512,-1.512,-1.5311,-1.6017,-1.6277,-1.6716,-1.8196,-1.8686,-1.9021,-1.9716,-1.9896,-1.9861,-1.975,-1.9726,-1.9762,-1.9866,-1.9907,-1.9907,-1.9907,-1.9797,-1.9726,-1.9726,-1.9668,-1.9611,-1.9611,-1.9446,-1.9308,-1.9232,-1.9232,-1.9182,-1.9064,-1.9139,-1.9448,-2.0083,-2.008,-1.9716,-1.8949,-1.886,-1.8825,-1.8789,-1.8841,-1.9249,-2.001,-2.1383,-2.1988,-0.2019,-0.1957,-0.1891,-0.1686,-0.1733,-0.1755,-0.1529,-0.1287,-0.111,-0.111,0.0,0.0,0.0,0.0,0.0,0.0,-0.0293,-0.0295,-0.0227,-0.022,-0.0119,0.0103,-0.0165,-0.0316,-0.0244,-0.0333,-0.0576,-0.1018,-0.1196,-0.1636,-0.2471,-0.3015,-0.3801,-0.4886,-0.5476,-0.6303,-0.7474,-0.7763,-0.8262,-0.8934,-0.9278,-0.9528,-0.9674,-0.983,-0.9974,-1.0154,-1.0999,-1.1363,-1.1499,-1.3233,-1.3964,-1.4042,-1.4914,-1.527,-1.5292,-1.5254,-1.528,-1.5301,-1.529,-1.5276,-1.528,-1.524,-1.5187,-1.5145,-1.5146,-1.512,-1.5092,-1.5092,-1.5092,-1.5284,-1.6082,-1.6682,-1.7358,-1.8514,-1.9116,-1.9511,-1.9812,-1.9809,-1.9676,-1.9504,-1.9569,-1.9609,-1.9559,-1.9643,-1.9732,-1.9732,-1.9681,-1.9641,-1.9641,-1.9518,-1.9431,-1.9431,-1.9243,-1.9115,-1.9034,-1.9034,-1.9,-1.8895,-1.9291,-2.0022,-2.1149,-2.0654,-2.016,-1.9755,-1.9424,-1.9004,-1.8463,-1.8904,-1.921,-1.943,-2.0558,-2.0952,-0.2324,-0.2328,-0.2355,-0.215,-0.2241,-0.2355,-0.215,-0.1883,-0.1664,-0.1595,-0.1331,0.0,0.0,0.0,0.0,0.0,0.0,-0.0867,-0.0667,-0.061,-0.0544,-0.041,-0.0537,-0.0662,-0.0707,-0.0334,-0.0245,-0.0599,-0.0645,-0.1108,-0.2163,-0.2421,-0.3194,-0.4623,-0.5192,-0.6065,-0.7314,-0.7824,-0.8427,-0.9136,-0.9437,-0.9694,-0.9892,-0.9944,-1.0052,-1.0226,-1.1046,-1.1386,-1.1493,-1.299,-1.3729,-1.3979,-1.4559,-1.4934,-1.5164,-1.519,-1.522,-1.5268,-1.5163,-1.5114,-1.5101,-1.5049,-1.5026,-1.5023,-1.5023,-1.5015,-1.5008,-1.4992,-1.5155,-1.5508,-1.6371,-1.7187,-1.8023,-1.884,-1.9409,-1.9757,-1.9701,-1.9564,-1.9394,-1.9259,-1.9338,-1.9387,-1.9243,-1.9431,-1.9602,-1.9602,-1.9555,-1.9508,-1.9508,-1.9338,-1.9227,-1.9227,-1.9048,-1.8913,-1.8825,-1.8825,-1.8789,-1.8715,-1.96,-2.0347,-2.0853,-2.0935,-2.0582,-1.9809,-1.9608,-1.9069,-1.8211,-1.894,-1.9258,-1.9132,-1.9921,-2.0286,-0.274,-0.2551,-0.2355,-0.215,-0.2241,-0.2355,-0.215,-0.2241,-0.2311,-0.2124,-0.2058,-0.1993,-0.1796,-0.1871,0.0,0.0,0.0,0.0,0.0,-0.1763,-0.1198,-0.0231,-0.0063,-0.0198,-0.0662,0.0133,0.0424,-0.018,-0.0111,-0.0374,-0.1194,-0.198,-0.2846,-0.3818,-0.5169,-0.6127,-0.6623,-0.8044,-0.8918,-0.9205,-0.9795,-1.0087,-1.0089,-1.0161,-1.0156,-1.0144,-1.1025,-1.1363,-1.137,-1.2189,-1.3007,-1.3717,-1.3735,-1.4187,-1.486,-1.5101,-1.5195,-1.5189,-1.5049,-1.4931,-1.4812,-1.4901,-1.4852,-1.4802,-1.4802,-1.4813,-1.4794,-1.4737,-1.5266,-1.6086,-1.7026,-1.7816,-1.8591,-1.9457,-1.9545,-1.9427,-1.9402,-1.9214,-1.9031,-1.9014,-1.8996,-1.9014,-1.9014,-1.9338,-1.9602,-1.9602,-1.9431,-1.9305,-1.9305,-1.913,-1.9014,-1.9014,-1.8878,-1.8752,-1.8604,-1.8604,-1.8584,-1.8505,-1.9868,-1.9974,-1.8387,-2.0401,-2.0539,-1.8314,-1.8952,-1.8952,-1.8211,-1.8824,-1.9115,-1.9115,-1.9721,-2.0433,-0.3126,-0.3147,-0.3141,-0.2944,-0.3056,-0.3141,-0.2944,-0.2842,-0.274,-0.2546,-0.2454,-0.2346,-0.2062,-0.2207,0.0,0.0,0.0,0.0,0.0,-0.2235,-0.2055,-0.1658,-0.1129,-0.0728,-0.0585,0.0043,0.0477,0.0596,0.0752,0.0528,-0.0241,-0.1002,-0.1918,-0.3033,-0.4697,-0.6038,-0.7054,-0.812,-0.8964,-0.9525,-0.9777,-0.9903,-0.9899,-1.0018,-1.0055,-1.0054,-1.0252,-1.0335,-1.038,-1.1186,-1.193,-1.2641,-1.3317,-1.3988,-1.4624,-1.4857,-1.4952,-1.4931,-1.4837,-1.4748,-1.467,-1.469,-1.4688,-1.4677,-1.4677,-1.4666,-1.4656,-1.4643,-1.4818,-1.5355,-1.6682,-1.7211,-1.772,-1.8996,-1.9253,-1.9212,-1.9196,-1.9099,-1.8964,-1.8878,-1.8948,-1.8964,-1.8878,-1.9049,-1.9196,-1.9196,-1.9148,-1.9097,-1.9097,-1.8965,-1.8878,-1.8878,-1.8715,-1.8544,-1.841,-1.8365,-1.8322,-1.8298,-1.9703,-2.0246,-1.9671,-2.1376,-2.1746,-2.047,-2.0711,-2.0357,-1.9379,-2.0211,-2.0518,-2.0305,-2.0643,-2.0923,-0.3423,-0.3507,-0.3549,-0.3359,-0.3444,-0.3549,-0.3338,-0.3254,-0.3147,-0.2891,-0.2805,-0.2697,-0.2411,-0.2584,0.0,0.0,0.0,0.0,0.0,-0.2909,-0.2882,-0.2929,-0.1901,-0.1055,-0.0706,0.019,0.086,0.105,0.1437,0.1416,0.0872,-0.0307,-0.128,-0.1966,-0.4179,-0.5875,-0.6935,-0.7911,-0.8746,-0.9443,-0.9568,-0.9606,-0.9582,-0.9643,-0.9684,-0.9681,-0.9582,-0.955,-0.9568,-1.0129,-1.0904,-1.1787,-1.2436,-1.3293,-1.4211,-1.4598,-1.4678,-1.4571,-1.4486,-1.4444,-1.4441,-1.4446,-1.4492,-1.457,-1.4787,-1.4724,-1.4689,-1.5154,-1.5319,-1.5643,-1.695,-1.7475,-1.7891,-1.8875,-1.9046,-1.8964,-1.8894,-1.8789,-1.868,-1.8544,-1.8585,-1.8605,-1.8524,-1.8585,-1.8735,-1.8946,-1.8965,-1.893,-1.893,-1.8807,-1.8695,-1.8695,-1.8581,-1.8445,-1.831,-1.8239,-1.8168,-1.8065,-1.9195,-1.9798,-1.9685,-2.1293,-2.1755,-2.0875,-2.1233,-2.0875,-1.9805,-2.0629,-2.0944,-2.0732,-2.1083,-2.1244]}]]